[[{"header":{"parameterUnit":"m.s-1","parameterCategory":1,"la1":31.0,"la2":29.5877,"lo1":-88.7671,"lo2":-86.6584,"dy":0.0162,"dx":0.0185,"nx":115,"ny":88,"refTime":"2023-03-07T06:00:00:Z","depth":0,"parameterNumber":2,"parameterNumberName":"U-component_of_WINDS"},"data":[0.0,0.0,0.0,0.0,0.0,0.0,0.0,0.0,0.0,0.0,0.0,0.0,0.0,0.0,0.0,0.0,0.0,0.0,0.0,0.0,0.0,0.0,0.0,0.0,0.0,0.0,0.0,0.0,0.0,0.0,0.0,0.0,0.0,0.0,0.0,0.0,0.0,0.0,0.0,0.0,0.0,0.0,0.0,0.0,0.0,0.0,0.0,0.0,0.0,0.0,0.0,0.0,0.0,0.0,0.0,0.0,0.0,0.0,0.0,0.0,0.0,0.0,0.0,0.0,0.0,0.0,0.0,0.0,0.0,0.0,0.0,0.0,0.0,0.0,0.0,0.0,0.0,0.0,0.0,0.0,0.0,0.0,0.0,0.0,0.0,0.0,0.0,0.0,0.0,0.0,0.0,0.0,0.0,0.0,0.0,0.0,0.0,0.0,0.0,0.0,0.0,0.0,0.0,0.0,0.0,0.0,0.0,0.0,0.0,0.0,0.0,0.0,0.0,0.0,0.0,0.0,0.0,0.0,0.0,0.0,0.0,0.0,0.0,0.0,0.0,0.0,0.0,0.0,0.0,0.0,0.0,0.0,0.0,0.0,0.0,0.0,0.0,0.0,0.0,0.0,0.0,0.0,0.0,0.0,0.0,0.0,0.0,0.0,0.0,0.0,0.0,0.0,0.0,0.0,0.0,0.0,0.0,0.0,0.0,0.0,0.0,0.0,0.0,0.0,0.0,0.0,0.0,0.0,0.0,0.0,0.0,0.0,0.0,0.0,0.0,0.0,0.0,0.0,0.0,0.0,0.0,0.0,0.0,0.0,0.0,0.0,0.0,0.0,0.0,0.0,0.0,0.0,0.0,0.0,0.0,0.0,0.0,0.0,0.0,0.0,0.0,0.0,0.0,0.0,0.0,0.0,0.0,0.0,0.0,0.0,0.0,0.0,0.0,0.0,0.0,0.0,0.0,0.0,0.0,0.0,0.0,0.0,0.0,0.0,0.0,0.0,0.0,0.0,0.0,0.0,0.0,0.0,0.0,0.0,0.0,0.0,0.0,0.0,0.0,0.0,0.0,0.0,0.0,0.0,0.0,0.0,0.0,0.0,0.0,0.0,0.0,0.0,0.0,0.0,0.0,0.0,0.0,0.0,0.0,0.0,0.0,0.0,0.0,0.0,0.0,0.0,0.0,0.0,0.0,0.0,0.0,0.0,0.0,0.0,0.0,0.0,0.0,0.0,0.0,0.0,0.0,0.0,0.0,0.0,0.0,0.0,0.0,0.0,0.0,0.0,0.0,0.0,0.0,0.0,0.0,0.0,0.0,0.0,0.0,0.0,0.0,0.0,0.0,0.0,0.0,0.0,0.0,0.0,0.0,0.0,0.0,0.0,0.0,0.0,0.0,0.0,0.0,0.0,0.0,0.0,0.0,0.0,0.0,0.0,0.0,0.0,0.0,0.0,0.0,0.0,0.0,0.0,0.0,0.0,0.0,0.0,0.0,0.0,0.0,0.0,0.0,0.0,0.0,0.0,0.0,0.0,0.0,0.0,0.0,0.0,0.0,0.0,0.0,0.0,0.0,0.0,0.0,0.0,0.0,0.0,0.0,0.0,0.0,0.0,0.0,0.0,0.0,0.0,0.0,0.0,0.0,0.0,0.0,0.0,0.0,0.0,0.0,0.0,0.0,0.0,0.0,0.0,0.0,0.0,0.0,0.0,0.0,0.0,0.0,0.0,0.0,0.0,0.0,0.0,0.0,0.0,0.0,0.0,0.0,0.0,0.0,0.0,0.0,0.0,0.0,0.0,0.0,0.0,0.0,0.0,0.0,0.0,0.0,0.0,0.0,0.0,0.0,0.0,0.0,0.0,0.0,0.0,0.0,0.0,0.0,0.0,0.0,0.0,0.0,0.0,0.0,0.0,0.0,0.0,0.0,0.0,0.0,0.0,0.0,0.0,0.0,0.0,0.0,0.0,0.0,0.0,0.0,0.0,0.0,0.0,0.0,0.0,0.0,0.0,0.0,0.0,0.0,0.0,0.0,0.0,0.0,0.0,0.0,0.0,0.0,0.0,0.0,0.0,0.0,0.0,0.0,0.0,0.0,0.0,0.0,0.0,0.0,0.0,0.0,0.0,0.0,0.0,0.0,0.0,0.0,0.0,0.0,0.0,0.0,0.0,0.0,0.0,0.0,0.0,0.0,0.0,0.0,0.0,0.0,0.0,0.0,0.0,0.0,0.0,0.0,0.0,0.0,0.0,0.0,0.0,0.0,0.0,0.0,0.0,0.0,0.0,0.0,0.0,0.0,0.0,0.0,0.0,0.0,0.0,0.0,0.0,0.0,0.0,0.0,0.0,0.0,0.0,0.0,0.0,0.0,0.0,0.0,0.0,0.0,0.0,0.0,0.0,0.0,0.0,0.0,0.0,0.0,0.0,0.0,0.0,0.0,0.0,0.0,0.0,0.0,0.0,0.0,0.0,0.0,0.0,0.0,0.0,0.0,0.0,0.0,0.0,0.0,0.0,0.0,0.0,0.0,0.0,0.0,0.0,0.0,0.0,0.0,0.0,0.0,0.0,0.0,0.0,0.0,0.0,0.0,0.0,0.0,0.0,0.0,0.0,0.0,0.0,0.0,0.0,0.0,0.0,0.0,0.0,0.0,0.0,0.0,0.0,0.0,0.0,0.0,0.0,0.0,0.0,0.0,0.0,0.0,0.0,0.0,0.0,0.0,0.0,0.0,0.0,0.0,0.0,0.0,0.0,0.0,0.0,0.0,0.0,0.0,0.0,0.0,0.0,0.0,0.0,0.0,0.0,0.0,0.0,0.0,0.0,0.0,0.0,0.0,0.0,0.0,0.0,0.0,0.0,0.0,0.0,0.0,0.0,0.0,0.0,0.0,0.0,0.0,0.0,0.0,0.0,0.0,0.0,0.0,0.0,0.0,0.0,0.0,0.0,0.0,0.0,0.0,0.0,0.0,0.0,0.0,0.0,0.0,0.0,0.0,0.0,0.0,0.0,0.0,0.0,0.0,0.0,0.0,0.0,0.0,0.0,0.0,0.0,0.0,0.0,0.0,0.0,0.0,0.0,0.0,0.0,0.0,0.0,0.0,0.0,0.0,0.0,0.0,0.0,0.0,0.0,0.0,0.0,0.0,0.0,0.0,0.0,0.0,0.0,0.0,0.0,0.0,0.0,0.0,0.0,0.0,0.0,0.0,0.0,0.0,0.0,0.0,0.0,0.0,0.0,0.0,0.0,0.0,0.0,0.0,0.0,0.0,0.0,0.0,0.0,0.0,0.0,0.0,0.0,0.0,0.0,0.0,0.0,0.0,0.0,0.0,0.0,0.0,0.0,0.0,0.0,0.0,0.0,0.0,0.0,0.0,0.0,0.0,0.0,0.0,0.0,0.0,0.0,0.0,0.0,0.0,0.0,0.0,0.0,0.0,0.0,0.0,0.0,0.0,0.0,0.0,0.0,0.0,0.0,0.0,0.0,0.0,0.0,0.0,0.0,0.0,0.0,0.0,0.0,0.0,0.0,0.0,0.0,0.0,0.0,0.0,0.0,0.0,0.0,0.0,0.0,0.0,0.0,0.0,0.0,0.0,0.0,0.0,0.0,0.0,0.0,0.0,0.0,0.0,0.0,0.0,0.0,0.0,0.0,0.0,0.0,0.0,0.0,0.0,0.0,0.0,0.0,0.0,0.0,0.0,0.0,0.0,0.0,0.0,0.0,0.0,0.0,0.0,0.0,0.0,0.0,0.0,0.0,0.0,0.0,0.0,0.0,0.0,0.0,0.0,0.0,0.0,0.0,0.0,0.0,0.0,0.0,0.0,0.0,0.0,0.0,0.0,0.0,0.0,0.0,0.0,0.0,0.0,0.0,0.0,0.0,0.0,0.0,0.0,0.0,0.0,0.0,0.0,0.0,0.0,0.0,0.0,0.0,0.0,0.0,0.0,0.0,0.0,0.0,0.0,0.0,0.0,0.0,0.0,0.0,0.0,0.0,0.0,0.0,0.0,0.0,0.0,0.0,0.0,0.0,0.0,0.0,0.0,0.0,0.0,0.0,0.0,0.0,0.0,0.0,0.0,0.0,0.0,0.0,0.0,0.0,0.0,0.0,0.0,0.0,0.0,0.0,0.0,0.0,0.0,0.0,0.0,0.0,0.0,0.0,0.0,0.0,0.0,0.0,0.0,0.0,0.0,0.0,0.0,0.0,0.0,0.0,0.0,0.0,0.0,0.0,0.0,0.0,0.0,0.0,0.0,0.0,0.0,0.0,0.7758,0.0,0.0,0.0,0.0,0.0,0.0,0.0,0.0,0.0,0.0,0.0,0.0,0.0,0.0,0.0,0.0,0.0,0.0,0.0,0.0,0.0,0.0,0.0,0.0,0.0,0.0,0.0,0.0,0.0,0.0,0.0,0.0,0.0,0.0,0.0,0.0,0.0,0.0,0.0,0.0,0.0,0.0,0.0,0.0,0.0,0.0,0.0,0.0,0.0,0.0,0.0,0.0,0.0,0.0,0.0,0.0,0.0,0.0,0.0,0.0,0.0,0.0,0.0,0.0,0.0,0.0,0.0,0.0,0.0,0.0,0.0,0.0,0.0,0.0,0.0,0.0,0.0,0.0,0.0,0.0,0.0,0.0,0.0,0.0,0.0,0.0,0.0,0.0,0.0,0.0,0.0,0.0,0.0,0.0,0.0,0.0,0.0,0.0,0.0,0.0,0.0,0.0,0.0,0.0,0.0,0.0,0.0,0.0,0.0,0.0,0.8921,0.8814,0.8376,0.787,0.7228,0.0,0.0,0.0,0.0,0.0,0.0,0.0,0.0,0.0,0.0,0.0,0.0,0.0,0.0,0.0,0.0,0.0,0.0,0.0,0.0,0.0,0.0,0.0,0.0,0.0,0.0,0.0,0.0,0.0,0.0,0.0,0.0,0.0,0.0,0.0,0.0,0.0,0.0,0.0,0.0,0.0,0.0,0.0,0.0,0.0,0.0,0.0,0.0,0.0,0.0,0.0,0.0,0.0,0.0,0.0,0.0,0.0,0.0,0.0,0.0,0.0,0.0,0.0,0.0,0.0,0.0,0.0,0.0,0.0,0.0,0.0,0.0,0.0,0.0,0.0,0.0,0.0,0.0,0.0,0.0,0.0,0.0,0.0,0.0,0.0,0.0,0.0,0.0,0.0,0.0,0.0,0.0,0.0,0.0,0.0,0.0,0.0,0.0,0.0,0.0,0.0,0.0,0.0,0.0,0.0,0.0,0.0,0.0,0.0,0.0,0.0,0.0,0.7855,0.7321,0.651,0.0,0.0,0.0,0.0,0.0,0.0,0.0,0.0,0.0,0.0,0.0,0.0,0.0,0.0,0.0,0.0,0.0,0.0,0.0,0.0,0.0,0.0,0.0,0.0,0.0,0.0,0.0,0.0,0.0,0.0,0.0,0.0,0.0,0.0,0.0,0.0,0.0,0.0,0.0,0.0,0.0,0.0,0.0,0.0,0.0,0.0,0.0,0.0,0.0,0.0,0.0,0.0,0.0,0.0,0.0,0.0,0.0,0.0,0.0,0.0,0.0,0.0,0.0,0.0,0.0,0.0,0.0,0.0,0.0,0.0,0.0,0.0,0.0,0.0,0.0,0.0,0.0,0.0,0.0,0.0,0.0,0.0,0.0,0.0,0.0,0.0,0.0,0.0,0.0,0.0,0.0,0.0,0.0,0.0,0.0,0.0,0.0,0.0,0.0,0.0,0.0,0.0,0.0,0.0,0.0,0.0,0.0,0.0,0.0,0.0,0.7767,0.7779,0.7426,0.0,0.5625,0.0,0.0,0.0,0.0,0.0,0.0,0.0,0.0,0.0,0.0,0.0,0.0,0.0,0.0,0.0,0.0,0.0,0.0,0.0,0.0,0.0,0.0,0.0,0.0,0.0,0.0,0.0,0.0,0.0,0.0,0.0,0.0,0.0,0.0,0.0,0.0,0.0,0.0,0.0,0.0,0.0,0.0,0.0,0.0,0.0,0.0,0.0,0.0,0.0,0.0,0.0,0.0,0.0,0.0,0.0,0.0,0.0,0.0,0.0,0.0,0.0,0.0,0.0,0.0,0.0,0.0,0.0,0.0,0.0,0.0,0.0,0.0,0.0,0.0,0.0,0.0,0.0,0.0,0.0,0.0,0.0,0.0,0.0,0.0,0.0,0.0,0.0,0.0,0.0,0.0,0.0,0.0,0.0,0.0,0.0,0.0,0.0,0.0,0.0,0.0,0.0,0.0,0.0,0.0,0.0,0.0,0.0,0.0,0.0,0.0,0.7404,0.734,0.6803,0.6164,0.0,0.0,0.0,0.0,0.0,0.0,0.0,0.0,0.0,0.0,0.0,0.0,0.0,0.0,0.0,0.0,0.0,0.0,0.0,0.0,0.0,0.0,0.0,0.0,0.0,0.0,0.0,0.0,0.0,0.0,0.0,0.0,0.0,0.0,0.0,0.0,0.0,0.0,0.0,0.0,0.0,0.0,0.0,0.0,0.0,0.0,0.0,0.0,0.0,0.0,0.0,0.0,0.0,0.0,0.0,0.0,0.0,0.0,0.0,0.0,0.0,0.0,0.0,0.0,0.0,0.0,0.0,0.0,0.0,0.0,0.0,0.0,0.0,0.0,0.0,0.0,0.0,0.0,0.0,0.0,0.0,0.0,0.0,0.0,0.0,0.0,0.0,0.0,0.0,0.0,0.0,0.0,0.0,0.0,0.0,0.0,0.0,0.0,0.0,0.0,0.0,0.0,0.0,0.0,0.0,0.0,0.0,0.0,0.0,0.0,0.709,0.7036,0.682,0.6304,0.5793,0.5319,0.0,0.0,0.0,0.0,0.0,0.0,0.0,0.0,0.0,0.0,0.0,0.0,0.0,0.0,0.0,0.0,0.0,0.0,0.0,0.0,0.0,0.0,0.0,0.0,0.0,0.0,0.0,0.0,0.0,0.0,0.0,0.0,0.0,0.0,0.0,0.0,0.0,0.0,0.0,0.0,0.0,0.0,0.0,0.0,0.0,0.0,0.0,0.0,0.0,0.0,0.0,0.0,0.0,0.0,0.0,0.0,0.0,0.0,0.0,0.0,0.0,0.0,0.0,0.0,0.0,0.0,0.0,0.0,0.0,0.0,0.0,0.0,0.0,0.0,0.0,0.0,0.0,0.0,0.0,0.0,0.0,0.0,0.0,0.0,0.0,0.0,0.0,0.0,0.0,0.0,0.0,0.0,0.0,0.0,0.0,0.0,0.0,0.0,0.0,0.0,0.0,0.0,0.0,0.0,0.0,0.0,0.0,0.0,0.6707,0.6701,0.6593,0.6263,0.6075,0.5678,0.0,0.0,0.0,0.0,0.0,0.0,0.0,0.0,0.0,0.0,0.0,0.0,0.0,0.0,0.0,0.0,0.0,0.0,0.0,0.0,0.0,0.0,0.0,0.0,0.0,0.0,0.0,0.0,0.0,0.0,0.0,0.0,0.0,0.0,0.0,0.0,0.0,0.0,0.0,0.0,0.0,0.0,0.0,0.0,0.0,0.0,0.0,0.0,0.0,0.0,0.0,0.0,0.0,0.0,0.0,0.0,0.0,0.0,0.0,0.0,0.0,0.0,0.0,0.0,0.0,0.0,0.0,0.0,0.0,0.0,0.0,0.0,0.0,0.0,0.0,0.0,0.0,0.0,0.0,0.0,0.0,0.0,0.0,0.0,0.0,0.0,0.0,0.0,0.0,0.0,0.0,0.0,0.0,0.0,0.0,0.0,0.0,0.0,0.0,0.0,0.0,0.0,0.0,0.0,0.0,0.0,0.0,0.0,0.0,0.6119,0.6223,0.6164,0.595,0.5678,0.5377,0.0,0.0,0.0,0.0,0.0,0.0,0.0,0.0,0.0,0.0,0.0,0.0,0.0,0.0,0.0,0.0,0.0,0.0,0.0,0.0,0.0,0.0,0.0,0.0,0.0,0.0,0.0,0.0,0.0,0.0,0.0,0.0,0.0,0.0,0.0,0.0,0.0,0.0,0.0,0.0,0.0,0.0,0.0,0.0,0.0,0.0,0.0,0.0,0.0,0.0,0.0,0.0,0.0,0.0,0.0,0.0,0.0,0.0,0.0,0.0,0.0,0.0,0.0,0.0,0.0,0.0,0.0,0.0,0.0,0.0,0.0,0.0,0.0,0.0,0.0,0.0,0.0,0.0,0.0,0.0,0.0,0.0,0.0,0.0,0.0,0.0,0.0,0.0,0.0,0.0,0.0,0.0,0.0,0.0,0.0,0.0,0.0,0.0,0.0,0.0,0.0,0.0,0.0,0.0,0.0,0.0,0.0,0.0,0.0,0.55,0.0,0.5686,0.5645,0.5367,0.5117,0.0,0.0,0.0,0.0,0.0,0.0,0.0,0.0,0.0,0.0,0.0,0.0,0.0,0.0,0.0,0.0,0.0,0.0,0.0,0.0,0.0,0.0,0.0,0.0,0.0,0.0,0.0,0.0,0.0,0.0,0.0,0.0,0.0,0.0,0.0,0.0,0.0,0.0,0.0,0.0,0.0,0.0,0.0,0.0,0.0,0.0,0.0,0.0,0.0,0.0,0.0,0.0,0.0,0.0,0.0,0.0,0.0,0.0,0.0,0.0,0.0,0.0,0.0,0.0,0.0,0.0,0.0,0.0,0.0,0.0,0.0,0.0,0.0,0.0,0.0,0.0,0.0,0.0,0.0,0.0,0.0,0.0,0.0,0.0,0.0,0.0,0.0,0.0,0.0,0.0,0.0,0.0,0.0,0.0,0.0,0.0,0.0,0.0,0.0,0.0,0.0,0.0,0.0,0.0,0.0,0.0,0.0,0.0,0.5183,0.4923,0.5022,0.5174,0.5293,0.5144,0.5006,0.0,0.0,0.0,0.0,0.0,0.0,0.0,0.0,0.0,0.0,0.0,0.0,0.0,0.0,0.0,0.0,0.0,0.0,0.0,0.0,0.0,0.0,0.0,0.0,0.0,0.0,0.0,0.0,0.0,0.0,0.0,0.0,0.0,0.0,0.0,0.0,0.0,0.0,0.0,0.0,0.0,0.0,0.0,0.0,0.0,0.0,0.0,0.0,0.0,0.0,0.0,0.0,0.0,0.0,0.0,0.0,0.0,0.0,0.0,0.0,0.0,0.0,0.0,0.0,0.0,0.0,0.0,0.0,0.0,0.0,0.0,0.0,0.0,0.0,0.0,0.0,0.0,0.0,0.0,0.0,0.0,0.0,0.0,0.0,0.0,0.0,0.0,0.0,0.0,0.0,0.0,0.0,0.0,0.0,0.0,0.0,0.0,0.0,0.0,0.0,0.0,0.0,0.0,0.0,0.0,0.0,0.0,0.0,0.0,0.4709,0.4664,0.475,0.4867,0.4767,0.4683,0.0,0.0,0.0,0.0,0.0,0.0,0.0,0.0,0.0,0.0,0.0,0.0,0.0,0.0,0.0,0.0,0.0,0.0,0.0,0.0,0.0,0.0,0.0,0.0,0.0,0.0,0.0,0.0,0.0,0.0,0.0,0.0,0.0,0.0,0.0,0.0,0.0,0.0,0.0,0.0,0.0,0.0,0.0,0.0,0.0,0.0,0.0,0.0,0.0,0.0,0.0,0.0,0.0,0.0,0.0,0.0,0.0,0.0,0.0,0.0,0.0,0.0,0.0,0.0,0.0,0.0,0.0,0.0,0.0,0.0,0.0,0.0,0.0,0.0,0.0,0.0,0.0,0.0,0.0,0.0,0.0,0.0,0.0,0.0,0.0,0.0,0.0,0.0,0.0,0.0,0.0,0.0,0.0,0.0,0.0,0.0,0.0,0.0,0.0,0.0,0.0,0.0,0.0,0.0,0.0,0.0,0.0,0.0,0.0,0.4463,0.4376,0.439,0.4565,0.4466,0.4411,0.4508,0.0,0.0,0.0,0.0,0.0,0.0,0.0,0.0,0.0,0.0,0.0,0.0,0.0,0.0,0.0,0.0,0.0,0.0,0.0,0.0,0.0,0.0,0.0,0.0,0.0,0.0,0.0,0.0,0.0,0.0,0.0,0.0,0.0,0.0,0.0,0.0,0.0,0.0,0.0,0.0,0.0,0.0,0.0,0.0,0.0,0.0,0.0,0.0,0.0,0.0,0.0,0.0,0.0,0.0,0.0,0.0,0.0,0.0,0.0,0.0,0.0,0.0,0.0,0.0,0.0,0.0,0.0,0.0,0.0,0.0,0.0,0.0,0.0,0.0,0.0,0.0,0.0,0.0,0.0,0.0,0.0,0.0,0.0,0.0,0.0,0.0,0.0,0.0,0.0,0.0,0.0,0.0,0.0,0.0,0.0,0.0,0.0,0.0,0.0,0.0,0.0,0.0,0.0,0.0,0.0,0.0,0.0,0.0,0.432,0.4068,0.4096,0.4405,0.4285,0.4278,0.0,0.0,0.0,0.0,0.0,0.0,0.0,0.0,0.0,0.0,0.0,0.0,0.0,0.0,0.0,0.0,0.0,0.0,0.0,0.0,0.0,0.0,0.0,0.0,0.0,0.0,0.0,0.0,0.0,0.0,0.0,0.0,0.0,0.0,0.0,0.0,0.0,0.0,0.0,0.0,0.0,0.0,0.0,0.0,0.0,0.0,0.0,0.0,0.0,0.0,0.0,0.0,0.0,0.0,0.0,0.0,0.0,0.0,0.0,0.0,0.0,0.0,0.0,0.0,0.0,0.0,0.0,0.0,0.0,0.0,0.0,0.0,0.0,0.0,0.0,0.0,0.0,0.0,0.0,0.0,0.0,0.0,0.0,0.0,0.0,0.0,0.0,0.0,0.0,0.0,0.0,0.0,0.0,0.0,0.0,0.0,0.0,0.0,0.0,0.0,0.0,0.0,0.0,0.0,0.0,0.0,0.0,0.0,0.0,0.4539,0.4406,0.4302,0.4264,0.4233,0.4277,0.0,0.0,0.0,0.0,0.0,0.0,0.0,0.0,0.0,0.0,0.0,0.0,0.0,0.0,0.0,0.0,0.0,0.0,0.0,0.0,0.0,0.0,0.0,0.0,0.0,0.0,0.0,0.0,0.0,0.0,0.0,0.0,0.0,0.0,0.0,0.0,0.0,0.0,0.0,0.0,0.0,0.0,0.0,0.0,0.0,0.0,0.0,0.0,0.0,0.0,0.0,0.0,0.0,0.0,0.0,0.0,0.0,0.0,0.0,0.0,0.0,0.0,0.0,0.0,0.0,0.0,0.0,0.0,0.0,0.0,0.0,0.0,0.0,0.0,0.0,0.0,0.0,0.0,0.0,0.0,0.0,0.0,0.0,0.0,0.0,0.0,0.0,0.0,0.0,0.0,0.0,0.0,0.0,0.0,0.0,0.0,0.0,0.0,0.0,0.0,0.0,0.0,0.0,0.0,0.0,0.0,0.0,0.0,0.5409,0.4975,0.4974,0.4833,0.4515,0.4426,0.4421,0.0,0.0,0.0,0.0,0.0,0.0,0.0,0.0,0.0,0.0,0.0,0.0,0.0,0.0,0.0,0.0,0.0,0.0,0.0,0.0,0.0,0.0,0.0,0.0,0.0,0.0,0.0,0.0,0.0,0.0,0.0,0.0,0.0,0.0,0.0,0.0,0.0,0.0,0.0,0.0,0.0,0.0,0.0,0.0,0.0,0.0,0.0,0.0,0.0,0.0,0.0,0.0,0.0,0.0,0.0,0.0,0.0,0.0,0.0,0.0,0.0,0.0,0.0,0.0,0.0,0.0,0.0,0.0,0.0,0.0,0.0,0.0,0.0,0.0,0.0,0.0,0.0,0.0,0.0,0.0,0.0,0.0,0.0,0.0,0.0,0.0,0.0,0.0,0.0,0.0,0.0,0.0,0.0,0.0,0.0,0.0,0.0,0.0,0.0,0.0,0.0,0.0,0.0,0.0,0.0,0.0,0.0,0.0,0.6097,0.5593,0.5596,0.5406,0.4939,0.4841,0.4702,0.0,0.0,0.0,0.0,0.0,0.0,0.0,0.0,0.0,0.0,0.0,0.0,0.0,0.0,0.0,0.0,0.0,0.0,0.0,0.0,0.0,0.0,0.0,0.0,0.0,0.0,0.0,0.0,0.0,0.0,0.0,0.0,0.0,0.0,0.0,0.0,0.0,0.0,0.0,0.0,0.0,0.0,0.0,0.0,0.0,0.0,0.0,0.0,0.0,0.0,0.0,0.0,0.0,0.0,0.0,0.0,0.0,0.0,0.0,0.0,0.0,0.0,0.0,0.0,0.0,0.0,0.0,0.0,0.0,0.0,0.0,0.0,0.0,0.0,0.0,0.0,0.0,0.0,0.0,0.0,0.0,0.0,0.0,0.0,0.0,0.0,0.0,0.0,0.0,0.0,0.0,0.0,0.0,0.0,0.0,0.0,0.0,0.0,0.0,0.0,0.0,0.0,0.0,0.0,0.0,0.0,0.0,0.0,0.6477,0.6062,0.5865,0.5542,0.5161,0.5143,0.5082,0.0,0.0,0.0,0.0,0.0,0.0,0.0,0.0,0.0,0.0,0.0,0.0,0.0,0.0,0.0,0.0,0.0,0.0,0.0,0.0,0.0,0.0,0.0,0.0,0.0,0.0,0.0,0.0,0.0,0.0,0.0,0.0,0.0,0.0,0.0,0.0,0.0,0.0,0.0,0.0,0.0,0.0,0.0,0.0,0.0,0.0,0.0,0.0,1.3775,0.0,0.0,0.0,0.0,0.0,0.0,0.0,0.0,0.0,0.0,0.0,0.0,0.0,0.0,0.0,0.0,0.0,0.0,0.0,0.0,0.0,0.0,0.0,0.0,0.0,0.0,0.0,0.0,0.0,0.0,0.0,0.0,0.0,0.0,0.0,0.0,0.0,0.0,0.0,0.0,0.0,0.0,0.0,0.0,0.0,0.0,0.0,0.0,0.0,0.0,0.0,0.0,0.0,0.0,0.0,0.0,0.0,0.0,0.0,0.678,0.6492,0.6249,0.6001,0.5754,0.5793,0.5649,0.0,0.0,0.0,0.0,0.0,0.0,0.0,0.0,0.0,0.0,0.0,0.0,0.0,0.0,0.0,0.0,0.0,0.0,0.0,0.0,0.0,0.0,0.0,0.0,0.0,0.0,0.0,0.0,0.0,0.0,0.0,0.0,0.0,0.0,0.0,0.0,0.0,0.0,0.0,0.0,0.0,0.0,0.0,0.0,0.0,0.0,0.0,0.0,0.0,0.0,0.0,0.0,0.0,0.0,0.0,0.0,0.0,0.0,0.0,0.0,0.0,0.0,0.0,0.0,0.0,0.0,0.0,0.0,0.0,0.0,0.0,0.0,0.0,0.0,0.0,0.0,0.0,0.0,0.0,0.0,0.0,0.0,0.0,0.0,0.0,0.0,0.0,0.0,0.0,0.0,0.0,0.0,0.0,0.0,0.0,0.0,0.0,0.0,0.0,0.0,0.0,0.0,0.0,0.0,0.0,0.0,0.0,0.7589,0.7033,0.6863,0.6639,0.6435,0.6348,0.6422,0.6277,0.5756,0.0,0.0,0.0,0.0,0.0,0.0,0.0,0.0,0.0,0.0,0.0,0.0,0.0,0.0,0.0,0.0,0.0,0.0,0.0,0.0,0.0,0.0,0.0,0.0,0.0,0.0,0.0,0.0,0.0,0.0,0.0,0.0,0.0,0.0,0.0,0.0,0.0,0.0,0.77,0.9067,0.0,0.0,0.0,0.0,0.0,0.0,0.0,0.0,1.3478,0.0,0.0,0.0,0.0,0.0,0.0,0.0,0.0,0.0,0.0,0.0,0.0,0.0,0.0,0.0,0.0,0.0,0.0,0.0,0.0,0.0,0.0,0.0,0.0,0.0,0.0,0.0,0.0,0.0,0.0,0.0,0.0,0.0,0.0,0.0,0.0,0.0,0.0,0.0,0.0,0.0,0.0,0.0,0.0,0.0,0.0,0.0,0.0,0.0,0.0,0.0,0.0,0.0,0.0,0.0,0.0,0.8753,0.814,0.7583,0.7061,0.6744,0.6542,0.6478,0.6507,0.6558,0.669,0.0,0.0,0.0,0.0,0.0,0.0,0.0,0.0,0.0,0.0,0.0,0.0,0.0,0.0,0.0,0.0,0.0,0.0,0.0,0.0,0.0,0.0,0.0,0.0,0.0,0.0,0.0,0.0,0.0,0.0,0.0,0.0,0.0,0.0,0.0,0.0,0.0,0.0,0.0,0.9861,1.0791,0.0,0.0,0.0,0.0,0.0,0.0,0.0,0.0,1.3523,0.0,0.0,0.0,0.0,0.0,0.0,0.0,0.0,0.0,0.0,0.0,0.0,0.0,0.0,0.0,0.0,0.0,0.0,0.0,0.0,0.0,0.0,0.0,0.0,0.0,0.0,0.0,0.0,0.0,0.0,0.0,0.0,0.0,0.0,0.0,0.0,0.0,0.0,0.0,0.0,0.0,0.0,0.0,0.0,0.0,0.0,0.0,0.0,0.0,0.0,0.0,0.0,0.0,0.0,0.0,0.9117,0.8313,0.7774,0.7399,0.7091,0.6871,0.6831,0.6918,0.699,0.0,0.0,0.0,0.0,0.0,0.0,0.0,0.0,0.0,0.0,0.0,0.0,0.0,0.0,0.0,0.0,0.0,0.0,0.0,0.0,0.0,0.0,0.0,0.0,0.0,0.0,0.0,0.0,0.0,0.0,0.0,0.0,0.0,0.0,0.0,0.0,0.0,0.0,0.0,0.0,1.026,1.0905,1.1597,0.0,0.0,0.0,0.0,0.0,0.0,1.2801,1.2736,0.0,0.0,0.0,0.0,0.0,0.0,0.0,0.0,0.0,0.0,0.0,0.0,0.0,0.0,0.0,0.0,0.0,0.0,0.0,0.0,0.0,0.0,0.0,0.0,0.0,0.0,0.0,0.0,0.0,0.0,0.0,0.0,0.0,0.0,0.0,0.0,0.0,0.0,0.0,0.0,0.0,0.0,0.0,0.0,0.0,0.0,0.0,0.0,0.0,0.0,0.0,0.0,0.0,0.0,0.0,0.9545,0.8492,0.7891,0.7778,0.736,0.7156,0.7225,0.7436,0.7494,0.0,0.0,0.0,0.0,0.0,0.0,0.0,0.0,0.0,0.0,0.0,0.0,0.0,0.0,0.0,0.0,0.0,0.0,0.0,0.0,0.0,0.0,0.0,0.0,0.0,0.0,0.0,0.0,0.0,0.0,0.0,0.0,0.0,0.0,0.0,0.0,0.0,0.0,0.0,0.0,0.0,1.0993,1.156,1.1793,0.0,0.0,0.0,0.0,1.2328,1.21,0.0,0.0,0.0,0.0,0.0,0.0,0.0,0.0,0.0,0.0,0.0,0.0,0.0,0.0,0.0,0.0,0.0,0.0,0.0,0.0,0.0,0.0,0.0,0.0,0.0,0.0,0.0,0.0,0.0,0.0,0.0,0.0,0.0,0.0,0.0,0.0,0.0,0.0,0.0,0.0,0.0,0.0,0.0,0.0,0.0,0.0,0.0,0.0,0.0,0.0,0.0,0.0,0.0,0.0,0.0,0.0,1.0261,0.8809,0.8096,0.8119,0.7365,0.7145,0.7617,0.7878,0.8082,0.0,0.0,0.0,0.0,0.0,0.0,0.0,0.0,0.0,0.0,0.0,0.0,0.0,0.0,0.0,0.0,0.0,0.0,0.0,0.0,0.0,0.0,0.0,0.0,0.0,0.0,0.0,0.0,0.0,0.0,0.0,0.0,0.0,0.0,0.0,0.0,0.0,0.0,0.0,0.0,0.0,1.1274,1.1338,1.1627,1.1806,0.0,0.0,1.1822,1.1721,1.1747,0.0,0.0,0.0,0.0,0.0,0.0,0.0,0.0,0.0,0.0,0.0,0.0,0.0,0.0,0.0,0.0,0.0,0.0,0.0,0.0,0.0,0.0,0.0,0.0,0.0,0.0,0.0,0.0,0.0,0.0,0.0,0.0,0.0,0.0,0.0,0.0,0.0,0.0,0.0,0.0,0.0,0.0,0.0,0.0,0.0,0.0,0.0,0.0,0.0,0.0,0.0,0.0,0.0,0.0,0.0,1.1953,1.0364,0.9105,0.8544,0.8623,0.7834,0.7602,0.7979,0.8483,0.8718,0.0,0.0,0.0,0.0,0.0,0.0,0.0,0.0,0.0,0.0,0.0,0.0,0.0,0.0,0.0,0.0,0.0,0.0,0.0,0.0,0.0,0.0,0.0,0.0,0.0,0.0,0.0,0.0,0.0,0.0,0.0,0.0,0.0,0.0,0.0,0.0,0.0,0.0,0.0,0.0,0.0,0.0,1.1217,1.128,0.0,0.0,0.0,1.1188,1.124,0.0,0.0,0.0,0.0,0.0,0.0,0.0,0.0,0.0,0.0,0.0,0.0,0.0,0.0,0.0,0.0,0.0,0.0,0.0,0.0,0.0,0.0,0.0,0.0,0.0,0.0,0.0,0.0,0.0,0.0,0.0,0.0,0.0,0.0,0.0,0.0,0.0,0.0,0.0,0.0,0.0,0.0,0.0,0.0,0.0,0.0,0.0,0.0,0.0,0.0,0.0,0.0,0.0,0.0,0.0,0.0,0.0,1.1011,0.971,0.9096,0.9165,0.8424,0.8099,0.8361,0.9088,0.0,0.0,0.0,0.0,0.0,0.0,0.0,0.0,0.0,0.0,0.0,0.0,0.0,0.0,0.0,0.0,0.0,0.0,0.0,0.0,0.0,0.0,0.0,0.0,0.0,0.0,0.0,0.8633,0.0,0.0,0.0,0.0,0.0,0.0,0.0,0.0,0.0,0.0,0.0,0.0,0.0,0.0,1.1357,1.1259,1.1135,1.1084,0.0,0.0,1.0624,1.0783,1.0727,1.0727,0.0,0.0,0.0,0.0,0.0,0.0,0.0,0.0,0.0,0.0,0.0,0.0,0.0,0.0,0.0,0.0,0.0,0.0,0.0,0.0,0.0,0.0,0.0,0.0,0.0,0.0,0.0,0.0,0.0,0.0,0.0,0.0,0.0,0.0,0.0,0.0,0.0,0.0,0.0,0.0,0.0,0.0,0.0,0.0,0.0,0.0,0.0,0.0,0.0,0.0,0.0,0.0,0.0,0.0,0.0,1.2887,1.0743,0.9674,0.9701,0.897,0.8632,0.886,0.9688,1.008,0.0,0.0,0.0,0.0,0.0,0.0,0.0,0.0,0.0,0.0,0.0,0.0,0.0,0.0,0.0,0.0,0.0,0.0,0.0,0.0,0.0,0.0,0.0,0.0,0.0,0.0,0.0,0.0,0.0,0.0,0.0,0.0,0.0,0.0,0.0,0.0,0.0,0.0,0.0,0.0,0.0,1.1633,1.1461,1.1174,1.093,0.0,0.0,1.0361,1.0376,1.0294,1.0467,1.0901,0.0,0.0,0.0,0.0,0.0,0.0,0.0,0.0,0.0,0.0,0.0,0.0,0.0,0.0,0.0,0.0,0.0,0.0,0.0,0.0,0.0,0.0,0.0,0.0,0.0,0.0,0.0,0.0,0.0,0.0,0.0,0.0,0.0,0.0,0.0,0.0,0.0,0.0,0.0,0.0,0.0,0.0,0.0,0.0,0.0,0.0,0.0,0.0,0.0,0.0,0.0,0.0,0.0,1.4128,1.318,1.1205,1.0247,1.0309,0.945,0.9267,0.9861,1.0377,1.0796,0.0,0.0,0.0,0.0,0.0,0.0,0.0,0.0,0.0,0.0,0.0,0.0,0.0,0.0,0.0,0.0,0.0,0.0,0.0,0.0,0.0,0.0,0.0,0.0,0.0,0.0,0.0,0.0,0.8804,0.9038,0.9619,0.0,0.0,0.0,0.0,0.0,0.0,0.0,0.0,0.0,0.0,1.159,1.1182,1.088,0.0,0.0,1.0071,0.9864,0.9859,1.0038,1.0348,1.1092,1.1976,0.0,0.0,0.0,0.0,0.0,0.0,0.0,0.0,0.0,0.0,0.0,0.0,0.0,0.0,0.0,0.0,0.0,0.0,0.0,0.0,0.0,0.0,0.0,0.0,0.0,0.0,0.0,0.0,0.0,0.0,0.0,0.0,0.0,0.0,0.0,0.0,0.0,0.0,0.0,0.0,0.0,0.0,0.0,0.0,0.0,0.0,0.0,0.0,0.0,0.0,0.0,0.0,1.4798,1.3797,1.1938,1.0958,1.0883,1.0097,0.9994,1.0653,1.1008,1.1441,0.0,0.0,0.0,0.0,0.0,0.0,0.0,0.0,0.0,0.0,0.0,0.0,0.0,0.0,0.0,0.0,0.0,0.0,0.0,0.0,0.0,0.0,0.0,0.0,0.0,0.0,0.0,0.0,0.8965,0.9232,0.9639,0.0,0.0,0.0,0.0,0.0,0.0,0.0,0.0,0.0,0.0,1.1563,1.0987,1.067,1.0409,0.9955,0.977,0.9689,0.9607,1.0008,1.0539,1.1321,0.0,0.0,0.0,0.0,0.0,0.0,0.0,0.0,0.0,0.0,0.0,0.0,0.0,0.0,0.0,0.0,0.0,0.0,0.0,0.0,0.0,0.0,0.0,0.0,0.0,0.0,0.0,0.0,0.0,0.0,0.0,0.0,0.0,0.0,0.0,0.0,0.0,0.0,0.0,0.0,0.0,0.0,0.0,0.0,0.0,0.0,0.0,0.0,0.0,0.0,0.0,0.0,0.0,1.5697,1.5128,1.3095,1.1812,1.1296,1.094,1.0865,1.1105,1.1548,1.2053,1.2596,0.0,0.0,0.0,0.0,0.0,0.0,0.0,0.0,0.0,0.0,0.0,0.0,0.0,0.0,0.0,0.0,0.0,0.0,0.0,0.0,0.0,0.0,0.0,0.0,0.0,0.0,0.8818,0.9319,0.9659,0.0,0.0,0.0,0.0,0.0,0.0,0.0,0.0,0.0,0.0,1.1721,1.1618,1.0986,1.0739,1.0457,1.0082,0.9946,0.9864,0.9611,1.0391,1.1163,0.0,0.0,0.0,0.0,0.0,0.0,0.0,0.0,0.0,0.0,0.0,0.0,0.0,0.0,0.0,0.0,0.0,0.0,0.0,0.0,0.0,0.0,0.0,0.0,0.0,0.0,0.0,1.2091,1.2122,0.0,0.0,0.0,0.0,0.0,0.0,0.0,0.0,0.0,0.0,0.0,1.5004,1.5926,0.0,0.0,0.0,0.0,0.0,0.0,0.0,0.0,0.0,0.0,0.0,0.0,1.6409,1.5798,1.3765,1.2425,1.1864,1.1759,1.1832,1.2032,1.2443,1.3114,1.4104,0.0,0.0,0.0,0.0,0.0,0.0,0.0,0.0,0.0,0.0,0.0,0.0,0.0,0.0,0.0,0.0,0.0,0.0,0.0,0.0,0.0,0.0,0.0,0.0,0.0,0.8991,0.0,0.0,0.0,0.0,0.0,0.0,0.0,0.0,0.0,0.0,0.0,1.1892,1.1694,1.1657,1.139,1.0922,1.0584,1.0219,0.0,0.0,0.0,0.0,0.0,0.0,0.0,0.0,0.0,0.0,0.0,0.0,0.0,0.0,1.5825,1.5825,1.5825,1.5825,1.5825,0.0,0.0,0.0,0.0,0.0,0.0,0.0,0.0,0.0,0.0,0.0,0.0,0.0,0.0,0.0,0.0,1.329,0.0,0.0,0.0,0.0,0.0,0.0,0.0,0.0,1.4646,1.4685,1.4759,1.5375,1.587,0.0,1.7427,1.8416,0.0,0.0,0.0,0.0,0.0,0.0,0.0,0.0,1.6801,1.5992,1.4173,1.2974,1.238,1.2441,1.2535,1.2678,1.3269,1.4068,1.5155,1.5985,1.6687,0.0,0.0,0.0,0.0,0.0,0.0,0.0,0.0,0.0,0.0,0.0,0.0,0.0,0.0,0.0,0.0,0.0,0.0,0.0,0.0,0.0,0.0,0.0,0.918,0.0,0.0,0.0,0.0,0.0,0.0,0.0,0.0,0.0,1.1984,1.2038,1.1968,1.1846,1.164,1.1362,1.0969,0.0,0.0,0.0,0.0,0.0,0.0,0.0,1.1042,1.1968,1.2847,1.372,1.4465,1.5064,1.5547,1.5737,0.0,0.0,1.5825,1.5825,1.5858,1.5965,1.5985,1.6012,1.6112,1.6132,1.6132,0.0,0.0,0.0,0.0,0.0,0.0,0.0,0.0,1.3785,1.3894,0.0,1.4026,0.0,0.0,0.0,0.0,0.0,0.0,0.0,0.0,1.459,1.4593,1.4573,1.4652,1.5144,1.6026,1.6221,1.6743,1.7613,1.9331,0.0,0.0,0.0,0.0,0.0,0.0,1.6896,1.5729,1.4389,1.3457,1.2899,1.3016,1.3082,1.3116,1.403,1.4874,1.5665,1.644,1.7155,1.7748,1.8427,0.0,0.0,0.0,0.0,0.0,0.0,0.0,0.0,0.0,0.0,0.0,0.0,0.0,0.0,0.0,0.0,0.0,0.0,0.0,0.0,0.9491,0.0,0.0,0.0,0.0,0.0,0.0,0.0,0.0,0.0,0.0,1.2258,1.215,1.2039,1.2107,0.0,0.0,0.0,0.0,1.0033,0.9432,0.9429,0.9461,0.9552,1.0338,1.1172,1.1936,0.0,0.0,1.4892,1.5356,1.554,1.573,1.5825,1.5832,1.5845,1.5858,1.5952,1.6219,1.6286,1.638,1.662,1.6647,1.666,0.7192,0.0,0.0,0.0,0.0,1.2477,1.275,1.3021,1.3286,1.3557,1.3792,1.3966,0.0,0.0,0.0,0.0,0.0,0.0,1.4259,1.413,1.4109,1.4083,1.4035,1.4143,1.4399,1.4766,1.547,1.5991,1.6432,1.7529,1.8221,1.8484,0.0,0.0,0.0,0.0,1.6538,1.6007,1.482,1.4216,1.4244,1.4214,1.4369,1.4645,1.4783,1.4975,1.5191,1.6441,1.7204,1.7387,1.8521,0.0,0.0,0.0,0.0,0.0,0.0,0.0,0.0,0.0,0.0,0.0,0.0,0.0,0.0,0.0,0.0,0.0,0.0,0.0,1.015,1.0091,1.0128,0.0,0.0,0.0,0.0,0.0,0.0,0.0,0.0,0.0,1.2265,1.2003,1.1889,0.0,0.0,1.1201,1.0945,1.0414,0.9864,0.9345,0.0,0.0,0.0,1.0341,1.1135,1.1661,1.2614,1.3732,1.4885,1.5172,1.5363,1.5737,1.5825,1.5892,1.6099,1.6146,1.6253,1.6506,1.658,1.6607,1.668,1.6707,1.6714,0.3974,0.7106,0.8756,0.9865,1.0573,1.0948,1.1335,1.1776,1.2205,1.2652,1.3055,1.334,1.4101,1.516,1.5292,0.0,0.0,0.0,1.3719,1.3558,1.3504,1.348,1.3501,1.3606,1.3771,1.3944,1.4611,1.5007,1.5153,1.6078,1.6458,1.6415,0.0,0.0,1.7204,1.6715,1.6227,1.5769,1.4966,1.473,1.506,1.5143,1.535,1.565,1.5448,1.53,1.5285,1.6728,1.7519,1.7533,1.8862,1.9508,0.0,0.0,0.0,0.0,0.0,0.0,0.0,0.0,0.0,0.0,0.0,1.513,0.0,0.0,0.0,0.0,1.2066,1.1477,1.1002,1.0947,0.0,0.0,0.0,0.0,0.0,0.0,0.0,1.1991,1.2044,1.2104,1.2285,1.1929,1.1859,1.2182,1.1659,1.1154,1.1069,0.0,0.9951,0.9349,0.9306,0.9334,0.9634,1.0256,1.096,1.196,1.2856,1.3823,1.4885,1.5083,1.5267,1.5642,1.5825,1.5919,1.6219,1.6359,1.654,1.682,1.6881,1.6914,1.7021,1.7054,1.7054,0.0957,0.2405,0.5434,0.7356,0.8463,0.8912,0.9467,1.0108,1.0721,1.1287,1.1862,1.2345,1.321,1.4321,1.4599,0.0,1.4539,1.3563,1.3059,1.2935,1.2864,1.2893,1.2942,1.3088,1.3244,1.3442,1.3706,1.3881,1.4015,1.4887,1.4979,1.4332,1.6161,1.6809,1.6216,1.6245,1.5896,1.5114,1.4997,1.5163,1.5673,1.5927,1.6136,1.6289,1.6006,1.5839,1.5812,1.7197,1.802,1.8065,1.933,2.0061,2.0115,0.0,0.0,0.0,0.0,0.0,0.0,0.0,0.0,0.0,0.0,0.0,0.0,0.0,0.0,0.0,1.3208,0.0,1.2182,1.1909,0.0,0.0,0.0,1.1838,1.184,1.206,1.2271,1.2345,0.0,0.0,1.2298,0.0,1.191,1.245,1.1748,1.1204,1.1321,1.0707,1.0038,0.9432,0.9393,0.9532,0.9842,1.0341,1.1179,1.2565,1.3249,1.3925,1.4892,1.5172,1.5267,1.5737,1.5825,1.5925,1.6213,1.6466,1.676,1.7027,1.7244,1.7261,1.7482,1.7535,1.7528,-0.0599,0.0033,0.1713,0.3565,0.5495,0.6421,0.727,0.8053,0.8884,0.9628,1.0346,1.1045,1.1831,1.2697,1.288,1.2969,1.2878,1.2626,1.2443,1.234,1.234,1.2376,1.2376,1.2575,1.2767,1.2965,1.3176,1.3377,1.3556,1.3868,1.3991,1.3874,1.4428,1.486,1.5067,1.5205,1.521,1.5115,1.5697,1.6419,1.7222,1.7453,1.7376,1.697,1.6664,1.6405,1.6262,1.7512,1.8285,1.8423,1.9648,2.0392,2.0392,2.0273,0.0,0.0,0.0,0.0,0.0,0.0,0.0,0.0,0.0,1.6901,1.6839,0.0,1.5843,0.0,1.4811,1.4063,1.3486,1.3312,0.0,0.0,1.2677,1.2578,1.2687,1.2684,1.2635,1.2565,1.2526,1.2452,1.2298,1.2077,1.2065,1.235,1.1708,1.1224,1.1271,1.0706,1.0207,0.9883,0.9643,0.967,1.0107,1.1115,1.217,1.2856,1.3624,1.4304,1.4987,1.5267,1.5547,1.5737,1.5825,1.5945,1.6213,1.6333,1.648,1.6767,1.7161,1.7495,1.7569,1.7582,1.7589,-0.1375,-0.1005,-0.0033,0.1356,0.3027,0.4354,0.5451,0.6364,0.7234,0.8091,0.8965,1.0079,1.0917,1.1519,1.1764,1.1879,1.19,1.194,1.1912,1.1854,1.1861,1.1903,1.1982,1.2154,1.2336,1.2533,1.2711,1.2893,1.3087,1.3244,1.3312,1.3395,1.3522,1.3789,1.4167,1.4536,1.4832,1.5027,1.6269,1.7316,1.8091,1.841,1.8284,1.7744,1.7386,1.724,1.7358,1.825,1.8924,1.9303,2.0289,2.0827,2.086,2.073,2.0663,0.0,0.0,0.0,0.0,0.0,0.0,0.0,0.0,0.0,0.0,0.0,1.7349,1.7016,1.6331,1.5675,1.5057,1.4646,1.4234,1.3723,1.3722,1.3631,1.3362,1.3389,1.3359,1.3025,1.29,1.282,1.2606,1.2298,1.2216,1.2313,1.1803,1.1484,1.1492,1.1011,1.0525,1.0279,1.013,1.0162,1.0634,1.1691,1.2699,1.3177,1.3837,1.449,1.5166,1.5356,1.554,1.573,1.5825,1.5872,1.6052,1.6192,1.6333,1.6506,1.6874,1.7215,1.7368,1.7495,1.7589,-0.1682,-0.1247,-0.0606,0.0168,0.1143,0.2649,0.3906,0.4935,0.5822,0.678,0.7846,0.9265,1.0131,1.0634,1.0898,1.1113,1.1287,1.1362,1.1407,1.14,1.1487,1.1599,1.1711,1.1948,1.2147,1.2326,1.2469,1.2632,1.282,1.2961,1.3073,1.3146,1.3249,1.3395,1.3546,1.4248,1.4825,1.5231,1.6888,1.8057,1.8697,1.9016,1.8977,1.8521,1.8116,1.8121,1.8609,1.9092,1.971,2.0372,2.0967,2.1325,2.1371,2.1214,2.1182,0.0,2.1103,0.0,0.0,0.0,0.0,0.0,0.0,0.0,0.0,1.9181,1.89,1.8244,1.7889,1.7368,1.6711,1.6089,1.5449,1.4703,1.4836,1.4711,1.4247,1.4327,1.4227,1.3775,1.3484,1.3266,1.3039,1.2673,1.2452,1.2419,1.2162,1.1948,1.1927,1.1432,1.0979,1.0747,1.073,1.0955,1.1314,1.2194,1.3017,1.3502,1.4057,1.462,1.5285,1.5514,1.5642,1.573,1.5825,1.5832,1.5825,1.6046,1.6199,1.6219,1.6466,1.676,1.7034,1.7255,1.7462,-0.1715,-0.1247,-0.0808,-0.0134,0.0671,0.1301,0.2383,0.3787,0.4777,0.6067,0.7598,0.8398,0.91,0.9676,1.0072,1.0347,1.0592,1.0763,1.0873,1.0958,1.1493,1.1741,1.1819,1.249,1.2822,1.2925,1.3163,1.3336,1.3434,1.3626,1.3729,1.3814,1.3996,1.3951,1.3724,0.0,0.0,0.0,1.8014,1.8964,1.9747,1.9769,1.956,1.9146,1.873,0.0,1.9208,1.9634,2.0211,2.0938,2.1528,0.0,0.0,0.0,0.0,0.0,0.0,0.0,0.0,0.0,0.0,0.0,2.1818,2.1789,2.0785,2.0865,2.0791,2.0187,1.9635,1.9036,1.8454,1.7752,1.7199,1.6905,1.6277,1.5845,1.5848,1.5486,1.4997,1.4657,1.4338,1.3985,1.3695,1.3258,1.3046,1.3053,1.2721,1.2532,1.257,1.1942,1.1483,1.1399,1.1581,1.1782,1.2109,1.2869,1.3403,1.3799,1.4358,1.4894,1.5106,1.549,1.5724,1.5818,1.5825,1.5825,1.5825,1.5879,1.5932,1.5912,1.6159,1.644,1.6727,1.6834,1.6867,-0.1749,0.0,-0.0943,-0.037,0.0,0.0805,0.1627,0.2737,0.3856,0.5405,0.7185,0.7992,0.8632,0.9102,0.9536,0.9788,0.9919,1.0392,1.0663,1.0778,1.1429,1.1716,1.1738,1.2205,1.2497,1.2636,1.2816,1.2992,1.3152,1.3336,1.3454,1.3543,1.378,1.389,1.3841,1.5263,1.6569,1.7735,1.8388,1.9177,2.0097,2.0091,1.9926,1.9665,0.0,0.0,0.0,0.0,0.0,0.0,0.0,0.0,0.0,0.0,0.0,2.2286,2.2303,2.2286,2.2248,2.2079,2.1936,2.1866,2.2801,2.3163,2.258,2.2586,2.2429,2.189,2.1343,2.0775,2.0142,1.9519,1.8886,1.8368,1.7772,1.7308,1.6976,1.6773,1.6303,1.5704,1.5424,1.5108,1.4545,1.4122,1.3833,1.3622,1.3404,1.3096,1.2914,1.2291,1.1906,1.194,1.2298,1.2644,1.294,1.3404,1.3932,1.4224,1.4707,1.4969,1.5086,1.5418,1.5618,1.5625,1.5725,1.5825,1.5825,1.5825,1.5825,1.5838,1.5945,1.6086,1.6266,1.65,1.6707,-0.1816,-0.1386,-0.1039,-0.0554,0.0069,0.0588,0.1247,0.2016,0.0,0.0,0.0,0.7484,0.8112,0.8452,0.8984,0.9263,0.9343,1.0018,1.0386,1.0546,1.1207,1.1505,1.1589,1.1877,1.2086,1.2264,1.2432,1.2641,1.2811,1.2967,1.3094,1.3277,1.3523,1.3856,1.4308,1.5733,1.6964,1.8023,1.851,1.9191,2.0103,2.0195,2.0162,2.0057,1.9821,1.9926,2.0391,2.0825,2.1322,2.2003,2.2569,2.2848,2.2848,2.2848,2.2848,2.2848,2.283,2.2848,2.2848,2.2686,2.2571,2.2583,2.3557,2.411,2.4129,2.4071,2.3857,2.3389,2.2981,2.2474,2.1769,2.1233,2.0552,1.9685,1.9335,1.8844,1.8121,1.8052,1.7744,1.7014,1.6659,1.6296,1.5675,1.518,1.476,1.441,1.4122,1.3833,1.3375,1.275,1.2355,1.2475,1.2875,1.3237,1.3529,1.39,1.4409,1.4774,1.4933,1.5041,1.5287,1.5395,1.5382,1.5494,1.5651,1.5806,1.5752,1.5785,1.5818,1.5825,1.5825,1.5825,1.5865,1.6206,1.6506,-0.2137,-0.1767,-0.1232,-0.0693,-0.0193,0.0308,0.1104,0.2084,0.3409,0.4455,0.53,0.6069,0.6766,0.7357,0.8016,0.8513,0.8895,0.9423,0.9713,0.0,1.0709,1.1081,1.1138,1.2282,1.2699,1.2537,1.3163,1.3396,1.3249,1.3454,1.3695,1.3875,1.4145,1.4698,1.5463,1.5788,1.6564,1.7827,1.8785,1.9503,1.9934,2.0161,2.027,2.0265,2.0103,2.0282,2.0812,2.1317,2.1879,2.2473,2.3138,2.3437,2.3392,2.3392,2.3392,2.3392,2.3392,2.341,2.3392,2.3265,2.333,2.3675,2.4458,2.4839,2.4541,2.4858,2.498,2.4729,2.4312,2.3884,2.3445,2.2893,2.2295,2.1614,2.0935,2.0361,1.9907,1.9324,1.8832,1.8667,1.7944,1.7397,1.7027,1.6367,1.5754,1.5346,1.4982,1.4553,1.4023,1.3376,1.2936,1.3048,1.327,1.3674,1.4084,1.4435,1.4783,1.5209,1.5404,1.5439,1.5533,1.5518,1.5528,1.5542,1.5616,1.5708,1.5735,1.5765,1.5772,1.5798,1.5805,1.5825,1.5825,1.5939,1.5992,-0.2419,-0.196,-0.1568,-0.1099,-0.059,0.0121,0.0863,0.155,0.2261,0.3296,0.4532,0.5338,0.5894,0.6326,0.7086,0.7537,0.7695,0.8423,0.8903,0.9238,1.021,1.071,1.0872,1.1764,1.2286,1.2379,1.2907,1.326,1.3466,1.3754,1.3935,1.3916,1.4113,1.4613,1.5271,1.5628,1.6282,1.7259,1.8449,1.9272,1.9677,1.9973,2.0195,2.0285,2.0236,2.0294,2.0527,2.1532,2.2187,2.2367,2.3455,2.4004,2.3926,2.3926,2.3945,2.3926,2.3945,2.3925,2.3921,2.3774,2.3719,2.3815,2.4506,2.5033,2.5252,2.5863,2.6127,2.5862,2.5628,2.5314,2.4877,2.4427,2.3937,2.3329,2.2627,2.1951,2.139,2.0862,2.0286,1.9772,1.9315,1.8871,1.8142,1.7658,1.707,1.6455,1.5824,1.5259,1.4776,1.4317,1.3948,1.36,1.3838,1.4257,1.4809,1.5035,1.5368,1.6026,1.5951,1.5881,1.5826,1.5806,1.5632,1.5602,1.5761,1.5763,1.5694,1.5667,1.5744,1.5705,1.5738,1.5805,1.5825,1.5825,1.5825,-0.2762,-0.2266,-0.1982,-0.1496,-0.0894,-0.021,0.0383,0.0854,0.1111,0.2074,0.3455,0.443,0.4965,0.5305,0.6074,0.6389,0.6522,0.7386,0.8022,0.8481,0.9529,1.0098,1.0311,1.1041,1.1558,1.188,1.2306,1.2828,1.3305,1.3651,1.3852,1.3889,1.4033,1.4351,1.49,1.5344,1.5905,1.6626,1.7757,1.8679,1.9309,1.9698,1.9977,2.0187,2.0256,2.0347,2.0574,2.1777,2.2527,2.2664,2.3842,2.4498,2.4454,2.4437,2.4439,2.4437,2.442,2.4405,2.4374,2.4211,2.404,2.3899,2.4563,2.5249,2.5937,2.6727,2.7122,2.6916,2.6805,2.6539,2.6164,2.5845,2.5443,2.4846,2.4275,2.3613,2.2922,2.2456,2.188,2.0977,2.0741,2.0239,1.9463,1.9062,1.8481,1.7522,1.6664,1.5965,1.5613,1.5401,1.5024,1.4622,1.4509,1.4787,1.538,1.5645,1.5944,1.6637,1.6482,1.6277,1.6257,1.6141,1.5915,1.5811,1.5958,1.5972,1.5846,1.5722,1.5812,1.5769,1.5807,1.5798,1.5785,1.5778,1.5818,-0.3227,-0.286,-0.2464,-0.1813,-0.1105,-0.0933,-0.049,0.009,0.0418,0.0898,0.1599,0.2802,0.3639,0.4097,0.4694,0.5147,0.5556,0.6494,0.7095,0.751,0.8437,0.8952,0.9236,1.0344,1.08,1.0831,1.1672,1.2278,1.2509,1.29,1.3465,1.4156,1.4101,1.4284,1.4753,1.4828,1.5197,1.5991,1.6712,1.764,1.8734,1.9286,1.9669,1.9943,2.0127,2.0614,2.1367,2.2318,2.3106,2.3813,2.452,2.4911,2.4858,2.4836,2.4842,2.4842,2.4795,2.4704,2.4582,2.457,2.4489,2.4392,2.4986,2.5687,2.6431,2.7226,2.7743,2.7771,2.7625,2.7447,2.7326,2.7014,2.6656,2.6217,2.5724,2.5239,2.4587,2.3914,2.3289,2.2893,2.2008,2.1332,2.1049,2.0396,1.9487,1.8445,1.7658,1.7001,1.6715,1.6446,1.6167,1.5936,1.5551,1.5346,1.5715,1.5918,1.636,1.6766,1.676,1.676,1.6716,1.6685,1.6531,1.6306,1.6392,1.6428,1.6166,1.6104,1.5967,1.5988,1.5873,1.568,1.5752,1.5812,1.5866,-0.3767,-0.3391,-0.2993,-0.2449,-0.1811,-0.1617,-0.125,-0.0771,-0.0636,-0.0246,0.0295,0.0964,0.1721,0.263,0.3192,0.3752,0.4365,0.5047,0.5746,0.6396,0.7406,0.8081,0.8567,0.9505,1.0079,1.0343,1.1089,1.1709,1.2266,1.2884,1.355,1.4097,1.4058,1.4247,1.4663,1.4954,1.5435,1.6203,1.691,1.7702,1.8557,1.8929,1.9276,1.9691,2.0365,2.0959,2.1593,2.2827,2.3735,2.4132,2.4819,2.5202,2.5147,2.5137,2.5146,2.5135,2.5072,2.5027,2.4972,2.4937,2.4858,2.4776,2.499,2.5461,2.6149,2.6619,2.7189,2.8037,2.8252,2.8262,2.8103,2.7911,2.7619,2.73,2.6911,2.6438,2.5922,2.5271,2.4649,2.396,2.3354,2.2665,2.1996,2.1207,2.0308,1.9329,1.8674,1.8382,1.7949,1.7619,1.7345,1.7166,1.6808,1.6652,1.6639,1.6676,1.7016,1.7301,1.7325,1.7124,1.7175,1.712,1.7045,1.6725,1.6854,1.6822,1.6529,1.6367,1.6263,1.6205,1.6044,1.5845,1.6071,1.604,1.5985,-0.43,-0.3947,-0.3582,-0.3097,-0.261,-0.2286,-0.1964,-0.1565,-0.1529,-0.1177,-0.0666,-0.0414,0.0208,0.1137,0.1827,0.2505,0.3152,0.383,0.4553,0.5431,0.6539,0.7315,0.7871,0.8775,0.9406,0.9909,1.0466,1.1225,1.2132,1.2886,1.3568,1.3983,1.3956,1.4117,1.4498,1.4823,1.5296,1.6014,1.6755,1.7503,1.8199,1.8596,1.9088,1.9819,2.0749,2.1486,2.203,2.3309,2.4191,2.4546,2.5125,2.5405,2.5357,2.5362,2.534,2.5356,2.534,2.5297,2.529,2.5226,2.5186,2.5105,2.5057,2.5355,2.5972,2.6273,2.7,2.8284,2.8895,2.9055,2.8759,2.8591,2.8417,2.82,2.784,2.7449,2.7051,2.6554,2.5924,2.5153,2.4626,2.3985,2.2909,2.2005,2.1195,2.0491,2.0057,1.9738,1.9246,1.8957,1.87,1.8297,1.824,1.7959,1.7478,1.7321,1.7567,1.7733,1.7651,1.7557,1.7519,1.752,1.745,1.7174,1.7279,1.7229,1.6805,1.6585,1.6538,1.6484,1.6346,1.6177,1.6366,1.6263,1.6218,-0.4906,-0.468,-0.4129,-0.3741,-0.3404,-0.3018,-0.2622,-0.2237,-0.204,-0.1752,-0.1335,-0.0988,-0.0669,-0.0166,0.0782,0.1463,0.2074,0.3019,0.3853,0.4658,0.5863,0.6671,0.723,0.8143,0.8778,0.9131,0.9703,1.0661,1.1963,1.2686,1.3369,1.3939,1.3748,1.3883,1.429,1.4199,1.4423,1.5299,1.5982,1.6669,1.7578,1.828,1.9273,2.0477,2.1243,2.2058,2.3101,2.3611,2.4263,2.5308,2.5393,2.5488,2.5476,2.5492,2.5489,2.5493,2.5542,2.5551,2.5486,2.5467,2.5434,2.5386,2.5368,2.5665,2.6245,2.6493,2.716,2.8689,2.9341,2.9674,2.9345,2.9142,2.9023,2.8934,2.8634,2.833,2.8058,2.7606,2.7099,2.6521,2.5832,2.4942,2.3772,2.3013,2.2428,2.1882,2.1342,2.0764,2.0563,2.0339,2.0009,1.9771,1.9596,1.9243,1.8076,1.7831,1.7812,1.7887,1.8043,1.7872,1.7868,1.7807,1.7694,1.7548,1.7605,1.7421,1.6996,1.6804,1.6797,1.6748,1.6552,1.656,1.6733,1.6448,1.641,-0.5232,-0.4849,-0.4711,-0.4466,-0.4113,-0.3729,-0.3393,-0.3023,-0.2676,-0.2305,-0.1763,-0.1506,-0.1122,-0.0672,0.0164,0.0864,0.1513,0.2511,0.3392,0.4216,0.5245,0.6095,0.6864,0.7503,0.8037,0.8521,0.8883,0.9799,1.1074,1.1882,1.253,1.3082,1.3351,1.3687,1.4102,1.435,1.4771,1.5428,1.6158,1.694,1.7706,1.8698,1.9607,2.0479,2.1289,2.2095,2.2873,2.3729,2.4465,2.5052,2.5233,2.5342,2.5437,2.5526,2.556,2.5576,2.5629,2.5642,2.5579,2.558,2.5547,2.5524,2.5537,2.5587,2.5815,2.5944,2.6384,2.7449,2.8608,2.9151,2.9314,2.945,2.9569,2.9457,2.926,2.9034,2.8815,2.8537,2.8138,2.756,2.6683,2.5575,2.4683,2.403,2.3447,2.2777,2.2215,2.1832,2.1427,2.12,2.1075,2.0838,2.082,2.073,2.0074,1.9166,1.8721,1.8492,1.8428,1.8282,1.8191,1.8251,1.8184,1.7951,1.7889,1.7842,1.7516,1.722,1.7184,1.7088,1.7001,1.6982,1.7351,1.7016,1.685,-0.5718,-0.53,-0.5375,-0.5214,-0.4805,-0.4419,-0.4024,-0.3635,-0.3299,-0.2796,-0.2294,-0.1905,-0.1458,-0.0954,-0.0168,0.0729,0.1514,0.2294,0.307,0.3898,0.4783,0.5609,0.6376,0.6858,0.7402,0.7943,0.8368,0.919,1.0218,1.0981,1.1683,1.2276,1.2783,1.3218,1.3684,1.4097,1.4652,1.5276,1.6027,1.676,1.7572,1.8507,1.9332,1.9974,2.08,2.1641,2.2443,2.3491,2.4197,2.4554,2.4801,2.5034,2.5265,2.5438,2.5542,2.5566,2.5637,2.5642,2.5605,2.5604,2.5602,2.5603,2.5598,2.5581,2.5531,2.5539,2.595,2.6773,2.762,2.8475,2.9115,2.9528,2.9773,2.9813,2.9763,2.9605,2.9439,2.9262,2.8883,2.8276,2.7385,2.6435,2.5606,2.5124,2.4521,2.3772,2.3378,2.2869,2.2525,2.2299,2.2091,2.1761,2.1743,2.1668,2.1292,2.0637,1.9792,1.9477,1.9085,1.8865,1.8704,1.8783,1.8725,1.8416,1.827,1.8284,1.8126,1.7807,1.7653,1.7576,1.7346,1.7229,1.7388,1.7507,1.7363,-0.6363,-0.5957,-0.6091,-0.5923,-0.5487,-0.4901,-0.447,-0.4135,-0.3747,-0.3244,-0.2794,-0.2238,-0.1681,-0.1177,-0.0224,0.0898,0.2021,0.241,0.2907,0.3683,0.4512,0.5226,0.5882,0.6431,0.6912,0.7343,0.8143,0.889,0.9555,1.0115,1.0838,1.1619,1.2067,1.251,1.3006,1.3409,1.3894,1.4536,1.5231,1.5971,1.6786,1.7518,1.826,1.903,1.9662,2.0655,2.207,2.2799,2.3379,2.3822,2.4145,2.4523,2.5004,2.5253,2.5401,2.5471,2.5542,2.5582,2.5615,2.5605,2.559,2.559,2.5593,2.5581,2.5605,2.5644,2.5952,2.6605,2.717,2.7846,2.9007,2.9395,2.9674,3.0086,3.0131,3.0028,2.9908,2.9782,2.9458,2.8805,2.8193,2.766,2.6937,2.6235,2.5647,2.5271,2.4694,2.4128,2.3908,2.3574,2.3231,2.275,2.2602,2.26,2.2344,2.2002,2.1172,2.0504,2.0019,1.9649,1.9441,1.9421,1.9251,1.9022,1.8672,1.8616,1.8293,1.8005,1.7977,1.7871,1.7683,1.7561,1.7665,1.7759,1.7688,-0.6809,-0.6598,-0.6574,-0.6268,-0.5837,-0.5234,-0.4798,-0.4522,-0.3968,-0.3463,-0.2963,-0.2293,-0.1737,-0.1121,-0.0168,0.101,0.2191,0.2523,0.2965,0.3627,0.4405,0.5069,0.5618,0.6055,0.6431,0.6918,0.7616,0.819,0.8659,0.9242,0.9976,1.0635,1.1209,1.1769,1.2353,1.2832,1.3314,1.3894,1.4525,1.5152,1.5852,1.6451,1.7151,1.7826,1.8384,1.9082,2.0082,2.142,2.2358,2.2864,2.33,2.3879,2.4511,2.4847,2.5033,2.5215,2.5356,2.5434,2.5517,2.5532,2.5522,2.5527,2.5537,2.555,2.5586,2.5609,2.574,2.6082,2.662,2.7477,2.8406,2.9157,2.9684,3.0394,3.0433,3.0332,3.0227,3.0056,2.9775,2.9439,2.9024,2.8584,2.8022,2.735,2.6796,2.6332,2.5691,2.5115,2.4702,2.4537,2.4244,2.377,2.3695,2.3511,2.3253,2.2978,2.2356,2.1651,2.1096,2.0549,2.0275,2.015,1.9901,1.9584,1.9299,1.8952,1.8564,1.836,1.8426,1.8218,1.8021,1.7972,1.8099,1.8051,1.7976,-0.715,-0.7053,-0.6929,-0.6539,-0.6055,-0.5449,-0.5011,-0.4739,-0.4128,-0.3633,-0.3188,-0.2406,-0.1849,-0.129,-0.0168,0.1066,0.2135,0.2525,0.2968,0.3574,0.4187,0.4798,0.5344,0.5782,0.605,0.6426,0.702,0.7498,0.7812,0.8455,0.9145,0.9917,1.0482,1.1108,1.1769,1.2304,1.2783,1.3314,1.3931,1.4536,1.5107,1.5696,1.6305,1.6967,1.741,1.7944,1.8655,1.989,2.0955,2.1815,2.2606,2.3311,2.3953,2.4297,2.4611,2.4822,2.5004,2.5129,2.5293,2.5335,2.5376,2.5403,2.5425,2.5453,2.5505,2.5521,2.5537,2.5658,2.6068,2.6759,2.7631,2.8493,2.9331,3.0107,3.0426,3.0525,3.0472,3.0301,3.01,2.9878,2.9633,2.9307,2.8879,2.8421,2.7879,2.7373,2.6762,2.6133,2.5704,2.5468,2.5145,2.4779,2.4502,2.4326,2.421,2.3871,2.3459,2.2857,2.2306,2.1643,2.1169,2.11,2.0985,2.0484,2.0085,1.9628,1.9281,1.907,1.8924,1.8635,1.8377,1.835,1.8447,1.8291,1.8156,-0.7425,-0.7331,-0.7147,-0.6701,-0.615,-0.555,-0.5117,-0.4846,-0.4242,-0.3799,-0.3416,-0.2575,-0.2018,-0.1514,-0.0224,0.1066,0.2077,0.2523,0.297,0.3469,0.3968,0.4463,0.5007,0.5504,0.5723,0.5882,0.6376,0.6858,0.7235,0.7812,0.8501,0.9295,0.9917,1.0533,1.1209,1.1778,1.2304,1.2774,1.3409,1.4025,1.4606,1.5119,1.5712,1.6423,1.6782,1.7216,1.7814,1.8478,1.9474,2.0863,2.1978,2.2683,2.3199,2.3653,2.4026,2.4292,2.4516,2.4723,2.4924,2.5019,2.5135,2.5234,2.5265,2.5311,2.5371,2.5422,2.5439,2.5486,2.5638,2.6024,2.6895,2.7624,2.8505,2.943,3.0253,3.0619,3.0633,3.0537,3.0395,3.024,3.0094,2.9909,2.9547,2.9189,2.8832,2.8415,2.7888,2.742,2.7002,2.6572,2.613,2.5766,2.5458,2.5194,2.5076,2.468,2.4253,2.3836,2.3362,2.2905,2.223,2.2116,2.1966,2.1416,2.0921,2.0473,2.0031,1.9835,1.9386,1.9044,1.8819,1.8743,1.8656,1.8545,1.8475,-0.7796,-0.7723,-0.7267,-0.6756,-0.6154,-0.555,-0.5117,-0.4846,-0.4128,-0.3744,-0.3302,-0.2462,-0.1962,-0.1628,-0.028,0.1066,0.2021,0.2523,0.2968,0.3413,0.3858,0.4353,0.4846,0.5124,0.5289,0.5399,0.5832,0.6209,0.6534,0.723,0.7865,0.8534,0.9399,1.0028,1.0651,1.1318,1.1819,1.2314,1.288,1.3457,1.4035,1.4593,1.5142,1.5724,1.6175,1.6637,1.7144,1.7841,1.8858,2.0206,2.1036,2.1666,2.217,2.2683,2.314,2.3539,2.3858,2.417,2.4425,2.4618,2.4785,2.493,2.5005,2.5118,2.5243,2.5303,2.5339,2.5418,2.5503,2.5861,2.6643,2.7068,2.7902,2.9269,3.0253,3.0762,3.0732,3.0697,3.0607,3.0498,3.0404,3.024,3.0035,2.9798,2.951,2.921,2.8857,2.8488,2.8056,2.7677,2.722,2.6908,2.6573,2.6195,2.5864,2.5486,2.51,2.473,2.4403,2.4212,2.3622,2.3187,2.2899,2.2457,2.2027,2.1592,2.0985,2.0549,2.0042,1.9594,1.9449,1.941,1.9044,1.8876,1.8814,-0.7902,-0.7871,-0.7348,-0.6756,-0.6154,-0.5555,-0.5117,-0.4787,-0.4128,-0.3633,-0.3244,-0.2406,-0.1905,-0.1628,-0.0336,0.0954,0.1967,0.2355,0.2745,0.3188,0.3685,0.4184,0.4629,0.4853,0.4959,0.5069,0.5504,0.5887,0.6263,0.6858,0.7557,0.8243,0.8988,0.9621,1.0249,1.0863,1.1469,1.1968,1.255,1.3132,1.3716,1.428,1.4846,1.539,1.5792,1.6231,1.682,1.7407,1.8274,1.936,2.0085,2.0637,2.116,2.1682,2.2187,2.2631,2.3053,2.343,2.3795,2.4082,2.4368,2.4532,2.4689,2.4864,2.5031,2.5126,2.5212,2.5303,2.5359,2.5669,2.618,2.6817,2.7926,2.9193,3.0205,3.0754,3.0781,3.0753,3.0729,3.0687,3.062,3.0529,3.0366,3.0221,3.0056,2.9821,2.9578,2.9269,2.8947,2.864,2.8329,2.7942,2.7617,2.7235,2.6897,2.6505,2.6092,2.5705,2.5377,2.5223,2.478,2.4191,2.3844,2.3509,2.3094,2.264,2.2089,2.1479,2.0996,2.0613,2.0237,1.9922,1.9726,1.9341,1.9339,-0.7933,-0.7824,-0.7295,-0.6696,-0.61,-0.5555,-0.5117,-0.4787,-0.4073,-0.3633,-0.3188,-0.2406,-0.1849,-0.1684,-0.0336,0.0785,0.1741,0.2074,0.2517,0.3016,0.3516,0.3962,0.4353,0.4577,0.4684,0.4901,0.5344,0.5723,0.6209,0.6756,0.7461,0.8156,0.8745,0.9323,0.9991,1.0616,1.1124,1.1669,1.2323,1.2949,1.3525,1.4082,1.4697,1.5255,1.5715,1.6088,1.6607,1.706,1.7612,1.8472,1.9111,1.9677,2.0184,2.0701,2.116,2.1653,2.216,2.2625,2.3071,2.3414,2.3826,2.4062,2.4299,2.457,2.4785,2.491,2.5031,2.516,2.5224,2.5418,2.5898,2.7041,2.8205,2.9187,3.0098,3.0619,3.0735,3.0769,3.0801,3.0786,3.0742,3.0672,3.0606,3.0521,3.0393,3.0207,3.0024,2.9827,2.9609,2.9363,2.9074,2.8835,2.8518,2.824,2.7924,2.7589,2.7178,2.6771,2.6372,2.6102,2.5726,2.5226,2.4875,2.4477,2.4059,2.3631,2.3217,2.2615,2.2003,2.1491,2.1123,2.0805,2.0495,2.0053,1.9854,-0.7894,-0.7568,-0.7031,-0.6485,-0.6,-0.5399,-0.5066,-0.4846,-0.4024,-0.3469,-0.3019,-0.2237,-0.168,-0.1347,-0.028,0.0673,0.1402,0.1849,0.2406,0.3021,0.3299,0.363,0.3962,0.4187,0.4411,0.4684,0.5014,0.5508,0.6055,0.6707,0.7419,0.8168,0.8745,0.9263,0.9725,1.0411,1.0972,1.1427,1.2076,1.2706,1.3324,1.3941,1.4547,1.5153,1.5748,1.6188,1.6479,1.6705,1.696,1.7421,1.8094,1.8817,1.9347,1.9844,2.0268,2.0718,2.1254,2.1749,2.219,2.2694,2.3171,2.3468,2.3828,2.4155,2.4491,2.4648,2.4847,2.5013,2.5111,2.5439,2.6167,2.718,2.8222,2.91,2.9902,3.0511,3.0576,3.0672,3.0732,3.0774,3.0781,3.0735,3.0679,3.0652,3.058,3.0515,3.0419,3.0307,3.0155,2.997,2.9744,2.9472,2.9269,2.8989,2.8705,2.8354,2.7978,2.7606,2.7247,2.6927,2.6557,2.6168,2.5755,2.5378,2.4966,2.4572,2.4032,2.3632,2.2946,2.2433,2.1966,2.1678,2.1365,2.0805,2.0442,-0.7842,-0.7467,-0.6923,-0.6431,-0.5946,-0.5348,-0.5018,-0.4743,-0.3971,-0.3416,-0.2968,-0.2183,-0.1624,-0.1234,-0.0336,0.0505,0.1121,0.1736,0.2294,0.2798,0.3021,0.3241,0.3461,0.3852,0.4187,0.4574,0.5011,0.5504,0.6164,0.6761,0.7515,0.8268,0.8844,0.9368,0.9777,1.0411,1.0922,1.1418,1.1977,1.2559,1.3122,1.3836,1.464,1.5289,1.5925,1.6275,1.6436,1.6565,1.6663,1.6905,1.7352,1.7895,1.8464,1.8936,1.9376,1.9783,2.0353,2.0879,2.1332,2.1927,2.2468,2.2848,2.3287,2.3663,2.4024,2.4299,2.4554,2.4741,2.494,2.5336,2.6331,2.768,2.8483,2.8967,2.9766,3.0314,3.0451,3.0568,3.0689,3.073,3.0746,3.0747,3.0741,3.0717,3.0721,3.0648,3.0662,3.0542,3.0451,3.0279,3.0221,3.0023,2.9893,2.9685,2.9401,2.9089,2.8714,2.8384,2.8031,2.7725,2.7411,2.6992,2.6598,2.6184,2.5756,2.5156,2.469,2.4286,2.3904,2.3391,2.2934,2.2613,2.2262,2.1806,2.1518,-0.7735,-0.7467,-0.6869,-0.6322,-0.5837,-0.5289,-0.4963,-0.4746,-0.3971,-0.3418,-0.2972,-0.2184,-0.1625,-0.1122,-0.0393,0.0336,0.1009,0.1569,0.2128,0.2354,0.2629,0.2794,0.3019,0.3519,0.4021,0.4629,0.5066,0.5664,0.6317,0.6966,0.7616,0.8315,0.8949,0.9413,0.9991,1.0462,1.0972,1.1469,1.1977,1.2461,1.3025,1.3752,1.4605,1.5468,1.5969,1.6231,1.6392,1.6479,1.6577,1.6675,1.6791,1.7115,1.7557,1.8108,1.8539,1.8916,1.9549,2.0062,2.0552,2.1117,2.1711,2.2186,2.2669,2.3124,2.3494,2.3925,2.4303,2.4754,2.5136,2.5802,2.6629,2.7831,2.875,2.9159,2.9759,3.0157,3.0343,3.0471,3.0519,3.0664,3.0684,3.0711,3.0747,3.0757,3.0774,3.08,3.0795,3.0774,3.0661,3.0586,3.0486,3.0414,3.0254,3.0113,2.9859,2.9652,2.9288,2.9047,2.8746,2.8494,2.8192,2.7865,2.7469,2.6948,2.6459,2.5908,2.5414,2.5084,2.4681,2.4202,2.3699,2.3189,2.2916,2.2792,2.2541,-0.7628,-0.7376,-0.6593,-0.5937,-0.5391,-0.5062,-0.4849,-0.4636,-0.3916,-0.3418,-0.2972,-0.2184,-0.1624,-0.1121,-0.0393,0.0393,0.101,0.1458,0.1738,0.1962,0.2183,0.235,0.2742,0.3299,0.3796,0.4343,0.4948,0.5605,0.6263,0.6966,0.7622,0.8234,0.891,0.9465,0.9984,1.0454,1.0972,1.1418,1.1877,1.2314,1.2852,1.3563,1.4408,1.5424,1.5824,1.6132,1.6349,1.6479,1.6522,1.6522,1.6663,1.6846,1.717,1.7639,1.8082,1.845,1.8974,1.9449,1.9793,2.0348,2.0862,2.1336,2.1931,2.2476,2.2965,2.3486,2.4182,2.5186,2.6115,2.7048,2.8099,2.8531,2.8979,2.9501,2.9782,2.9984,3.0094,3.0188,3.0297,3.0462,3.0543,3.0632,3.0665,3.072,3.0743,3.0752,3.0772,3.0781,3.0735,3.0716,3.0681,3.0637,3.0581,3.0424,3.0244,3.0041,2.9817,2.9633,2.9401,2.9229,2.8938,2.8686,2.829,2.7818,2.7234,2.6631,2.6204,2.5863,2.5322,2.4834,2.4221,2.3661,2.3593,2.3523,2.3309,-0.7467,-0.7203,-0.6485,-0.5937,-0.5449,-0.5066,-0.4794,-0.4522,-0.386,-0.336,-0.2856,-0.2183,-0.1624,-0.1177,-0.0505,0.028,0.0898,0.1234,0.1459,0.1684,0.1905,0.2128,0.2577,0.3135,0.3688,0.4184,0.4842,0.5609,0.6317,0.6966,0.7622,0.8328,0.8903,0.9465,0.9984,1.0403,1.0871,1.1377,1.1728,1.2126,1.2608,1.3372,1.4398,1.5096,1.5591,1.5957,1.6275,1.6436,1.6522,1.662,1.6705,1.6846,1.7044,1.7337,1.772,1.8057,1.8503,1.8912,1.9236,1.9788,2.0314,2.0781,2.1399,2.2124,2.2829,2.3545,2.4391,2.559,2.6735,2.768,2.8222,2.8708,2.9213,2.955,2.9699,2.9753,2.9839,2.9905,3.0052,3.0228,3.0359,3.0472,3.0574,3.0622,3.0678,3.072,3.0754,3.0771,3.0775,3.0781,3.0757,3.0755,3.07,3.0607,3.0468,3.0355,3.0213,3.0075,2.9966,2.9779,2.9616,2.9345,2.9063,2.8699,2.8065,2.7435,2.6813,2.6364,2.5858,2.5481,2.5086,2.4713,2.4459,2.421,2.4042,-0.7359,-0.7031,-0.6426,-0.5941,-0.5508,-0.5062,-0.4736,-0.4408,-0.3858,-0.3357,-0.2852,-0.2181,-0.1624,-0.1177,-0.0505,0.028,0.0897,0.1066,0.129,0.1628,0.1905,0.2127,0.2573,0.3132,0.3802,0.4242,0.4791,0.5508,0.6218,0.6869,0.7563,0.8156,0.8791,0.9413,0.9888,1.0249,1.071,1.1175,1.1528,1.1877,1.2501,1.3351,1.4212,1.4926,1.5277,1.568,1.6001,1.6262,1.6448,1.6633,1.6761,1.6888,1.7044,1.728,1.7487,1.776,1.8202,1.8542,1.8874,1.9347,1.9899,2.0505,2.1067,2.1955,2.3015,2.3949,2.4989,2.6152,2.7209,2.793,2.8307,2.8799,2.9159,2.9334,2.9414,2.9492,2.9551,2.9644,2.9751,2.9931,3.0133,3.0279,3.0398,3.0511,3.0565,3.0622,3.0652,3.072,3.0747,3.0752,3.0753,3.0781,3.0749,3.07,3.0642,3.06,3.0494,3.0404,3.0316,3.019,3.0075,2.995,2.9664,2.9345,2.8913,2.8288,2.7589,2.6928,2.6462,2.6179,2.601,2.5676,2.5211,2.4955,2.4783,-0.7371,-0.7047,-0.6436,-0.5882,-0.5336,-0.5007,-0.4739,-0.4408,-0.3858,-0.3357,-0.285,-0.2124,-0.1624,-0.1065,-0.0168,0.0505,0.0841,0.1066,0.129,0.1628,0.1905,0.235,0.2794,0.335,0.3907,0.4349,0.4849,0.5454,0.6055,0.6652,0.7198,0.7848,0.8468,0.9093,0.9569,0.9984,1.0557,1.1074,1.1377,1.1909,1.2638,1.3218,1.3836,1.4408,1.4926,1.5322,1.568,1.6044,1.6275,1.6448,1.662,1.6791,1.7002,1.728,1.7569,1.7842,1.8109,1.8307,1.8581,1.8988,1.9597,2.0332,2.1008,2.1906,2.3156,2.4624,2.5784,2.647,2.7424,2.8018,2.8184,2.8506,2.873,2.886,2.8975,2.9104,2.9212,2.9316,2.9418,2.9608,2.9801,3.0026,3.0215,3.0336,3.0447,3.0501,3.0557,3.0642,3.0704,3.0711,3.0728,3.0767,3.078,3.0757,3.0728,3.0719,3.0691,3.0637,3.0581,3.0513,3.0399,3.0289,3.0213,2.9893,2.9515,2.9118,2.8439,2.7814,2.7217,2.681,2.6548,2.6225,2.5825,2.5636,2.5546,-0.7359,-0.6939,-0.6431,-0.5941,-0.5449,-0.5066,-0.468,-0.4245,-0.3802,-0.3304,-0.2742,-0.2125,-0.1456,-0.0785,0.0056,0.0505,0.0841,0.1066,0.1345,0.1737,0.2128,0.2575,0.3074,0.363,0.4187,0.4515,0.4904,0.5289,0.5837,0.6327,0.6869,0.7461,0.8037,0.856,0.9145,0.9562,1.0035,1.0608,1.1167,1.1868,1.2501,1.3025,1.3505,1.415,1.4616,1.4983,1.539,1.5768,1.6076,1.6324,1.662,1.6918,1.7115,1.7337,1.7584,1.7882,1.8016,1.8214,1.8503,1.876,1.9373,2.0088,2.0835,2.1833,2.3487,2.4957,2.6131,2.6678,2.6842,2.7243,2.7672,2.7683,2.7932,2.8152,2.8377,2.8628,2.8772,2.8952,2.9086,2.9275,2.9455,2.968,2.9902,3.0056,3.0215,3.0352,3.0419,3.0501,3.0591,3.0665,3.07,3.0728,3.0757,3.0775,3.078,3.0761,3.0758,3.0728,3.0721,3.0661,3.0618,3.0539,3.045,3.0382,3.0128,2.9694,2.9214,2.8699,2.8092,2.7582,2.7095,2.6825,2.659,2.6497,2.6497,-0.7408,-0.6987,-0.6485,-0.6105,-0.5677,-0.5175,-0.4684,-0.4245,-0.3805,-0.3302,-0.2689,-0.2015,-0.1232,-0.0505,0.0056,0.0561,0.101,0.1178,0.1513,0.1905,0.2408,0.2907,0.3411,0.4024,0.4411,0.4625,0.4959,0.5289,0.5622,0.6059,0.6544,0.7128,0.761,0.809,0.862,0.9152,0.9621,1.0403,1.1116,1.1769,1.2372,1.2754,1.3228,1.3773,1.4255,1.4673,1.5119,1.5546,1.5876,1.6194,1.6565,1.6876,1.7115,1.7337,1.7584,1.7828,1.7975,1.8082,1.8293,1.8545,1.9077,1.9778,2.07,2.1835,2.3506,2.4908,2.5454,2.5664,2.562,2.597,2.6432,2.6312,2.6665,2.7116,2.7628,2.796,2.8262,2.8359,2.8609,2.8925,2.9104,2.9272,2.9494,2.9732,2.995,3.0161,3.0267,3.0371,3.0462,3.0546,3.0637,3.0652,3.0716,3.0751,3.0746,3.0757,3.0767,3.0793,3.0778,3.0781,3.0722,3.0694,3.0651,3.0594,3.0529,3.0315,2.9883,2.9429,2.8984,2.8505,2.8047,2.7695,2.7461,2.7419,2.7603,-0.7515,-0.7263,-0.6874,-0.6431,-0.595,-0.5344,-0.4849,-0.4463,-0.3962,-0.3408,-0.274,-0.1792,-0.1233,-0.0729,-0.0056,0.0617,0.1234,0.1459,0.1794,0.224,0.2796,0.3352,0.3855,0.4298,0.4684,0.4959,0.5128,0.5344,0.5567,0.5845,0.6277,0.6756,0.7295,0.7783,0.8315,0.8844,0.9629,1.036,1.1124,1.1678,1.2126,1.2569,1.3007,1.343,1.3868,1.4244,1.4708,1.5232,1.568,1.5988,1.6392,1.6748,1.7044,1.7295,1.7584,1.7828,1.7895,1.7975,1.8029,1.823,1.8681,1.9563,2.0578,2.1625,2.2893,2.2989,2.3323,2.386,2.4017,2.4264,2.4536,2.4686,2.5154,2.5846,2.6411,2.6817,2.7179,2.7647,2.7931,2.8449,2.8682,2.8741,2.906,2.9299,2.9607,2.9848,3.0071,3.0155,3.0304,3.04,3.0501,3.0574,3.0649,3.0678,3.0689,3.0697,3.07,3.0743,3.0747,3.0774,3.0765,3.0767,3.0721,3.07,3.0621,3.0594,3.0503,3.0029,2.9623,2.9345,2.9003,2.8625,2.8622,2.8722,2.9056,-0.7842,-0.7515,-0.7306,-0.6815,-0.6218,-0.5618,-0.5179,-0.4684,-0.4184,-0.3463,-0.2631,-0.1959,-0.1401,-0.0841,-0.0336,0.0336,0.0897,0.1403,0.1905,0.2573,0.3128,0.3741,0.4242,0.4629,0.4959,0.5124,0.5293,0.5454,0.5618,0.5905,0.6277,0.6707,0.7085,0.7461,0.7996,0.8791,0.9681,1.0411,1.1074,1.1628,1.2076,1.248,1.291,1.3372,1.3716,1.415,1.4616,1.5017,1.5457,1.5856,1.625,1.665,1.696,1.7295,1.7584,1.7842,1.7868,1.7788,1.7733,1.7922,1.8451,1.9196,2.0131,2.1005,2.1773,2.1955,2.23,2.2613,2.2566,2.2763,2.3488,2.3456,2.3646,2.4452,2.5122,2.5601,2.6092,2.6584,2.7136,2.7602,2.7821,2.7942,2.8403,2.886,2.9196,2.9514,2.9748,2.9946,3.008,3.0222,3.0309,3.0419,3.0492,3.0576,3.0579,3.0598,3.0633,3.0672,3.0711,3.073,3.0722,3.0748,3.0715,3.0699,3.0699,3.0662,3.0596,3.0483,3.0211,2.9868,2.9687,2.9532,2.9687,2.9979,3.0427,-0.8109,-0.7889,-0.7676,-0.7139,-0.6436,-0.5891,-0.5395,-0.4846,-0.4349,-0.3633,-0.2745,-0.235,-0.1736,-0.112,-0.0617,0.0056,0.0729,0.1401,0.2071,0.2738,0.335,0.3962,0.4519,0.4904,0.5124,0.5234,0.5454,0.5618,0.5782,0.6069,0.6391,0.6761,0.7085,0.7461,0.7883,0.8784,0.9681,1.036,1.1023,1.1578,1.2067,1.2431,1.2861,1.3276,1.361,1.3999,1.4477,1.4926,1.5334,1.578,1.6219,1.662,1.696,1.7295,1.7543,1.7706,1.7706,1.7638,1.7529,1.7638,1.8072,1.8725,1.8905,1.9656,2.0296,2.0684,2.0774,2.1166,2.1168,2.1467,2.2306,2.205,2.2345,2.3194,2.4114,2.4683,2.5098,2.5562,2.6167,2.6687,2.696,2.7344,2.7941,2.8471,2.886,2.9175,2.9418,2.9625,2.9799,2.9946,3.0099,3.0209,3.0278,3.0378,3.0462,3.0492,3.0509,3.0535,3.0582,3.0618,3.0634,3.0653,3.0664,3.0661,3.0669,3.071,3.068,3.0598,3.0497,3.0345,3.0208,3.0076,3.0903,3.1232,3.1728,-0.8374,-0.8315,-0.7883,-0.7295,-0.6647,-0.605,-0.5445,-0.4956,-0.4574,-0.4021,-0.3302,-0.2745,-0.2128,-0.1511,-0.1064,-0.0224,0.0728,0.1456,0.2183,0.2852,0.3461,0.4076,0.4577,0.4963,0.5179,0.5508,0.5618,0.5732,0.595,0.6228,0.6549,0.6982,0.7354,0.7681,0.7836,0.8679,0.9524,1.0257,1.0972,1.1528,1.2026,1.2382,1.2754,1.318,1.3515,1.3905,1.4373,1.488,1.5334,1.5824,1.6262,1.665,1.6989,1.7295,1.7502,1.757,1.7666,1.7543,1.7282,1.724,1.7597,1.7929,1.7978,1.8122,1.8714,1.8941,1.9132,1.9765,1.9811,2.0046,2.0312,2.0603,2.1331,2.2128,2.3095,2.3786,2.4195,2.4729,2.5343,2.6044,2.644,2.6806,2.7505,2.8083,2.8489,2.8814,2.9082,2.9277,2.9438,2.9625,2.9801,2.9946,3.0047,3.0215,3.0311,3.0379,3.0406,3.043,3.0472,3.0492,3.053,3.054,3.0565,3.0576,3.062,3.0645,3.0706,3.0746,3.076,3.0784,3.0623,3.0725,3.1656,3.2458,3.2901,-0.8685,-0.8521,-0.8156,-0.7676,-0.702,-0.6367,-0.5773,-0.5289,-0.4739,-0.4135,-0.3527,-0.3079,-0.2573,-0.1959,-0.1344,-0.0561,0.0448,0.1455,0.2183,0.2912,0.3519,0.4073,0.4519,0.4849,0.5066,0.5289,0.5458,0.5782,0.6,0.6386,0.6874,0.7306,0.7783,0.8262,0.858,0.9159,0.9673,1.0352,1.1023,1.1578,1.2076,1.2372,1.2706,1.317,1.3467,1.3847,1.4373,1.4834,1.5379,1.5913,1.6337,1.6765,1.7115,1.7461,1.7706,1.7747,1.7801,1.7584,1.7274,1.7192,1.7242,1.7222,1.7042,1.7067,1.7549,1.7882,1.8201,1.8616,1.9035,1.9406,1.9711,2.0025,2.0663,2.1455,2.2293,2.2889,2.3422,2.4,2.4624,2.5465,2.6004,2.6615,2.7278,2.7607,2.7964,2.8237,2.8504,2.8814,2.9023,2.9256,2.9456,2.9644,2.9801,2.9984,3.0128,3.0166,3.0234,3.0267,3.0309,3.0375,3.0386,3.0428,3.0441,3.0453,3.053,3.0593,3.0632,3.0764,3.1159,3.125,3.1254,3.1588,3.2492,3.3301,3.3906,-0.8903,-0.8633,-0.8262,-0.7777,-0.7182,-0.648,-0.5887,-0.5234,-0.4629,-0.4079,-0.3635,-0.3299,-0.2798,-0.224,-0.1738,-0.0841,0.0168,0.1401,0.2184,0.2914,0.3519,0.4018,0.446,0.4791,0.5124,0.5293,0.5563,0.5891,0.6273,0.6766,0.7252,0.7735,0.8203,0.858,0.8956,0.9263,0.9621,1.0249,1.0812,1.1377,1.1877,1.2274,1.2657,1.3094,1.3478,1.3858,1.4373,1.488,1.5367,1.5944,1.6466,1.6892,1.7269,1.7652,1.7949,1.8043,1.8249,1.8136,1.803,1.7836,1.7772,1.7118,1.6641,1.6522,1.6795,1.7256,1.7666,1.8108,1.8539,1.9003,1.9354,1.9662,2.0303,2.108,2.1983,2.2635,2.3224,2.3863,2.4547,2.5313,2.5792,2.6424,2.6994,2.7158,2.7413,2.7654,2.7869,2.821,2.8547,2.8814,2.9082,2.9277,2.9494,2.9681,2.9855,2.9953,3.0015,3.009,3.0147,3.0196,3.026,3.0292,3.0311,3.0328,3.0425,3.049,3.0557,3.0768,3.1256,3.178,3.2165,3.2675,3.3393,3.3996,3.4583,-0.9026,-0.8725,-0.8125,-0.754,-0.7015,-0.6308,-0.5559,-0.4688,-0.4242,-0.3965,-0.3796,-0.3299,-0.291,-0.2521,-0.2245,-0.1346,0.0056,0.1459,0.2132,0.2745,0.3352,0.3907,0.4405,0.4791,0.5069,0.5508,0.5837,0.6105,0.6652,0.7139,0.7628,0.8103,0.8421,0.8745,0.8956,0.9166,0.9524,1.0095,1.0659,1.1276,1.1728,1.2126,1.2569,1.2997,1.3382,1.381,1.4326,1.4823,1.5367,1.5944,1.6479,1.6976,1.7421,1.7841,1.8135,1.8557,1.9031,1.9133,1.9021,1.8858,1.8351,1.7664,1.6821,1.6536,1.6509,1.6879,1.7297,1.7707,1.8201,1.8623,1.908,1.9595,2.0124,2.1083,2.2115,2.2813,2.3394,2.4058,2.4769,2.5328,2.5664,2.6182,2.6771,2.699,2.7038,2.7149,2.7382,2.7607,2.7974,2.835,2.8628,2.8929,2.9151,2.9375,2.9532,2.9681,2.9787,2.9855,2.9953,3.0015,3.0083,3.0128,3.0152,3.0194,3.0311,3.0489,3.0807,3.1119,3.1437,3.2032,3.2966,3.339,3.4014,3.4445,3.497,-0.8505,-0.819,-0.7676,-0.7091,-0.6435,-0.55,-0.4904,-0.4574,-0.4408,-0.4132,-0.3793,-0.3466,-0.3023,-0.2635,-0.2303,-0.1346,-0.0168,0.0953,0.1737,0.2408,0.3074,0.3569,0.4012,0.4512,0.4904,0.5289,0.5723,0.6213,0.6815,0.7354,0.7996,0.8468,0.8633,0.8798,0.8857,0.9015,0.9427,0.9947,1.0557,1.1065,1.1628,1.2036,1.248,1.292,1.3286,1.3705,1.4186,1.4686,1.5277,1.5944,1.6534,1.7086,1.7584,1.8029,1.847,1.9232,1.967,1.9931,1.9731,1.9752,1.9403,1.859,1.7911,1.7142,1.6867,1.6812,1.7164,1.7674,1.814,1.8639,1.933,1.9899,2.067,2.1702,2.2624,2.318,2.3828,2.45,2.5192,2.5587,2.5915,2.6118,2.6674,2.6742,2.6742,2.6742,2.6909,2.722,2.7513,2.7911,2.821,2.8529,2.8766,2.8975,2.9212,2.9377,2.9513,2.9645,2.9736,2.9823,2.9874,2.9907,2.9972,3.0186,3.0513,3.0896,3.1309,3.1615,3.1999,3.3093,3.4,3.4262,3.4574,3.498,3.5298,-0.8139,-0.7698,-0.7162,-0.6484,-0.5613,-0.4843,-0.4382,-0.4168,-0.4165,-0.3968,-0.3633,-0.3244,-0.2912,-0.2521,-0.2245,-0.1459,-0.0168,0.0841,0.1626,0.2184,0.2798,0.335,0.3849,0.4346,0.4901,0.5289,0.5782,0.6376,0.6977,0.7681,0.8321,0.8573,0.8745,0.8752,0.8857,0.8956,0.9323,0.9784,1.03,1.0812,1.1377,1.1927,1.2382,1.2822,1.319,1.3621,1.4046,1.464,1.522,1.5888,1.6522,1.7115,1.7666,1.8189,1.9101,1.9872,2.0273,2.0696,2.0851,2.0877,2.0301,1.9668,1.9224,1.8539,1.7843,1.7555,1.7787,1.813,1.8449,1.8852,1.9624,2.0443,2.1491,2.257,2.3122,2.365,2.4304,2.4989,2.5492,2.5937,2.6173,2.6332,2.6468,2.6468,2.6654,2.6957,2.7262,2.7554,2.7688,2.7795,2.797,2.8183,2.8394,2.8597,2.885,2.913,2.9203,2.9349,2.9454,2.9532,2.9626,2.9812,2.9978,3.0349,3.0831,3.1299,3.1824,3.2272,3.2769,3.3805,3.4513,3.463,3.4886,3.5373,3.5659,-0.7775,-0.7204,-0.6577,-0.5678,-0.4725,-0.4275,-0.3915,-0.3614,-0.3601,-0.3508,-0.335,-0.2914,-0.2577,-0.2298,-0.2133,-0.1403,-0.028,0.0729,0.1457,0.2015,0.2631,0.3241,0.3852,0.4408,0.4959,0.5563,0.6164,0.6701,0.7241,0.7889,0.8427,0.8626,0.8745,0.8804,0.8804,0.8962,0.9218,0.9621,0.9991,1.0462,1.1074,1.1628,1.2175,1.2676,1.3142,1.36,1.4118,1.4617,1.5164,1.5788,1.6398,1.7005,1.776,1.8386,1.9498,2.0373,2.0723,2.1312,2.1733,2.1867,2.136,2.0819,2.0348,1.9894,1.9285,1.8235,1.8267,1.8853,1.9252,1.9792,2.0514,2.1008,2.1806,2.2742,2.339,2.3876,2.4458,2.506,2.5486,2.5897,2.6168,2.631,2.65,2.6534,2.6883,2.7231,2.7634,2.7961,2.8112,2.8048,2.8213,2.8294,2.8585,2.8863,2.8799,2.9003,2.8949,2.904,2.9197,2.9251,2.9353,2.964,2.9982,3.0547,3.113,3.1824,3.2383,3.292,3.349,3.4064,3.4616,3.4815,3.5165,3.5585,3.5788,-0.6706,-0.6113,-0.5195,-0.4626,-0.4352,-0.3805,-0.3518,-0.3366,-0.309,-0.3151,-0.3277,-0.2907,-0.2458,-0.2166,-0.1946,-0.1279,-0.0391,0.0556,0.1286,0.1847,0.2464,0.313,0.3796,0.4408,0.5069,0.5723,0.6376,0.7085,0.7783,0.8262,0.8586,0.8745,0.8804,0.8804,0.8804,0.8962,0.9159,0.9517,0.9888,1.0411,1.1124,1.1728,1.2274,1.2666,1.3094,1.3515,1.3978,1.449,1.5028,1.5623,1.6324,1.7131,1.8016,1.8464,1.9469,2.0619,2.0961,2.16,2.2187,2.2406,2.2076,2.1782,2.1437,2.1206,2.0509,1.9224,1.8858,1.96,2.0257,2.0809,2.1278,2.1657,2.2102,2.2897,2.3595,2.4096,2.4539,2.5005,2.547,2.5787,2.6059,2.6338,2.6512,2.685,2.7128,2.7561,2.8044,2.8402,2.8706,2.8795,2.911,2.9207,2.9313,2.9409,2.92,2.9106,2.9179,2.9047,2.9132,2.913,2.9181,2.9776,3.0405,3.0918,3.1509,3.2233,3.3051,3.3866,3.4376,3.459,3.4725,3.4913,3.5103,3.548,3.5666,-0.6039,-0.542,-0.4512,-0.4068,-0.3917,-0.3553,-0.3337,-0.3199,-0.2951,-0.2887,-0.2932,-0.2517,-0.2143,-0.1874,-0.1662,-0.1142,-0.0328,0.0329,0.1106,0.1726,0.2345,0.3019,0.3741,0.4463,0.5226,0.5937,0.6864,0.7676,0.8262,0.8474,0.8633,0.8752,0.8804,0.8811,0.8811,0.8962,0.9159,0.9517,0.9888,1.0506,1.1276,1.1787,1.2224,1.2666,1.3104,1.3488,1.3978,1.449,1.4994,1.5668,1.6355,1.7089,1.7841,1.8279,1.914,2.0122,2.0833,2.1467,2.2178,2.2579,2.2572,2.2324,2.2123,2.1796,2.1702,2.0595,2.0382,2.1019,2.1306,2.184,2.2038,2.2337,2.2789,2.3443,2.3803,2.4147,2.4564,2.4989,2.5378,2.5733,2.6167,2.6743,2.7055,2.7598,2.7961,2.8653,2.9037,2.9321,2.9525,2.9538,2.9867,2.9982,2.9989,2.9812,2.9527,2.947,2.955,2.9387,2.9188,2.961,2.9999,3.0387,3.084,3.1396,3.2009,3.2781,3.3593,3.418,3.4559,3.4661,3.4812,3.5013,3.5184,3.5307,3.5444,-0.5567,-0.4927,-0.4188,-0.3755,-0.3595,-0.3438,-0.3301,-0.313,-0.2835,-0.2625,-0.2432,-0.199,-0.1647,-0.1462,-0.1212,-0.0671,-0.0105,0.0423,0.1078,0.1762,0.2272,0.3056,0.3788,0.4567,0.5441,0.6372,0.73,0.7943,0.8474,0.8633,0.8692,0.8752,0.8811,0.8811,0.8857,0.9008,0.9263,0.9673,1.0146,1.0659,1.1226,1.1772,1.2336,1.2831,1.333,1.3793,1.4294,1.4729,1.52,1.5712,1.6398,1.7089,1.7639,1.8055,1.8789,1.9677,2.0509,2.121,2.1932,2.2509,2.2606,2.2629,2.2509,2.2402,2.2249,2.2128,2.1913,2.2021,2.231,2.2495,2.2649,2.286,2.3275,2.3739,2.3982,2.4223,2.462,2.5084,2.55,2.5859,2.6487,2.713,2.7715,2.826,2.8887,2.9599,3.0074,3.0432,3.0622,3.0443,3.0497,3.0513,3.0441,3.0177,2.9884,2.9878,2.9974,2.9695,2.9609,3.0237,3.0725,3.0902,3.1275,3.1874,3.2537,3.3091,3.3529,3.4,3.4325,3.4542,3.467,3.4773,3.4963,3.5088,3.5207,-0.514,-0.4403,-0.3917,-0.366,-0.3581,-0.3334,-0.3119,-0.29,-0.2556,-0.2244,-0.1987,-0.1712,-0.1514,-0.1563,-0.0958,-0.0406,0.0051,0.0561,0.1252,0.1929,0.2311,0.3059,0.3932,0.4827,0.5769,0.6696,0.7563,0.8043,0.8468,0.8639,0.8752,0.8804,0.8811,0.8857,0.9015,0.9211,0.9517,0.994,1.0462,1.104,1.1617,1.2231,1.2791,1.3445,1.4133,1.4457,1.4838,1.5252,1.5417,1.5778,1.6337,1.6989,1.7406,1.7788,1.8438,1.914,2.0005,2.0869,2.1541,2.2363,2.2606,2.2735,2.2661,2.2678,2.2618,2.2663,2.2543,2.2543,2.2768,2.2737,2.2889,2.2979,2.3348,2.3784,2.4112,2.4425,2.477,2.548,2.6149,2.6649,2.7279,2.7871,2.8415,2.8958,2.946,3.0074,3.0465,3.079,3.0897,3.1004,3.1055,3.097,3.0832,3.0674,3.0415,3.0349,3.0352,3.009,3.0012,3.055,3.0951,3.123,3.1667,3.208,3.2588,3.3096,3.3514,3.368,3.3928,3.413,3.4316,3.4454,3.467,3.4831,3.4926]},{"header":{"parameterUnit":"m.s-1","parameterCategory":1,"la1":31.0,"la2":29.5877,"lo1":-88.7671,"lo2":-86.6584,"dy":0.0162,"dx":0.0185,"nx":115,"ny":88,"refTime":"2023-03-07T06:00:00:Z","depth":0,"parameterNumber":3,"parameterNumberName":"V-component_of_WINDS"},"data":[0.0,0.0,0.0,0.0,0.0,0.0,0.0,0.0,0.0,0.0,0.0,0.0,0.0,0.0,0.0,0.0,0.0,0.0,0.0,0.0,0.0,0.0,0.0,0.0,0.0,0.0,0.0,0.0,0.0,0.0,0.0,0.0,0.0,0.0,0.0,0.0,0.0,0.0,0.0,0.0,0.0,0.0,0.0,0.0,0.0,0.0,0.0,0.0,0.0,0.0,0.0,0.0,0.0,0.0,0.0,0.0,0.0,0.0,0.0,0.0,0.0,0.0,0.0,0.0,0.0,0.0,0.0,0.0,0.0,0.0,0.0,0.0,0.0,0.0,0.0,0.0,0.0,0.0,0.0,0.0,0.0,0.0,0.0,0.0,0.0,0.0,0.0,0.0,0.0,0.0,0.0,0.0,0.0,0.0,0.0,0.0,0.0,0.0,0.0,0.0,0.0,0.0,0.0,0.0,0.0,0.0,0.0,0.0,0.0,0.0,0.0,0.0,0.0,0.0,0.0,0.0,0.0,0.0,0.0,0.0,0.0,0.0,0.0,0.0,0.0,0.0,0.0,0.0,0.0,0.0,0.0,0.0,0.0,0.0,0.0,0.0,0.0,0.0,0.0,0.0,0.0,0.0,0.0,0.0,0.0,0.0,0.0,0.0,0.0,0.0,0.0,0.0,0.0,0.0,0.0,0.0,0.0,0.0,0.0,0.0,0.0,0.0,0.0,0.0,0.0,0.0,0.0,0.0,0.0,0.0,0.0,0.0,0.0,0.0,0.0,0.0,0.0,0.0,0.0,0.0,0.0,0.0,0.0,0.0,0.0,0.0,0.0,0.0,0.0,0.0,0.0,0.0,0.0,0.0,0.0,0.0,0.0,0.0,0.0,0.0,0.0,0.0,0.0,0.0,0.0,0.0,0.0,0.0,0.0,0.0,0.0,0.0,0.0,0.0,0.0,0.0,0.0,0.0,0.0,0.0,0.0,0.0,0.0,0.0,0.0,0.0,0.0,0.0,0.0,0.0,0.0,0.0,0.0,0.0,0.0,0.0,0.0,0.0,0.0,0.0,0.0,0.0,0.0,0.0,0.0,0.0,0.0,0.0,0.0,0.0,0.0,0.0,0.0,0.0,0.0,0.0,0.0,0.0,0.0,0.0,0.0,0.0,0.0,0.0,0.0,0.0,0.0,0.0,0.0,0.0,0.0,0.0,0.0,0.0,0.0,0.0,0.0,0.0,0.0,0.0,0.0,0.0,0.0,0.0,0.0,0.0,0.0,0.0,0.0,0.0,0.0,0.0,0.0,0.0,0.0,0.0,0.0,0.0,0.0,0.0,0.0,0.0,0.0,0.0,0.0,0.0,0.0,0.0,0.0,0.0,0.0,0.0,0.0,0.0,0.0,0.0,0.0,0.0,0.0,0.0,0.0,0.0,0.0,0.0,0.0,0.0,0.0,0.0,0.0,0.0,0.0,0.0,0.0,0.0,0.0,0.0,0.0,0.0,0.0,0.0,0.0,0.0,0.0,0.0,0.0,0.0,0.0,0.0,0.0,0.0,0.0,0.0,0.0,0.0,0.0,0.0,0.0,0.0,0.0,0.0,0.0,0.0,0.0,0.0,0.0,0.0,0.0,0.0,0.0,0.0,0.0,0.0,0.0,0.0,0.0,0.0,0.0,0.0,0.0,0.0,0.0,0.0,0.0,0.0,0.0,0.0,0.0,0.0,0.0,0.0,0.0,0.0,0.0,0.0,0.0,0.0,0.0,0.0,0.0,0.0,0.0,0.0,0.0,0.0,0.0,0.0,0.0,0.0,0.0,0.0,0.0,0.0,0.0,0.0,0.0,0.0,0.0,0.0,0.0,0.0,0.0,0.0,0.0,0.0,0.0,0.0,0.0,0.0,0.0,0.0,0.0,0.0,0.0,0.0,0.0,0.0,0.0,0.0,0.0,0.0,0.0,0.0,0.0,0.0,0.0,0.0,0.0,0.0,0.0,0.0,0.0,0.0,0.0,0.0,0.0,0.0,0.0,0.0,0.0,0.0,0.0,0.0,0.0,0.0,0.0,0.0,0.0,0.0,0.0,0.0,0.0,0.0,0.0,0.0,0.0,0.0,0.0,0.0,0.0,0.0,0.0,0.0,0.0,0.0,0.0,0.0,0.0,0.0,0.0,0.0,0.0,0.0,0.0,0.0,0.0,0.0,0.0,0.0,0.0,0.0,0.0,0.0,0.0,0.0,0.0,0.0,0.0,0.0,0.0,0.0,0.0,0.0,0.0,0.0,0.0,0.0,0.0,0.0,0.0,0.0,0.0,0.0,0.0,0.0,0.0,0.0,0.0,0.0,0.0,0.0,0.0,0.0,0.0,0.0,0.0,0.0,0.0,0.0,0.0,0.0,0.0,0.0,0.0,0.0,0.0,0.0,0.0,0.0,0.0,0.0,0.0,0.0,0.0,0.0,0.0,0.0,0.0,0.0,0.0,0.0,0.0,0.0,0.0,0.0,0.0,0.0,0.0,0.0,0.0,0.0,0.0,0.0,0.0,0.0,0.0,0.0,0.0,0.0,0.0,0.0,0.0,0.0,0.0,0.0,0.0,0.0,0.0,0.0,0.0,0.0,0.0,0.0,0.0,0.0,0.0,0.0,0.0,0.0,0.0,0.0,0.0,0.0,0.0,0.0,0.0,0.0,0.0,0.0,0.0,0.0,0.0,0.0,0.0,0.0,0.0,0.0,0.0,0.0,0.0,0.0,0.0,0.0,0.0,0.0,0.0,0.0,0.0,0.0,0.0,0.0,0.0,0.0,0.0,0.0,0.0,0.0,0.0,0.0,0.0,0.0,0.0,0.0,0.0,0.0,0.0,0.0,0.0,0.0,0.0,0.0,0.0,0.0,0.0,0.0,0.0,0.0,0.0,0.0,0.0,0.0,0.0,0.0,0.0,0.0,0.0,0.0,0.0,0.0,0.0,0.0,0.0,0.0,0.0,0.0,0.0,0.0,0.0,0.0,0.0,0.0,0.0,0.0,0.0,0.0,0.0,0.0,0.0,0.0,0.0,0.0,0.0,0.0,0.0,0.0,0.0,0.0,0.0,0.0,0.0,0.0,0.0,0.0,0.0,0.0,0.0,0.0,0.0,0.0,0.0,0.0,0.0,0.0,0.0,0.0,0.0,0.0,0.0,0.0,0.0,0.0,0.0,0.0,0.0,0.0,0.0,0.0,0.0,0.0,0.0,0.0,0.0,0.0,0.0,0.0,0.0,0.0,0.0,0.0,0.0,0.0,0.0,0.0,0.0,0.0,0.0,0.0,0.0,0.0,0.0,0.0,0.0,0.0,0.0,0.0,0.0,0.0,0.0,0.0,0.0,0.0,0.0,0.0,0.0,0.0,0.0,0.0,0.0,0.0,0.0,0.0,0.0,0.0,0.0,0.0,0.0,0.0,0.0,0.0,0.0,0.0,0.0,0.0,0.0,0.0,0.0,0.0,0.0,0.0,0.0,0.0,0.0,0.0,0.0,0.0,0.0,0.0,0.0,0.0,0.0,0.0,0.0,0.0,0.0,0.0,0.0,0.0,0.0,0.0,0.0,0.0,0.0,0.0,0.0,0.0,0.0,0.0,0.0,0.0,0.0,0.0,0.0,0.0,0.0,0.0,0.0,0.0,0.0,0.0,0.0,0.0,0.0,0.0,0.0,0.0,0.0,0.0,0.0,0.0,0.0,0.0,0.0,0.0,0.0,0.0,0.0,0.0,0.0,0.0,0.0,0.0,0.0,0.0,0.0,0.0,0.0,0.0,0.0,0.0,0.0,0.0,0.0,0.0,0.0,0.0,0.0,0.0,0.0,0.0,0.0,0.0,0.0,0.0,0.0,0.0,0.0,0.0,0.0,0.0,0.0,0.0,0.0,0.0,0.0,0.0,0.0,0.0,0.0,0.0,0.0,0.0,0.0,0.0,0.0,0.0,0.0,0.0,0.0,0.0,0.0,0.0,0.0,0.0,0.0,0.0,0.0,0.0,0.0,0.0,0.0,0.0,0.0,0.0,0.0,0.0,0.0,0.0,0.0,0.0,0.0,0.0,0.0,0.0,0.0,0.0,0.0,0.0,0.0,0.0,0.0,0.0,0.0,0.0,0.0,0.0,0.0,0.0,0.0,0.0,0.0,0.0,0.0,0.0,0.0,0.0,0.0,0.0,0.0,0.0,0.0,0.0,0.0,0.0,0.0,0.0,0.0,0.0,0.0,0.0,0.0,0.0,0.0,0.0,0.0,0.0,0.0,0.0,3.1118,0.0,0.0,0.0,0.0,0.0,0.0,0.0,0.0,0.0,0.0,0.0,0.0,0.0,0.0,0.0,0.0,0.0,0.0,0.0,0.0,0.0,0.0,0.0,0.0,0.0,0.0,0.0,0.0,0.0,0.0,0.0,0.0,0.0,0.0,0.0,0.0,0.0,0.0,0.0,0.0,0.0,0.0,0.0,0.0,0.0,0.0,0.0,0.0,0.0,0.0,0.0,0.0,0.0,0.0,0.0,0.0,0.0,0.0,0.0,0.0,0.0,0.0,0.0,0.0,0.0,0.0,0.0,0.0,0.0,0.0,0.0,0.0,0.0,0.0,0.0,0.0,0.0,0.0,0.0,0.0,0.0,0.0,0.0,0.0,0.0,0.0,0.0,0.0,0.0,0.0,0.0,0.0,0.0,0.0,0.0,0.0,0.0,0.0,0.0,0.0,0.0,0.0,0.0,0.0,0.0,0.0,0.0,0.0,0.0,0.0,2.6281,2.6729,2.7829,2.8868,2.982,0.0,0.0,0.0,0.0,0.0,0.0,0.0,0.0,0.0,0.0,0.0,0.0,0.0,0.0,0.0,0.0,0.0,0.0,0.0,0.0,0.0,0.0,0.0,0.0,0.0,0.0,0.0,0.0,0.0,0.0,0.0,0.0,0.0,0.0,0.0,0.0,0.0,0.0,0.0,0.0,0.0,0.0,0.0,0.0,0.0,0.0,0.0,0.0,0.0,0.0,0.0,0.0,0.0,0.0,0.0,0.0,0.0,0.0,0.0,0.0,0.0,0.0,0.0,0.0,0.0,0.0,0.0,0.0,0.0,0.0,0.0,0.0,0.0,0.0,0.0,0.0,0.0,0.0,0.0,0.0,0.0,0.0,0.0,0.0,0.0,0.0,0.0,0.0,0.0,0.0,0.0,0.0,0.0,0.0,0.0,0.0,0.0,0.0,0.0,0.0,0.0,0.0,0.0,0.0,0.0,0.0,0.0,0.0,0.0,0.0,0.0,0.0,2.7169,2.8307,2.9065,0.0,0.0,0.0,0.0,0.0,0.0,0.0,0.0,0.0,0.0,0.0,0.0,0.0,0.0,0.0,0.0,0.0,0.0,0.0,0.0,0.0,0.0,0.0,0.0,0.0,0.0,0.0,0.0,0.0,0.0,0.0,0.0,0.0,0.0,0.0,0.0,0.0,0.0,0.0,0.0,0.0,0.0,0.0,0.0,0.0,0.0,0.0,0.0,0.0,0.0,0.0,0.0,0.0,0.0,0.0,0.0,0.0,0.0,0.0,0.0,0.0,0.0,0.0,0.0,0.0,0.0,0.0,0.0,0.0,0.0,0.0,0.0,0.0,0.0,0.0,0.0,0.0,0.0,0.0,0.0,0.0,0.0,0.0,0.0,0.0,0.0,0.0,0.0,0.0,0.0,0.0,0.0,0.0,0.0,0.0,0.0,0.0,0.0,0.0,0.0,0.0,0.0,0.0,0.0,0.0,0.0,0.0,0.0,0.0,0.0,2.5013,2.5847,2.6113,0.0,2.9985,0.0,0.0,0.0,0.0,0.0,0.0,0.0,0.0,0.0,0.0,0.0,0.0,0.0,0.0,0.0,0.0,0.0,0.0,0.0,0.0,0.0,0.0,0.0,0.0,0.0,0.0,0.0,0.0,0.0,0.0,0.0,0.0,0.0,0.0,0.0,0.0,0.0,0.0,0.0,0.0,0.0,0.0,0.0,0.0,0.0,0.0,0.0,0.0,0.0,0.0,0.0,0.0,0.0,0.0,0.0,0.0,0.0,0.0,0.0,0.0,0.0,0.0,0.0,0.0,0.0,0.0,0.0,0.0,0.0,0.0,0.0,0.0,0.0,0.0,0.0,0.0,0.0,0.0,0.0,0.0,0.0,0.0,0.0,0.0,0.0,0.0,0.0,0.0,0.0,0.0,0.0,0.0,0.0,0.0,0.0,0.0,0.0,0.0,0.0,0.0,0.0,0.0,0.0,0.0,0.0,0.0,0.0,0.0,0.0,0.0,2.4797,2.5182,2.5838,2.7241,0.0,0.0,0.0,0.0,0.0,0.0,0.0,0.0,0.0,0.0,0.0,0.0,0.0,0.0,0.0,0.0,0.0,0.0,0.0,0.0,0.0,0.0,0.0,0.0,0.0,0.0,0.0,0.0,0.0,0.0,0.0,0.0,0.0,0.0,0.0,0.0,0.0,0.0,0.0,0.0,0.0,0.0,0.0,0.0,0.0,0.0,0.0,0.0,0.0,0.0,0.0,0.0,0.0,0.0,0.0,0.0,0.0,0.0,0.0,0.0,0.0,0.0,0.0,0.0,0.0,0.0,0.0,0.0,0.0,0.0,0.0,0.0,0.0,0.0,0.0,0.0,0.0,0.0,0.0,0.0,0.0,0.0,0.0,0.0,0.0,0.0,0.0,0.0,0.0,0.0,0.0,0.0,0.0,0.0,0.0,0.0,0.0,0.0,0.0,0.0,0.0,0.0,0.0,0.0,0.0,0.0,0.0,0.0,0.0,0.0,2.4726,2.4742,2.4802,2.5763,2.6963,2.8353,0.0,0.0,0.0,0.0,0.0,0.0,0.0,0.0,0.0,0.0,0.0,0.0,0.0,0.0,0.0,0.0,0.0,0.0,0.0,0.0,0.0,0.0,0.0,0.0,0.0,0.0,0.0,0.0,0.0,0.0,0.0,0.0,0.0,0.0,0.0,0.0,0.0,0.0,0.0,0.0,0.0,0.0,0.0,0.0,0.0,0.0,0.0,0.0,0.0,0.0,0.0,0.0,0.0,0.0,0.0,0.0,0.0,0.0,0.0,0.0,0.0,0.0,0.0,0.0,0.0,0.0,0.0,0.0,0.0,0.0,0.0,0.0,0.0,0.0,0.0,0.0,0.0,0.0,0.0,0.0,0.0,0.0,0.0,0.0,0.0,0.0,0.0,0.0,0.0,0.0,0.0,0.0,0.0,0.0,0.0,0.0,0.0,0.0,0.0,0.0,0.0,0.0,0.0,0.0,0.0,0.0,0.0,0.0,2.4813,2.4794,2.4823,2.4888,2.5798,2.6428,0.0,0.0,0.0,0.0,0.0,0.0,0.0,0.0,0.0,0.0,0.0,0.0,0.0,0.0,0.0,0.0,0.0,0.0,0.0,0.0,0.0,0.0,0.0,0.0,0.0,0.0,0.0,0.0,0.0,0.0,0.0,0.0,0.0,0.0,0.0,0.0,0.0,0.0,0.0,0.0,0.0,0.0,0.0,0.0,0.0,0.0,0.0,0.0,0.0,0.0,0.0,0.0,0.0,0.0,0.0,0.0,0.0,0.0,0.0,0.0,0.0,0.0,0.0,0.0,0.0,0.0,0.0,0.0,0.0,0.0,0.0,0.0,0.0,0.0,0.0,0.0,0.0,0.0,0.0,0.0,0.0,0.0,0.0,0.0,0.0,0.0,0.0,0.0,0.0,0.0,0.0,0.0,0.0,0.0,0.0,0.0,0.0,0.0,0.0,0.0,0.0,0.0,0.0,0.0,0.0,0.0,0.0,0.0,0.0,2.5004,2.4959,2.4953,2.5025,2.5348,2.5853,0.0,0.0,0.0,0.0,0.0,0.0,0.0,0.0,0.0,0.0,0.0,0.0,0.0,0.0,0.0,0.0,0.0,0.0,0.0,0.0,0.0,0.0,0.0,0.0,0.0,0.0,0.0,0.0,0.0,0.0,0.0,0.0,0.0,0.0,0.0,0.0,0.0,0.0,0.0,0.0,0.0,0.0,0.0,0.0,0.0,0.0,0.0,0.0,0.0,0.0,0.0,0.0,0.0,0.0,0.0,0.0,0.0,0.0,0.0,0.0,0.0,0.0,0.0,0.0,0.0,0.0,0.0,0.0,0.0,0.0,0.0,0.0,0.0,0.0,0.0,0.0,0.0,0.0,0.0,0.0,0.0,0.0,0.0,0.0,0.0,0.0,0.0,0.0,0.0,0.0,0.0,0.0,0.0,0.0,0.0,0.0,0.0,0.0,0.0,0.0,0.0,0.0,0.0,0.0,0.0,0.0,0.0,0.0,0.0,2.4307,0.0,2.4385,2.4695,2.4717,2.5149,0.0,0.0,0.0,0.0,0.0,0.0,0.0,0.0,0.0,0.0,0.0,0.0,0.0,0.0,0.0,0.0,0.0,0.0,0.0,0.0,0.0,0.0,0.0,0.0,0.0,0.0,0.0,0.0,0.0,0.0,0.0,0.0,0.0,0.0,0.0,0.0,0.0,0.0,0.0,0.0,0.0,0.0,0.0,0.0,0.0,0.0,0.0,0.0,0.0,0.0,0.0,0.0,0.0,0.0,0.0,0.0,0.0,0.0,0.0,0.0,0.0,0.0,0.0,0.0,0.0,0.0,0.0,0.0,0.0,0.0,0.0,0.0,0.0,0.0,0.0,0.0,0.0,0.0,0.0,0.0,0.0,0.0,0.0,0.0,0.0,0.0,0.0,0.0,0.0,0.0,0.0,0.0,0.0,0.0,0.0,0.0,0.0,0.0,0.0,0.0,0.0,0.0,0.0,0.0,0.0,0.0,0.0,0.0,2.3378,2.2675,2.2653,2.3099,2.3873,2.3946,2.4334,0.0,0.0,0.0,0.0,0.0,0.0,0.0,0.0,0.0,0.0,0.0,0.0,0.0,0.0,0.0,0.0,0.0,0.0,0.0,0.0,0.0,0.0,0.0,0.0,0.0,0.0,0.0,0.0,0.0,0.0,0.0,0.0,0.0,0.0,0.0,0.0,0.0,0.0,0.0,0.0,0.0,0.0,0.0,0.0,0.0,0.0,0.0,0.0,0.0,0.0,0.0,0.0,0.0,0.0,0.0,0.0,0.0,0.0,0.0,0.0,0.0,0.0,0.0,0.0,0.0,0.0,0.0,0.0,0.0,0.0,0.0,0.0,0.0,0.0,0.0,0.0,0.0,0.0,0.0,0.0,0.0,0.0,0.0,0.0,0.0,0.0,0.0,0.0,0.0,0.0,0.0,0.0,0.0,0.0,0.0,0.0,0.0,0.0,0.0,0.0,0.0,0.0,0.0,0.0,0.0,0.0,0.0,0.0,0.0,2.264,2.267,2.3091,2.3924,2.3964,2.4378,0.0,0.0,0.0,0.0,0.0,0.0,0.0,0.0,0.0,0.0,0.0,0.0,0.0,0.0,0.0,0.0,0.0,0.0,0.0,0.0,0.0,0.0,0.0,0.0,0.0,0.0,0.0,0.0,0.0,0.0,0.0,0.0,0.0,0.0,0.0,0.0,0.0,0.0,0.0,0.0,0.0,0.0,0.0,0.0,0.0,0.0,0.0,0.0,0.0,0.0,0.0,0.0,0.0,0.0,0.0,0.0,0.0,0.0,0.0,0.0,0.0,0.0,0.0,0.0,0.0,0.0,0.0,0.0,0.0,0.0,0.0,0.0,0.0,0.0,0.0,0.0,0.0,0.0,0.0,0.0,0.0,0.0,0.0,0.0,0.0,0.0,0.0,0.0,0.0,0.0,0.0,0.0,0.0,0.0,0.0,0.0,0.0,0.0,0.0,0.0,0.0,0.0,0.0,0.0,0.0,0.0,0.0,0.0,0.0,2.1694,2.1752,2.2326,2.3486,2.3525,2.4092,2.5245,0.0,0.0,0.0,0.0,0.0,0.0,0.0,0.0,0.0,0.0,0.0,0.0,0.0,0.0,0.0,0.0,0.0,0.0,0.0,0.0,0.0,0.0,0.0,0.0,0.0,0.0,0.0,0.0,0.0,0.0,0.0,0.0,0.0,0.0,0.0,0.0,0.0,0.0,0.0,0.0,0.0,0.0,0.0,0.0,0.0,0.0,0.0,0.0,0.0,0.0,0.0,0.0,0.0,0.0,0.0,0.0,0.0,0.0,0.0,0.0,0.0,0.0,0.0,0.0,0.0,0.0,0.0,0.0,0.0,0.0,0.0,0.0,0.0,0.0,0.0,0.0,0.0,0.0,0.0,0.0,0.0,0.0,0.0,0.0,0.0,0.0,0.0,0.0,0.0,0.0,0.0,0.0,0.0,0.0,0.0,0.0,0.0,0.0,0.0,0.0,0.0,0.0,0.0,0.0,0.0,0.0,0.0,0.0,2.0108,2.022,2.107,2.2662,2.2844,2.3659,0.0,0.0,0.0,0.0,0.0,0.0,0.0,0.0,0.0,0.0,0.0,0.0,0.0,0.0,0.0,0.0,0.0,0.0,0.0,0.0,0.0,0.0,0.0,0.0,0.0,0.0,0.0,0.0,0.0,0.0,0.0,0.0,0.0,0.0,0.0,0.0,0.0,0.0,0.0,0.0,0.0,0.0,0.0,0.0,0.0,0.0,0.0,0.0,0.0,0.0,0.0,0.0,0.0,0.0,0.0,0.0,0.0,0.0,0.0,0.0,0.0,0.0,0.0,0.0,0.0,0.0,0.0,0.0,0.0,0.0,0.0,0.0,0.0,0.0,0.0,0.0,0.0,0.0,0.0,0.0,0.0,0.0,0.0,0.0,0.0,0.0,0.0,0.0,0.0,0.0,0.0,0.0,0.0,0.0,0.0,0.0,0.0,0.0,0.0,0.0,0.0,0.0,0.0,0.0,0.0,0.0,0.0,0.0,0.0,2.0059,2.0728,2.1627,2.2728,2.3409,2.4255,0.0,0.0,0.0,0.0,0.0,0.0,0.0,0.0,0.0,0.0,0.0,0.0,0.0,0.0,0.0,0.0,0.0,0.0,0.0,0.0,0.0,0.0,0.0,0.0,0.0,0.0,0.0,0.0,0.0,0.0,0.0,0.0,0.0,0.0,0.0,0.0,0.0,0.0,0.0,0.0,0.0,0.0,0.0,0.0,0.0,0.0,0.0,0.0,0.0,0.0,0.0,0.0,0.0,0.0,0.0,0.0,0.0,0.0,0.0,0.0,0.0,0.0,0.0,0.0,0.0,0.0,0.0,0.0,0.0,0.0,0.0,0.0,0.0,0.0,0.0,0.0,0.0,0.0,0.0,0.0,0.0,0.0,0.0,0.0,0.0,0.0,0.0,0.0,0.0,0.0,0.0,0.0,0.0,0.0,0.0,0.0,0.0,0.0,0.0,0.0,0.0,0.0,0.0,0.0,0.0,0.0,0.0,0.0,2.0186,1.9955,2.1543,2.2494,2.27,2.3592,2.4447,0.0,0.0,0.0,0.0,0.0,0.0,0.0,0.0,0.0,0.0,0.0,0.0,0.0,0.0,0.0,0.0,0.0,0.0,0.0,0.0,0.0,0.0,0.0,0.0,0.0,0.0,0.0,0.0,0.0,0.0,0.0,0.0,0.0,0.0,0.0,0.0,0.0,0.0,0.0,0.0,0.0,0.0,0.0,0.0,0.0,0.0,0.0,0.0,0.0,0.0,0.0,0.0,0.0,0.0,0.0,0.0,0.0,0.0,0.0,0.0,0.0,0.0,0.0,0.0,0.0,0.0,0.0,0.0,0.0,0.0,0.0,0.0,0.0,0.0,0.0,0.0,0.0,0.0,0.0,0.0,0.0,0.0,0.0,0.0,0.0,0.0,0.0,0.0,0.0,0.0,0.0,0.0,0.0,0.0,0.0,0.0,0.0,0.0,0.0,0.0,0.0,0.0,0.0,0.0,0.0,0.0,0.0,0.0,2.0418,1.9832,2.2236,2.3187,2.2511,2.3531,2.4474,0.0,0.0,0.0,0.0,0.0,0.0,0.0,0.0,0.0,0.0,0.0,0.0,0.0,0.0,0.0,0.0,0.0,0.0,0.0,0.0,0.0,0.0,0.0,0.0,0.0,0.0,0.0,0.0,0.0,0.0,0.0,0.0,0.0,0.0,0.0,0.0,0.0,0.0,0.0,0.0,0.0,0.0,0.0,0.0,0.0,0.0,0.0,0.0,0.0,0.0,0.0,0.0,0.0,0.0,0.0,0.0,0.0,0.0,0.0,0.0,0.0,0.0,0.0,0.0,0.0,0.0,0.0,0.0,0.0,0.0,0.0,0.0,0.0,0.0,0.0,0.0,0.0,0.0,0.0,0.0,0.0,0.0,0.0,0.0,0.0,0.0,0.0,0.0,0.0,0.0,0.0,0.0,0.0,0.0,0.0,0.0,0.0,0.0,0.0,0.0,0.0,0.0,0.0,0.0,0.0,0.0,0.0,0.0,1.9643,1.9673,2.0973,2.1625,2.1498,2.3686,2.4977,0.0,0.0,0.0,0.0,0.0,0.0,0.0,0.0,0.0,0.0,0.0,0.0,0.0,0.0,0.0,0.0,0.0,0.0,0.0,0.0,0.0,0.0,0.0,0.0,0.0,0.0,0.0,0.0,0.0,0.0,0.0,0.0,0.0,0.0,0.0,0.0,0.0,0.0,0.0,0.0,0.0,0.0,0.0,0.0,0.0,0.0,0.0,0.0,3.5884,0.0,0.0,0.0,0.0,0.0,0.0,0.0,0.0,0.0,0.0,0.0,0.0,0.0,0.0,0.0,0.0,0.0,0.0,0.0,0.0,0.0,0.0,0.0,0.0,0.0,0.0,0.0,0.0,0.0,0.0,0.0,0.0,0.0,0.0,0.0,0.0,0.0,0.0,0.0,0.0,0.0,0.0,0.0,0.0,0.0,0.0,0.0,0.0,0.0,0.0,0.0,0.0,0.0,0.0,0.0,0.0,0.0,0.0,0.0,1.8254,1.8855,1.9819,2.0589,2.1105,2.2811,2.3992,0.0,0.0,0.0,0.0,0.0,0.0,0.0,0.0,0.0,0.0,0.0,0.0,0.0,0.0,0.0,0.0,0.0,0.0,0.0,0.0,0.0,0.0,0.0,0.0,0.0,0.0,0.0,0.0,0.0,0.0,0.0,0.0,0.0,0.0,0.0,0.0,0.0,0.0,0.0,0.0,0.0,0.0,0.0,0.0,0.0,0.0,0.0,0.0,0.0,0.0,0.0,0.0,0.0,0.0,0.0,0.0,0.0,0.0,0.0,0.0,0.0,0.0,0.0,0.0,0.0,0.0,0.0,0.0,0.0,0.0,0.0,0.0,0.0,0.0,0.0,0.0,0.0,0.0,0.0,0.0,0.0,0.0,0.0,0.0,0.0,0.0,0.0,0.0,0.0,0.0,0.0,0.0,0.0,0.0,0.0,0.0,0.0,0.0,0.0,0.0,0.0,0.0,0.0,0.0,0.0,0.0,0.0,1.6653,1.6874,1.7763,1.8617,1.9513,2.0443,2.134,2.2257,2.3303,0.0,0.0,0.0,0.0,0.0,0.0,0.0,0.0,0.0,0.0,0.0,0.0,0.0,0.0,0.0,0.0,0.0,0.0,0.0,0.0,0.0,0.0,0.0,0.0,0.0,0.0,0.0,0.0,0.0,0.0,0.0,0.0,0.0,0.0,0.0,0.0,0.0,0.0,3.0045,3.1108,0.0,0.0,0.0,0.0,0.0,0.0,0.0,0.0,3.6289,0.0,0.0,0.0,0.0,0.0,0.0,0.0,0.0,0.0,0.0,0.0,0.0,0.0,0.0,0.0,0.0,0.0,0.0,0.0,0.0,0.0,0.0,0.0,0.0,0.0,0.0,0.0,0.0,0.0,0.0,0.0,0.0,0.0,0.0,0.0,0.0,0.0,0.0,0.0,0.0,0.0,0.0,0.0,0.0,0.0,0.0,0.0,0.0,0.0,0.0,0.0,0.0,0.0,0.0,0.0,0.0,1.5872,1.6063,1.6355,1.6736,1.7013,1.7613,1.855,1.9448,2.0336,2.1216,0.0,0.0,0.0,0.0,0.0,0.0,0.0,0.0,0.0,0.0,0.0,0.0,0.0,0.0,0.0,0.0,0.0,0.0,0.0,0.0,0.0,0.0,0.0,0.0,0.0,0.0,0.0,0.0,0.0,0.0,0.0,0.0,0.0,0.0,0.0,0.0,0.0,0.0,0.0,3.1275,3.2019,0.0,0.0,0.0,0.0,0.0,0.0,0.0,0.0,3.7665,0.0,0.0,0.0,0.0,0.0,0.0,0.0,0.0,0.0,0.0,0.0,0.0,0.0,0.0,0.0,0.0,0.0,0.0,0.0,0.0,0.0,0.0,0.0,0.0,0.0,0.0,0.0,0.0,0.0,0.0,0.0,0.0,0.0,0.0,0.0,0.0,0.0,0.0,0.0,0.0,0.0,0.0,0.0,0.0,0.0,0.0,0.0,0.0,0.0,0.0,0.0,0.0,0.0,0.0,0.0,1.4662,1.4618,1.4934,1.56,1.5742,1.6286,1.7231,1.814,1.8822,0.0,0.0,0.0,0.0,0.0,0.0,0.0,0.0,0.0,0.0,0.0,0.0,0.0,0.0,0.0,0.0,0.0,0.0,0.0,0.0,0.0,0.0,0.0,0.0,0.0,0.0,0.0,0.0,0.0,0.0,0.0,0.0,0.0,0.0,0.0,0.0,0.0,0.0,0.0,0.0,3.1578,3.2125,3.3209,0.0,0.0,0.0,0.0,0.0,0.0,3.7442,3.8063,0.0,0.0,0.0,0.0,0.0,0.0,0.0,0.0,0.0,0.0,0.0,0.0,0.0,0.0,0.0,0.0,0.0,0.0,0.0,0.0,0.0,0.0,0.0,0.0,0.0,0.0,0.0,0.0,0.0,0.0,0.0,0.0,0.0,0.0,0.0,0.0,0.0,0.0,0.0,0.0,0.0,0.0,0.0,0.0,0.0,0.0,0.0,0.0,0.0,0.0,0.0,0.0,0.0,0.0,0.0,1.3631,1.3139,1.3396,1.4401,1.4444,1.5002,1.6132,1.7,1.7549,0.0,0.0,0.0,0.0,0.0,0.0,0.0,0.0,0.0,0.0,0.0,0.0,0.0,0.0,0.0,0.0,0.0,0.0,0.0,0.0,0.0,0.0,0.0,0.0,0.0,0.0,0.0,0.0,0.0,0.0,0.0,0.0,0.0,0.0,0.0,0.0,0.0,0.0,0.0,0.0,0.0,3.2384,3.3573,3.4009,0.0,0.0,0.0,0.0,3.7662,3.8085,0.0,0.0,0.0,0.0,0.0,0.0,0.0,0.0,0.0,0.0,0.0,0.0,0.0,0.0,0.0,0.0,0.0,0.0,0.0,0.0,0.0,0.0,0.0,0.0,0.0,0.0,0.0,0.0,0.0,0.0,0.0,0.0,0.0,0.0,0.0,0.0,0.0,0.0,0.0,0.0,0.0,0.0,0.0,0.0,0.0,0.0,0.0,0.0,0.0,0.0,0.0,0.0,0.0,0.0,0.0,0.0,1.3075,1.2237,1.2231,1.3121,1.282,1.3367,1.4949,1.5801,1.6571,0.0,0.0,0.0,0.0,0.0,0.0,0.0,0.0,0.0,0.0,0.0,0.0,0.0,0.0,0.0,0.0,0.0,0.0,0.0,0.0,0.0,0.0,0.0,0.0,0.0,0.0,0.0,0.0,0.0,0.0,0.0,0.0,0.0,0.0,0.0,0.0,0.0,0.0,0.0,0.0,0.0,3.2742,3.2927,3.4252,3.5284,0.0,0.0,3.7783,3.804,3.8726,0.0,0.0,0.0,0.0,0.0,0.0,0.0,0.0,0.0,0.0,0.0,0.0,0.0,0.0,0.0,0.0,0.0,0.0,0.0,0.0,0.0,0.0,0.0,0.0,0.0,0.0,0.0,0.0,0.0,0.0,0.0,0.0,0.0,0.0,0.0,0.0,0.0,0.0,0.0,0.0,0.0,0.0,0.0,0.0,0.0,0.0,0.0,0.0,0.0,0.0,0.0,0.0,0.0,0.0,0.0,1.2432,1.2082,1.155,1.1706,1.2606,1.2238,1.259,1.3751,1.4993,1.5891,0.0,0.0,0.0,0.0,0.0,0.0,0.0,0.0,0.0,0.0,0.0,0.0,0.0,0.0,0.0,0.0,0.0,0.0,0.0,0.0,0.0,0.0,0.0,0.0,0.0,0.0,0.0,0.0,0.0,0.0,0.0,0.0,0.0,0.0,0.0,0.0,0.0,0.0,0.0,0.0,0.0,0.0,3.3525,3.4717,0.0,0.0,0.0,3.8383,3.8877,0.0,0.0,0.0,0.0,0.0,0.0,0.0,0.0,0.0,0.0,0.0,0.0,0.0,0.0,0.0,0.0,0.0,0.0,0.0,0.0,0.0,0.0,0.0,0.0,0.0,0.0,0.0,0.0,0.0,0.0,0.0,0.0,0.0,0.0,0.0,0.0,0.0,0.0,0.0,0.0,0.0,0.0,0.0,0.0,0.0,0.0,0.0,0.0,0.0,0.0,0.0,0.0,0.0,0.0,0.0,0.0,0.0,1.1603,1.1072,1.1282,1.2218,1.1864,1.2065,1.2875,1.4404,0.0,0.0,0.0,0.0,0.0,0.0,0.0,0.0,0.0,0.0,0.0,0.0,0.0,0.0,0.0,0.0,0.0,0.0,0.0,0.0,0.0,0.0,0.0,0.0,0.0,0.0,0.0,2.421,0.0,0.0,0.0,0.0,0.0,0.0,0.0,0.0,0.0,0.0,0.0,0.0,0.0,0.0,3.3457,3.4396,3.5317,3.6254,0.0,0.0,3.8968,3.9552,3.9689,3.9689,0.0,0.0,0.0,0.0,0.0,0.0,0.0,0.0,0.0,0.0,0.0,0.0,0.0,0.0,0.0,0.0,0.0,0.0,0.0,0.0,0.0,0.0,0.0,0.0,0.0,0.0,0.0,0.0,0.0,0.0,0.0,0.0,0.0,0.0,0.0,0.0,0.0,0.0,0.0,0.0,0.0,0.0,0.0,0.0,0.0,0.0,0.0,0.0,0.0,0.0,0.0,0.0,0.0,0.0,0.0,1.207,1.0884,1.0791,1.1873,1.1482,1.1665,1.2537,1.4031,1.4875,0.0,0.0,0.0,0.0,0.0,0.0,0.0,0.0,0.0,0.0,0.0,0.0,0.0,0.0,0.0,0.0,0.0,0.0,0.0,0.0,0.0,0.0,0.0,0.0,0.0,0.0,0.0,0.0,0.0,0.0,0.0,0.0,0.0,0.0,0.0,0.0,0.0,0.0,0.0,0.0,0.0,3.4271,3.5274,3.6267,3.7197,0.0,0.0,3.9705,3.9762,3.9804,3.9758,3.9642,0.0,0.0,0.0,0.0,0.0,0.0,0.0,0.0,0.0,0.0,0.0,0.0,0.0,0.0,0.0,0.0,0.0,0.0,0.0,0.0,0.0,0.0,0.0,0.0,0.0,0.0,0.0,0.0,0.0,0.0,0.0,0.0,0.0,0.0,0.0,0.0,0.0,0.0,0.0,0.0,0.0,0.0,0.0,0.0,0.0,0.0,0.0,0.0,0.0,0.0,0.0,0.0,0.0,1.0359,1.0817,1.0089,1.0247,1.1349,1.1064,1.1495,1.2793,1.3897,1.4656,0.0,0.0,0.0,0.0,0.0,0.0,0.0,0.0,0.0,0.0,0.0,0.0,0.0,0.0,0.0,0.0,0.0,0.0,0.0,0.0,0.0,0.0,0.0,0.0,0.0,0.0,0.0,0.0,2.419,2.4832,2.6429,0.0,0.0,0.0,0.0,0.0,0.0,0.0,0.0,0.0,0.0,3.4388,3.5466,3.6438,0.0,0.0,3.9296,3.9933,3.9914,3.9889,4.0012,4.0339,4.0757,0.0,0.0,0.0,0.0,0.0,0.0,0.0,0.0,0.0,0.0,0.0,0.0,0.0,0.0,0.0,0.0,0.0,0.0,0.0,0.0,0.0,0.0,0.0,0.0,0.0,0.0,0.0,0.0,0.0,0.0,0.0,0.0,0.0,0.0,0.0,0.0,0.0,0.0,0.0,0.0,0.0,0.0,0.0,0.0,0.0,0.0,0.0,0.0,0.0,0.0,0.0,0.0,0.9157,0.9751,0.9496,0.9867,1.0883,1.0827,1.1446,1.2809,1.3654,1.4383,0.0,0.0,0.0,0.0,0.0,0.0,0.0,0.0,0.0,0.0,0.0,0.0,0.0,0.0,0.0,0.0,0.0,0.0,0.0,0.0,0.0,0.0,0.0,0.0,0.0,0.0,0.0,0.0,2.463,2.5364,2.6484,0.0,0.0,0.0,0.0,0.0,0.0,0.0,0.0,0.0,0.0,3.4809,3.5936,3.6906,3.7853,3.8842,3.9553,3.9975,4.0015,4.0138,4.0386,4.0822,0.0,0.0,0.0,0.0,0.0,0.0,0.0,0.0,0.0,0.0,0.0,0.0,0.0,0.0,0.0,0.0,0.0,0.0,0.0,0.0,0.0,0.0,0.0,0.0,0.0,0.0,0.0,0.0,0.0,0.0,0.0,0.0,0.0,0.0,0.0,0.0,0.0,0.0,0.0,0.0,0.0,0.0,0.0,0.0,0.0,0.0,0.0,0.0,0.0,0.0,0.0,0.0,0.0,0.8084,0.918,0.9255,0.9651,1.0396,1.0798,1.1499,1.2497,1.3226,1.3927,1.4619,0.0,0.0,0.0,0.0,0.0,0.0,0.0,0.0,0.0,0.0,0.0,0.0,0.0,0.0,0.0,0.0,0.0,0.0,0.0,0.0,0.0,0.0,0.0,0.0,0.0,0.0,2.4226,2.5603,2.6539,0.0,0.0,0.0,0.0,0.0,0.0,0.0,0.0,0.0,0.0,3.4777,3.5757,3.6793,3.776,3.869,3.9697,3.9892,3.9933,4.0034,4.0545,4.0947,0.0,0.0,0.0,0.0,0.0,0.0,0.0,0.0,0.0,0.0,0.0,0.0,0.0,0.0,0.0,0.0,0.0,0.0,0.0,0.0,0.0,0.0,0.0,0.0,0.0,0.0,0.0,0.7445,0.7356,0.0,0.0,0.0,0.0,0.0,0.0,0.0,0.0,0.0,0.0,0.0,0.2276,0.2451,0.0,0.0,0.0,0.0,0.0,0.0,0.0,0.0,0.0,0.0,0.0,0.0,0.6464,0.7663,0.8149,0.8781,0.965,1.0728,1.1729,1.2734,1.3579,1.45,1.5527,0.0,0.0,0.0,0.0,0.0,0.0,0.0,0.0,0.0,0.0,0.0,0.0,0.0,0.0,0.0,0.0,0.0,0.0,0.0,0.0,0.0,0.0,0.0,0.0,0.0,2.4371,0.0,0.0,0.0,0.0,0.0,0.0,0.0,0.0,0.0,0.0,0.0,3.3582,3.3961,3.484,3.5851,3.6873,3.7845,3.8814,0.0,0.0,0.0,0.0,0.0,0.0,0.0,0.0,0.0,0.0,0.0,0.0,0.0,0.0,4.3479,4.3479,4.3479,4.3479,4.3479,0.0,0.0,0.0,0.0,0.0,0.0,0.0,0.0,0.0,0.0,0.0,0.0,0.0,0.0,0.0,0.0,0.4772,0.0,0.0,0.0,0.0,0.0,0.0,0.0,0.0,-0.0288,-0.0802,-0.1162,-0.1514,-0.1668,0.0,-0.1601,-0.0885,0.0,0.0,0.0,0.0,0.0,0.0,0.0,0.0,0.4897,0.6299,0.7028,0.7873,0.8912,1.0301,1.1587,1.2678,1.374,1.476,1.5693,1.6055,1.6542,0.0,0.0,0.0,0.0,0.0,0.0,0.0,0.0,0.0,0.0,0.0,0.0,0.0,0.0,0.0,0.0,0.0,0.0,0.0,0.0,0.0,0.0,0.0,2.4884,0.0,0.0,0.0,0.0,0.0,0.0,0.0,0.0,0.0,3.2926,3.3529,3.4031,3.4404,3.5298,3.6311,3.7328,0.0,0.0,0.0,0.0,0.0,0.0,0.0,4.2313,4.3156,4.3372,4.3513,4.3868,4.3749,4.36,4.3532,0.0,0.0,4.3479,4.3479,4.3571,4.3864,4.392,4.3993,4.4268,4.4323,4.4323,0.0,0.0,0.0,0.0,0.0,0.0,0.0,0.0,0.0331,0.0576,0.0,0.1258,0.0,0.0,0.0,0.0,0.0,0.0,0.0,0.0,-0.3035,-0.347,-0.3634,-0.4515,-0.4775,-0.4332,-0.3969,-0.3521,-0.2908,-0.1989,0.0,0.0,0.0,0.0,0.0,0.0,0.3361,0.4997,0.5887,0.6931,0.8178,0.9631,1.1026,1.2339,1.3727,1.468,1.5128,1.5533,1.5998,1.6622,1.7183,0.0,0.0,0.0,0.0,0.0,0.0,0.0,0.0,0.0,0.0,0.0,0.0,0.0,0.0,0.0,0.0,0.0,0.0,0.0,0.0,2.4725,0.0,0.0,0.0,0.0,0.0,0.0,0.0,0.0,0.0,0.0,3.3678,3.3842,3.4234,3.5161,0.0,0.0,0.0,0.0,3.987,4.0057,4.084,4.1393,4.1373,4.2652,4.3591,4.3408,0.0,0.0,4.3869,4.3667,4.3582,4.3513,4.3479,4.3497,4.3534,4.3571,4.3828,4.4562,4.4745,4.5002,4.5663,4.5736,4.5773,-0.8803,0.0,0.0,0.0,0.0,-0.4665,-0.3989,-0.3765,-0.3467,-0.3099,-0.2743,-0.2212,0.0,0.0,0.0,0.0,0.0,0.0,-0.484,-0.4796,-0.5205,-0.5441,-0.5564,-0.5714,-0.5599,-0.5229,-0.5101,-0.4813,-0.4403,-0.4208,-0.3501,-0.2351,0.0,0.0,0.0,0.0,0.1848,0.322,0.4566,0.5998,0.7534,0.9275,1.1176,1.3245,1.3845,1.4211,1.4352,1.5131,1.5627,1.5862,1.6676,0.0,0.0,0.0,0.0,0.0,0.0,0.0,0.0,0.0,0.0,0.0,0.0,0.0,0.0,0.0,0.0,0.0,0.0,0.0,2.4504,2.5455,2.6385,0.0,0.0,0.0,0.0,0.0,0.0,0.0,0.0,0.0,3.3697,3.3895,3.4286,0.0,0.0,3.7218,3.8169,3.9207,3.9933,4.0077,0.0,0.0,0.0,4.3073,4.3842,4.4291,4.4354,4.4226,4.3851,4.3753,4.3686,4.3532,4.3479,4.3663,4.4232,4.436,4.4654,4.5351,4.5553,4.5626,4.5828,4.5902,4.592,-1.2898,-1.1428,-0.9725,-0.9239,-0.9478,-0.8287,-0.761,-0.7323,-0.6905,-0.6446,-0.6018,-0.5356,-0.4821,-0.4383,-0.4205,0.0,0.0,0.0,-0.6802,-0.6686,-0.6881,-0.7055,-0.7141,-0.6895,-0.6605,-0.6281,-0.6015,-0.576,-0.5478,-0.5497,-0.4953,-0.3827,0.0,0.0,-0.2036,-0.0876,0.0354,0.1692,0.3147,0.4786,0.6509,0.8965,1.1204,1.3132,1.3488,1.3656,1.3702,1.4606,1.5095,1.5108,1.6109,1.6735,0.0,0.0,0.0,0.0,0.0,0.0,0.0,0.0,0.0,0.0,0.0,2.073,0.0,0.0,0.0,0.0,2.3554,2.4474,2.5608,2.6267,0.0,0.0,0.0,0.0,0.0,0.0,0.0,3.2944,3.3091,3.3256,3.3752,3.3921,3.4441,3.5631,3.6422,3.7355,3.8601,0.0,3.9911,4.0096,4.1128,4.2103,4.2576,4.3555,4.4369,4.4636,4.4468,4.4177,4.3851,4.3804,4.3719,4.3566,4.3479,4.3736,4.4562,4.4947,4.5443,4.6214,4.6379,4.6471,4.6764,4.6856,4.6856,-1.5106,-1.4766,-1.3118,-1.2122,-1.1595,-1.1204,-1.0843,-1.0467,-0.9954,-0.9429,-0.8858,-0.8171,-0.7627,-0.7257,-0.7002,0.0,-0.717,-0.7479,-0.7808,-0.8122,-0.8234,-0.8333,-0.8365,-0.806,-0.7724,-0.7375,-0.6871,-0.651,-0.6313,-0.6166,-0.5938,-0.5609,-0.4787,-0.4113,-0.3558,-0.2428,-0.1146,0.033,0.1742,0.3431,0.5473,0.8693,1.1038,1.233,1.2789,1.3057,1.3151,1.3988,1.4462,1.4499,1.5514,1.61,1.6001,0.0,0.0,0.0,0.0,0.0,0.0,0.0,0.0,0.0,0.0,0.0,0.0,0.0,0.0,0.0,2.4454,0.0,2.673,2.7066,0.0,0.0,0.0,3.0246,3.125,3.2044,3.282,3.3688,0.0,0.0,3.3788,0.0,3.4589,3.6159,3.6701,3.7523,3.9158,3.9614,3.9889,4.0057,4.1509,4.2559,4.2629,4.3916,4.4838,4.4551,4.4373,4.4165,4.3869,4.3753,4.3719,4.3532,4.3479,4.3754,4.4544,4.5241,4.6049,4.6783,4.7057,4.7425,4.8031,4.8177,4.8159,-1.5242,-1.5156,-1.4745,-1.4168,-1.3515,-1.3166,-1.2784,-1.24,-1.1843,-1.1323,-1.0807,-1.0121,-0.9411,-0.8767,-0.8566,-0.8503,-0.8605,-0.88,-0.8958,-0.9131,-0.9131,-0.9116,-0.9116,-0.8805,-0.849,-0.822,-0.7839,-0.7492,-0.7246,-0.7028,-0.6824,-0.6617,-0.6199,-0.5372,-0.4285,-0.351,-0.2477,-0.1123,0.0445,0.2821,0.6014,0.8231,0.9982,1.1339,1.1886,1.2306,1.2591,1.356,1.4094,1.4073,1.5076,1.5647,1.5647,1.5768,0.0,0.0,0.0,0.0,0.0,0.0,0.0,0.0,0.0,1.9701,2.0518,0.0,2.1805,0.0,2.4528,2.5634,2.6184,2.6994,0.0,0.0,2.9331,3.0179,3.1801,3.2201,3.2702,3.3607,3.3726,3.3753,3.3788,3.3868,3.4308,3.5366,3.6303,3.7293,3.8359,3.927,3.9826,4.0008,4.095,4.1886,4.2506,4.3767,4.464,4.4468,4.4218,4.4023,4.3837,4.3719,4.36,4.3532,4.3479,4.3809,4.4544,4.4874,4.5278,4.6067,4.715,4.8067,4.8269,4.8306,4.8324,-1.5329,-1.5338,-1.5351,-1.5115,-1.4711,-1.4354,-1.4016,-1.3648,-1.3185,-1.27,-1.2172,-1.1293,-1.0542,-0.997,-0.9741,-0.9662,-0.9636,-0.9712,-0.9776,-0.9816,-0.9777,-0.9725,-0.9659,-0.941,-0.917,-0.8899,-0.8574,-0.8333,-0.8099,-0.784,-0.7686,-0.7579,-0.7227,-0.6614,-0.576,-0.4688,-0.3561,-0.238,-0.0106,0.2395,0.5145,0.6975,0.8575,0.9886,1.0654,1.1357,1.1986,1.2958,1.3561,1.3769,1.4606,1.5062,1.5017,1.513,1.522,0.0,0.0,0.0,0.0,0.0,0.0,0.0,0.0,0.0,0.0,0.0,2.1713,2.3101,2.4557,2.5579,2.5948,2.6696,2.749,2.8293,2.9094,3.0083,3.129,3.2126,3.2857,3.3494,3.3605,3.3615,3.3716,3.3788,3.4026,3.4531,3.5532,3.6702,3.7885,3.8719,3.9278,3.9747,4.0631,4.1529,4.2257,4.3253,4.3924,4.3783,4.3886,4.3942,4.3734,4.3667,4.3582,4.3513,4.3479,4.3608,4.4103,4.4488,4.4874,4.5351,4.6361,4.7297,4.7719,4.8067,4.8324,-1.5357,-1.5418,-1.5418,-1.5409,-1.5387,-1.5022,-1.4705,-1.4434,-1.4057,-1.3599,-1.3058,-1.202,-1.1351,-1.0964,-1.0756,-1.0592,-1.0434,-1.0411,-1.0361,-1.031,-1.0389,-1.0352,-1.0225,-1.016,-1.0013,-0.9761,-0.9481,-0.9262,-0.9102,-0.8866,-0.8735,-0.866,-0.8319,-0.7969,-0.7509,-0.6122,-0.4746,-0.3307,-0.0479,0.1778,0.3508,0.5318,0.6907,0.8246,0.9231,1.0252,1.1237,1.2163,1.2861,1.342,1.4076,1.4384,1.428,1.4444,1.449,0.0,1.464,0.0,0.0,0.0,0.0,0.0,0.0,0.0,0.0,2.0301,2.1742,2.3247,2.4398,2.5271,2.5733,2.6127,2.6624,2.722,2.8652,2.9831,3.038,3.1805,3.2916,3.3256,3.3375,3.3462,3.353,3.3671,3.3753,3.389,3.4584,3.571,3.7259,3.7985,3.8606,3.9421,4.0396,4.1246,4.1857,4.2524,4.2913,4.2824,4.3262,4.3693,4.3465,4.3508,4.3566,4.3513,4.3479,4.3497,4.3479,4.4085,4.4507,4.4562,4.5241,4.6049,4.6801,4.7407,4.7976,-1.5354,-1.5418,-1.5409,-1.541,-1.5376,-1.5257,-1.5047,-1.4776,-1.4487,-1.3953,-1.3227,-1.2687,-1.2242,-1.1843,-1.1586,-1.1341,-1.1113,-1.1001,-1.092,-1.0863,-1.1294,-1.1487,-1.1463,-1.175,-1.1852,-1.174,-1.1443,-1.124,-1.1123,-1.0887,-1.0726,-1.0648,-1.0309,-0.9769,-0.8955,0.0,0.0,0.0,-0.1814,-0.0165,0.1511,0.3397,0.5104,0.6546,0.7758,0.0,1.0052,1.1108,1.1905,1.2518,1.3128,0.0,0.0,0.0,0.0,0.0,0.0,0.0,0.0,0.0,0.0,0.0,1.5925,1.741,1.8715,2.0594,2.2005,2.2717,2.34,2.4039,2.4489,2.5003,2.574,2.6792,2.7633,2.8733,3.0283,3.106,3.1797,3.2727,3.2975,3.3147,3.3268,3.3444,3.3549,3.3567,3.3799,3.4431,3.5496,3.7028,3.8153,3.8484,3.9733,4.0753,4.0881,4.1446,4.1872,4.1846,4.2297,4.265,4.2658,4.3143,4.3495,4.3461,4.3479,4.3479,4.3479,4.3626,4.3773,4.3718,4.4397,4.5168,4.5957,4.625,4.6342,-1.535,0.0,-1.542,-1.5406,0.0,-1.5369,-1.5481,-1.5721,-1.5464,-1.5159,-1.4814,-1.4418,-1.3814,-1.3059,-1.277,-1.2305,-1.1717,-1.1902,-1.1687,-1.1259,-1.2256,-1.2842,-1.2979,-1.2974,-1.2884,-1.2747,-1.2539,-1.2329,-1.2157,-1.1955,-1.1851,-1.1721,-1.141,-1.0901,-1.0289,-0.963,-0.777,-0.4669,-0.3242,-0.1762,-0.0132,0.1625,0.329,0.4767,0.0,0.0,0.0,0.0,0.0,0.0,0.0,0.0,0.0,0.0,0.0,1.2609,1.2618,1.2609,1.2716,1.3006,1.3246,1.3399,1.4807,1.6598,1.8697,1.9982,2.0824,2.1418,2.1909,2.2474,2.3069,2.3573,2.4282,2.5282,2.6225,2.73,2.8535,2.9646,3.0662,3.1497,3.2156,3.2586,3.2862,3.3068,3.319,3.3298,3.3386,3.3676,3.431,3.5697,3.6917,3.7869,3.9005,3.9798,3.9825,4.0352,4.075,4.0732,4.1245,4.1691,4.1732,4.2359,4.291,4.2928,4.3204,4.3479,4.3479,4.3479,4.3479,4.3516,4.3809,4.4195,4.469,4.5333,4.5902,-1.5637,-1.5838,-1.5845,-1.5869,-1.5859,-1.5848,-1.63,-1.703,0.0,0.0,0.0,-1.6142,-1.5418,-1.4493,-1.4169,-1.3541,-1.2742,-1.3115,-1.2826,-1.2131,-1.3415,-1.4207,-1.444,-1.4281,-1.4027,-1.3741,-1.3747,-1.3556,-1.3151,-1.3024,-1.2924,-1.2765,-1.2446,-1.2045,-1.1535,-1.0413,-0.8737,-0.656,-0.4873,-0.3298,-0.1715,-0.0088,0.1454,0.2953,0.4258,0.562,0.7071,0.8414,0.9493,1.026,1.1068,1.1516,1.1516,1.1516,1.1516,1.1516,1.1507,1.1516,1.1516,1.1873,1.2255,1.2518,1.3807,1.5732,1.8348,1.8806,1.9233,1.98,2.0243,2.0775,2.1485,2.1988,2.2626,2.346,2.4526,2.5466,2.6366,2.7797,2.9098,3.0071,3.1003,3.1811,3.2317,3.2553,3.2766,3.2943,3.3068,3.319,3.3524,3.4559,3.5882,3.7285,3.8201,3.8718,3.8741,3.9252,3.9588,3.9516,4.0207,4.0771,4.0888,4.1452,4.1977,4.1999,4.2711,4.3133,4.3277,4.3369,4.3461,4.3479,4.3479,4.3479,4.3589,4.4525,4.5351,-1.6798,-1.7548,-1.7613,-1.7643,-1.7655,-1.7634,-1.8052,-1.8653,-1.7742,-1.7226,-1.7067,-1.6788,-1.6435,-1.605,-1.5732,-1.5357,-1.5025,-1.4862,-1.4674,0.0,-1.5152,-1.5463,-1.5542,-1.6448,-1.6475,-1.5832,-1.6182,-1.5964,-1.5242,-1.5008,-1.4815,-1.4621,-1.4332,-1.3707,-1.2746,-1.1365,-1.02,-0.928,-0.6977,-0.5089,-0.3695,-0.1941,-0.0354,0.1062,0.2468,0.3851,0.5334,0.6824,0.8072,0.908,0.9822,1.0312,1.0415,1.0415,1.0415,1.0415,1.0415,1.0423,1.0415,1.0787,1.1379,1.2259,1.2868,1.4125,1.6321,1.7245,1.7818,1.8132,1.8655,1.9169,1.9673,2.0254,2.0882,2.1614,2.2352,2.3319,2.4694,2.5644,2.6894,2.8608,2.9571,3.0438,3.1359,3.195,3.23,3.2539,3.2687,3.288,3.3237,3.4175,3.5302,3.6342,3.7216,3.7569,3.7668,3.8099,3.851,3.8365,3.9107,3.9701,3.9686,4.0425,4.0985,4.1022,4.1766,4.2294,4.2368,4.3023,4.3332,4.3406,4.3424,4.3479,4.3479,4.3791,4.3938,-1.749,-1.7901,-1.792,-1.7974,-1.8037,-1.8457,-1.8828,-1.9156,-1.9105,-1.8934,-1.8697,-1.8463,-1.8005,-1.7381,-1.7106,-1.6634,-1.6043,-1.6181,-1.6145,-1.6001,-1.6993,-1.7649,-1.7916,-1.8466,-1.8475,-1.8012,-1.8095,-1.7838,-1.7313,-1.706,-1.6608,-1.6008,-1.5201,-1.436,-1.357,-1.2543,-1.1614,-1.0785,-0.8311,-0.6355,-0.5043,-0.3477,-0.1989,-0.0575,0.0839,0.2178,0.3481,0.5021,0.631,0.7322,0.8248,0.8856,0.9065,0.9065,0.9072,0.9065,0.9072,0.9124,0.9242,0.9666,1.0252,1.0853,1.1362,1.2209,1.3497,1.5008,1.6089,1.6476,1.6802,1.7236,1.7827,1.8407,1.904,1.975,2.0463,2.1383,2.254,2.3684,2.494,2.6358,2.7843,2.9059,3.0045,3.0896,3.1603,3.1949,3.2266,3.2537,3.2802,3.3324,3.4093,3.5198,3.6049,3.6661,3.6884,3.7214,3.7564,3.7755,3.8274,3.8578,3.8685,3.9367,3.994,4.012,4.0792,4.1334,4.1423,4.2184,4.2677,4.2858,4.324,4.3424,4.3479,4.3479,4.3479,-1.821,-1.8455,-1.8468,-1.8494,-1.8611,-1.9237,-1.9488,-1.9571,-2.0341,-2.0599,-2.0373,-1.9984,-1.9374,-1.8655,-1.8419,-1.7918,-1.7329,-1.7722,-1.7808,-1.7681,-1.8906,-1.9712,-2.002,-2.023,-2.012,-1.9772,-1.9694,-1.9381,-1.8914,-1.8617,-1.8052,-1.7152,-1.5931,-1.5057,-1.4515,-1.3695,-1.2822,-1.1805,-0.9742,-0.7881,-0.6367,-0.4957,-0.3567,-0.2255,-0.084,0.0444,0.171,0.3206,0.4481,0.5493,0.6556,0.7315,0.7593,0.7646,0.7706,0.7646,0.77,0.7812,0.8096,0.8514,0.8928,0.9354,0.9799,1.0394,1.1076,1.2605,1.3969,1.469,1.5012,1.54,1.5955,1.6465,1.7081,1.7804,1.8543,1.9379,2.028,2.1591,2.2856,2.4025,2.5727,2.7227,2.8452,2.9493,3.0456,3.1287,3.1841,3.2197,3.2369,3.247,3.2968,3.3831,3.4812,3.5479,3.6014,3.6197,3.6451,3.6933,3.7238,3.7435,3.7613,3.8258,3.8902,3.9134,3.9748,4.0289,4.0486,4.1225,4.1734,4.1896,4.2278,4.2823,4.3078,4.3351,4.3461,-1.9283,-2.0031,-2.0064,-2.0212,-2.0243,-2.035,-2.0424,-2.0527,-2.1304,-2.1661,-2.1523,-2.0591,-2.0123,-1.9915,-1.9743,-1.9549,-1.9375,-1.9987,-2.0175,-2.0087,-2.0753,-2.1089,-2.1115,-2.1444,-2.1196,-2.0586,-2.0841,-2.0535,-1.9635,-1.9216,-1.8704,-1.8038,-1.7105,-1.636,-1.5752,-1.4699,-1.3683,-1.2777,-1.1648,-1.0031,-0.7952,-0.65,-0.5224,-0.4057,-0.2739,-0.1441,-0.0093,0.1414,0.2684,0.3718,0.4877,0.5751,0.614,0.6308,0.6367,0.6367,0.647,0.6735,0.7165,0.7278,0.7545,0.8043,0.8421,0.8907,0.9555,1.0112,1.1209,1.2583,1.3399,1.376,1.3999,1.4591,1.5158,1.5753,1.6546,1.7346,1.8193,1.9193,2.0424,2.2011,2.3192,2.4648,2.6581,2.7816,2.9026,3.0547,3.121,3.164,3.177,3.1932,3.2074,3.2494,3.3349,3.4066,3.4285,3.4729,3.5084,3.5151,3.5738,3.6147,3.6469,3.704,3.7793,3.7954,3.8618,3.9175,3.9516,4.011,4.0795,4.085,4.1083,4.1387,4.2132,4.286,4.3298,-1.9841,-2.0265,-2.0328,-2.0695,-2.1231,-2.1756,-2.2015,-2.2076,-2.2413,-2.2577,-2.2537,-2.2088,-2.1866,-2.1815,-2.168,-2.1551,-2.1455,-2.1646,-2.1633,-2.1592,-2.2134,-2.2354,-2.2318,-2.2806,-2.2771,-2.2309,-2.2363,-2.2022,-2.1245,-2.0322,-1.9624,-1.9138,-1.8238,-1.7515,-1.7092,-1.6391,-1.5638,-1.4783,-1.3877,-1.2685,-1.1095,-0.8577,-0.659,-0.5368,-0.4329,-0.3132,-0.1699,-0.0498,0.0829,0.227,0.3157,0.3935,0.4718,0.4772,0.4831,0.4886,0.5101,0.532,0.5479,0.5814,0.614,0.6465,0.6872,0.7361,0.7995,0.8457,0.9163,0.9997,1.12,1.1997,1.2366,1.2793,1.3322,1.3835,1.4536,1.5341,1.6198,1.7126,1.824,1.9664,2.1028,2.2468,2.4322,2.6305,2.7952,2.9342,3.0177,3.0744,3.1089,3.13,3.1452,3.1617,3.2117,3.2682,3.3192,3.3631,3.3942,3.4324,3.4749,3.5109,3.5214,3.5892,3.6553,3.6701,3.7414,3.8006,3.8241,3.9031,3.9751,3.9859,4.0471,4.101,4.1865,4.2337,4.2754,-2.0232,-2.0542,-2.0847,-2.1359,-2.2053,-2.2698,-2.3022,-2.3111,-2.3329,-2.3427,-2.3487,-2.3707,-2.3788,-2.3664,-2.3209,-2.2871,-2.2791,-2.2885,-2.2891,-2.284,-2.338,-2.3558,-2.3523,-2.3785,-2.3878,-2.3631,-2.3369,-2.3014,-2.246,-2.1446,-2.0695,-2.0251,-1.9386,-1.8734,-1.839,-1.7902,-1.7213,-1.6439,-1.5625,-1.4752,-1.3528,-1.0954,-0.8699,-0.7165,-0.6146,-0.496,-0.3489,-0.245,-0.1162,0.0482,0.1262,0.2055,0.2945,0.3226,0.3392,0.3564,0.3674,0.3837,0.4006,0.4391,0.4725,0.4937,0.5269,0.5737,0.6355,0.6917,0.7298,0.7711,0.8834,0.9863,1.0752,1.119,1.1626,1.2043,1.2761,1.3536,1.4232,1.51,1.612,1.7368,1.8726,2.0395,2.2219,2.4655,2.6765,2.7819,2.8778,2.968,3.021,3.0485,3.0666,3.0908,3.0965,3.1421,3.2359,3.2576,3.2865,3.3175,3.355,3.3908,3.4015,3.476,3.5384,3.5606,3.6227,3.6531,3.6664,3.747,3.8492,3.8834,3.9463,4.0292,4.0763,4.1287,4.1976,-2.0435,-2.1329,-2.2277,-2.2662,-2.2774,-2.2927,-2.3015,-2.3232,-2.3917,-2.4292,-2.4456,-2.5137,-2.5538,-2.537,-2.3893,-2.3098,-2.313,-2.3734,-2.3989,-2.3965,-2.4423,-2.4681,-2.4604,-2.4338,-2.4116,-2.3943,-2.3717,-2.3259,-2.2617,-2.2197,-2.1816,-2.1362,-2.0576,-2.0012,-1.9578,-1.8843,-1.8051,-1.7445,-1.6768,-1.5887,-1.4815,-1.3713,-1.1985,-0.9877,-0.8314,-0.7008,-0.576,-0.4429,-0.3194,-0.2047,-0.0942,0.0056,0.0778,0.1671,0.223,0.2399,0.2291,0.2404,0.2847,0.3014,0.3123,0.3342,0.3622,0.4008,0.4687,0.527,0.5711,0.6033,0.6438,0.733,0.8762,0.9539,1.0135,1.0388,1.1135,1.1735,1.2273,1.3168,1.4182,1.5158,1.6377,1.8205,2.094,2.3114,2.48,2.6078,2.7072,2.7933,2.8828,2.9319,2.9664,2.987,3.0031,3.0351,3.1151,3.1516,3.1482,3.1776,3.2383,3.2745,3.308,3.349,3.399,3.4439,3.4739,3.4941,3.5041,3.5631,3.6646,3.7397,3.8295,3.9013,3.9661,4.0203,4.0872,-2.0414,-2.1431,-2.2899,-2.3525,-2.3629,-2.4226,-2.4532,-2.462,-2.4935,-2.509,-2.5212,-2.5542,-2.5698,-2.5655,-2.5058,-2.475,-2.4739,-2.4932,-2.4926,-2.486,-2.4943,-2.491,-2.4749,-2.4543,-2.4373,-2.4229,-2.4078,-2.3656,-2.3087,-2.2704,-2.2375,-2.1989,-2.1574,-2.1177,-2.0809,-2.0304,-1.9781,-1.9223,-1.8588,-1.7851,-1.695,-1.597,-1.4775,-1.3363,-1.0789,-0.8815,-0.7598,-0.6525,-0.5424,-0.4249,-0.3154,-0.2329,-0.1612,-0.0278,0.0558,0.0726,0.0895,0.1064,0.1173,0.1509,0.173,0.1785,0.2122,0.2633,0.3227,0.3589,0.3826,0.4102,0.4403,0.5075,0.6097,0.7343,0.8339,0.8796,0.9366,0.9926,1.0488,1.1169,1.2089,1.3219,1.479,1.6847,1.8684,2.0614,2.225,2.3483,2.4781,2.5789,2.6579,2.7381,2.7968,2.829,2.8788,2.9332,2.9761,3.0377,3.0699,3.0929,3.1284,3.1506,3.1828,3.2423,3.2975,3.3235,3.3468,3.3913,3.4192,3.4539,3.5428,3.6231,3.709,3.7699,3.8518,3.8902,3.9697,-2.0973,-2.1867,-2.3515,-2.427,-2.4434,-2.5063,-2.5406,-2.5464,-2.549,-2.5531,-2.5581,-2.5632,-2.5681,-2.5705,-2.5703,-2.5693,-2.5678,-2.5581,-2.546,-2.5327,-2.5194,-2.5043,-2.4879,-2.4731,-2.4594,-2.4445,-2.4303,-2.3941,-2.35,-2.3153,-2.2807,-2.2493,-2.2254,-2.1998,-2.1688,-2.1399,-2.1023,-2.055,-1.9969,-1.928,-1.8517,-1.7639,-1.6731,-1.5676,-1.3443,-1.1386,-0.9758,-0.8724,-0.7629,-0.6464,-0.5441,-0.4358,-0.3214,-0.189,-0.1115,-0.1004,-0.0615,-0.0336,-0.0168,0.0223,0.0391,0.0335,0.0614,0.1117,0.1673,0.1842,0.2099,0.2342,0.272,0.3181,0.3898,0.5074,0.6193,0.7089,0.7697,0.821,0.872,0.9296,1.0299,1.1712,1.3357,1.5032,1.6549,1.8087,1.9592,2.094,2.238,2.3476,2.4367,2.5204,2.5979,2.6281,2.6851,2.7486,2.8,2.8534,2.9621,2.9992,3.0543,3.0634,3.0824,3.1415,3.1789,3.2059,3.2457,3.2986,3.3385,3.3667,3.4276,3.506,3.5565,3.6121,3.6867,3.7544,3.832,-2.2192,-2.2627,-2.4206,-2.4911,-2.501,-2.5212,-2.5351,-2.5388,-2.5448,-2.5498,-2.5511,-2.5586,-2.5648,-2.5676,-2.5702,-2.5707,-2.5682,-2.5609,-2.5518,-2.5398,-2.5264,-2.5126,-2.4981,-2.4865,-2.4716,-2.4591,-2.4338,-2.4096,-2.3798,-2.3544,-2.3242,-2.2927,-2.2694,-2.2453,-2.2079,-2.1882,-2.1601,-2.115,-2.0583,-1.9989,-1.931,-1.8622,-1.7866,-1.6985,-1.6065,-1.453,-1.2234,-1.0997,-0.9804,-0.8729,-0.7729,-0.6114,-0.4184,-0.3157,-0.2726,-0.2621,-0.2291,-0.1789,-0.123,-0.1006,-0.0894,-0.0894,-0.0782,-0.0502,-0.0168,0.0168,0.051,0.0929,0.1424,0.1886,0.2347,0.283,0.3841,0.5508,0.6199,0.6588,0.7111,0.7702,0.8656,1.0342,1.1606,1.2825,1.4323,1.5686,1.7056,1.8614,1.9907,2.1067,2.2101,2.2964,2.364,2.4184,2.4774,2.5433,2.6046,2.669,2.7968,2.9013,2.968,3.0113,3.0225,3.0632,3.0808,3.1041,3.123,3.1763,3.2332,3.265,3.311,3.3788,3.415,3.4652,3.543,3.6211,3.6876,-2.2447,-2.3201,-2.4322,-2.4907,-2.5032,-2.5164,-2.5271,-2.5322,-2.5415,-2.5449,-2.5512,-2.5561,-2.5644,-2.5679,-2.5703,-2.5703,-2.5688,-2.5618,-2.5531,-2.5406,-2.5303,-2.5198,-2.5082,-2.498,-2.4865,-2.4734,-2.4528,-2.4301,-2.4118,-2.3921,-2.3646,-2.3335,-2.3109,-2.285,-2.2517,-2.2226,-2.194,-2.1601,-2.1134,-2.0665,-2.0108,-1.9519,-1.8881,-1.8299,-1.7598,-1.6661,-1.5409,-1.345,-1.1951,-1.0906,-0.989,-0.8339,-0.6396,-0.5225,-0.4583,-0.4106,-0.3564,-0.3123,-0.2738,-0.2402,-0.2289,-0.2233,-0.2122,-0.1955,-0.1733,-0.1342,-0.1068,-0.0797,-0.0232,0.042,0.0806,0.1146,0.2206,0.4204,0.4616,0.5008,0.5602,0.6457,0.7493,0.8581,0.9711,1.0829,1.2112,1.3339,1.4625,1.5979,1.7166,1.8331,1.93,2.0407,2.1261,2.1877,2.2585,2.3307,2.3974,2.4533,2.5492,2.6976,2.8123,2.9077,2.9364,2.9733,2.9924,3.0156,3.0293,3.0626,3.1204,3.1641,3.2076,3.2531,3.3019,3.3623,3.4219,3.4861,3.5471,-2.2505,-2.3434,-2.4366,-2.4837,-2.498,-2.5099,-2.519,-2.5262,-2.535,-2.5445,-2.5505,-2.5571,-2.5636,-2.569,-2.5703,-2.5701,-2.5693,-2.5638,-2.5551,-2.5434,-2.536,-2.5271,-2.5141,-2.5044,-2.4961,-2.4847,-2.4685,-2.4524,-2.4405,-2.4211,-2.3979,-2.3649,-2.3405,-2.3157,-2.285,-2.2544,-2.2254,-2.194,-2.1554,-2.115,-2.0698,-2.0181,-1.9692,-1.9177,-1.8669,-1.8101,-1.7396,-1.575,-1.4268,-1.2914,-1.1518,-1.0015,-0.8482,-0.737,-0.6479,-0.5788,-0.5144,-0.4601,-0.4233,-0.3843,-0.3566,-0.3514,-0.3347,-0.3125,-0.285,-0.2514,-0.2347,-0.2076,-0.1537,-0.0993,-0.0543,-0.0435,0.0512,0.2039,0.293,0.3478,0.4215,0.5071,0.6056,0.6898,0.7733,0.8751,1.0014,1.1195,1.234,1.3425,1.4606,1.5703,1.6613,1.7668,1.8522,1.936,2.0019,2.0868,2.1799,2.2456,2.3053,2.4619,2.6232,2.7332,2.8093,2.8777,2.915,2.9528,2.9777,3.0081,3.0558,3.0667,3.1033,3.1479,3.1992,3.2434,3.294,3.334,3.3968,-2.2518,-2.343,-2.4323,-2.4794,-2.4896,-2.5037,-2.5149,-2.5222,-2.5351,-2.5421,-2.5515,-2.5574,-2.5643,-2.5678,-2.5702,-2.5701,-2.5678,-2.5618,-2.557,-2.5488,-2.5415,-2.5313,-2.5171,-2.5087,-2.5038,-2.4981,-2.4879,-2.4731,-2.4623,-2.4405,-2.4174,-2.3901,-2.3649,-2.3382,-2.3109,-2.2868,-2.2544,-2.2237,-2.1882,-2.1493,-2.1055,-2.0714,-2.0292,-1.9747,-1.9391,-1.8954,-1.8366,-1.7612,-1.6413,-1.454,-1.2753,-1.1495,-1.0511,-0.9496,-0.8508,-0.7717,-0.6972,-0.6279,-0.5697,-0.5261,-0.4886,-0.4677,-0.4398,-0.4122,-0.3735,-0.3516,-0.3236,-0.2847,-0.2525,-0.2162,-0.1763,-0.169,-0.1307,-0.0449,0.1123,0.2275,0.3017,0.3547,0.4339,0.5196,0.5782,0.6494,0.8055,0.9203,1.021,1.1265,1.2417,1.3374,1.4282,1.5187,1.5934,1.6733,1.7579,1.8389,1.9328,1.9986,2.0623,2.1746,2.3566,2.5106,2.6729,2.7679,2.8369,2.881,2.9196,2.9512,2.9837,2.9968,3.0284,3.0775,3.1165,3.1348,3.1672,3.2121,3.2655,-2.3301,-2.4126,-2.4532,-2.4779,-2.4915,-2.5037,-2.5149,-2.5222,-2.535,-2.5429,-2.551,-2.5565,-2.5648,-2.5691,-2.5702,-2.5701,-2.5682,-2.5618,-2.5551,-2.5495,-2.5432,-2.5332,-2.5222,-2.5187,-2.5153,-2.513,-2.5013,-2.4902,-2.4818,-2.4604,-2.4388,-2.41,-2.386,-2.3624,-2.3371,-2.3077,-2.2825,-2.2561,-2.2198,-2.1853,-2.1509,-2.1135,-2.0745,-2.0308,-1.9975,-1.9566,-1.9124,-1.8394,-1.7205,-1.5504,-1.4323,-1.3277,-1.2416,-1.1495,-1.0545,-0.957,-0.8802,-0.8029,-0.7351,-0.6827,-0.6352,-0.5928,-0.5601,-0.5167,-0.4736,-0.4405,-0.407,-0.3685,-0.3357,-0.3004,-0.2683,-0.2547,-0.2196,-0.1662,-0.0198,0.1074,0.1745,0.2281,0.288,0.3542,0.4273,0.5196,0.6179,0.7154,0.8115,0.907,1.0077,1.1078,1.1982,1.2833,1.3646,1.4458,1.5342,1.6053,1.6797,1.7434,1.8153,1.8976,2.0658,2.2578,2.4568,2.6556,2.729,2.7981,2.8321,2.8654,2.915,2.9483,2.9853,3.0172,3.0382,3.0615,3.0775,3.1107,3.1623,-2.3615,-2.4407,-2.461,-2.4779,-2.4915,-2.5056,-2.5149,-2.5214,-2.535,-2.5445,-2.5498,-2.5571,-2.5632,-2.5691,-2.5701,-2.5705,-2.5706,-2.5634,-2.5576,-2.5505,-2.5418,-2.534,-2.5283,-2.5261,-2.522,-2.5198,-2.5087,-2.5,-2.4888,-2.4731,-2.4526,-2.4284,-2.4039,-2.3813,-2.3571,-2.3295,-2.3003,-2.2747,-2.2409,-2.2073,-2.1738,-2.1371,-2.1006,-2.061,-2.0304,-1.9955,-1.9435,-1.8831,-1.788,-1.6608,-1.5692,-1.4925,-1.4139,-1.3287,-1.2425,-1.1469,-1.0689,-0.9885,-0.9134,-0.8469,-0.78,-0.7267,-0.6789,-0.6199,-0.5664,-0.5226,-0.4901,-0.4405,-0.4073,-0.3722,-0.3447,-0.3233,-0.2997,-0.2682,-0.1715,-0.0671,0.0201,0.0738,0.1409,0.2146,0.2948,0.3613,0.4403,0.5193,0.5978,0.6885,0.7787,0.8809,0.9756,1.0566,1.1374,1.2295,1.3099,1.3877,1.4604,1.5303,1.6146,1.6933,1.8269,2.0153,2.2508,2.4941,2.6021,2.6689,2.728,2.7834,2.8273,2.8764,2.9166,2.9438,2.9722,2.9957,3.0087,3.0359,3.0799,-2.3708,-2.4442,-2.4626,-2.4775,-2.4929,-2.5056,-2.5149,-2.5214,-2.5359,-2.5445,-2.5505,-2.5571,-2.5636,-2.5687,-2.5701,-2.5691,-2.5703,-2.5639,-2.556,-2.5486,-2.5422,-2.5376,-2.5332,-2.5312,-2.5273,-2.5212,-2.5141,-2.5038,-2.4902,-2.4779,-2.4596,-2.4375,-2.419,-2.3974,-2.3682,-2.343,-2.3193,-2.2902,-2.2579,-2.2203,-2.1857,-2.1479,-2.1087,-2.0711,-2.0388,-2.0045,-1.9617,-1.9199,-1.864,-1.776,-1.6983,-1.6293,-1.5628,-1.4903,-1.4139,-1.3334,-1.2474,-1.1653,-1.0881,-1.012,-0.9325,-0.8639,-0.8013,-0.7278,-0.6583,-0.6095,-0.5664,-0.5062,-0.4732,-0.4425,-0.416,-0.3921,-0.3776,-0.3648,-0.3429,-0.2746,-0.1678,-0.0873,-0.0067,0.0941,0.1544,0.2078,0.2678,0.3343,0.4069,0.492,0.5836,0.6681,0.7589,0.842,0.9307,1.014,1.0947,1.1697,1.2432,1.3159,1.4073,1.4993,1.6399,1.8192,2.0555,2.2714,2.4232,2.5236,2.5688,2.6476,2.7303,2.7803,2.829,2.8779,2.9074,2.9303,2.9544,2.987,3.0283,-2.4296,-2.4564,-2.4723,-2.4851,-2.4993,-2.513,-2.5179,-2.5222,-2.5406,-2.5488,-2.5506,-2.5566,-2.5629,-2.5707,-2.5702,-2.5694,-2.5684,-2.5636,-2.5571,-2.5525,-2.549,-2.5426,-2.5376,-2.536,-2.5341,-2.5273,-2.5209,-2.5106,-2.498,-2.4813,-2.465,-2.4412,-2.419,-2.3976,-2.3771,-2.3522,-2.3265,-2.3045,-2.2712,-2.2343,-2.1957,-2.157,-2.1166,-2.0761,-2.0339,-1.999,-1.9726,-1.956,-1.9339,-1.8846,-1.8173,-1.7394,-1.6892,-1.6213,-1.5552,-1.4846,-1.4068,-1.3328,-1.2619,-1.1688,-1.0805,-1.0143,-0.9266,-0.8495,-0.7605,-0.7009,-0.6426,-0.5832,-0.5395,-0.506,-0.4791,-0.467,-0.4596,-0.4544,-0.4602,-0.4356,-0.3551,-0.2347,-0.1342,-0.0671,0.0067,0.0671,0.1205,0.2076,0.2743,0.3207,0.387,0.4665,0.5453,0.6302,0.721,0.8104,0.8879,0.9629,1.0448,1.1312,1.231,1.3168,1.4488,1.5704,1.8082,1.9989,2.1325,2.275,2.4109,2.4896,2.5659,2.6711,2.7225,2.7826,2.8369,2.8638,2.8873,2.9303,2.9605,-2.4498,-2.4615,-2.4753,-2.4865,-2.5006,-2.516,-2.5228,-2.5282,-2.5434,-2.5515,-2.5551,-2.5591,-2.5632,-2.5693,-2.5701,-2.5698,-2.5679,-2.5625,-2.5581,-2.555,-2.5525,-2.5478,-2.543,-2.5393,-2.536,-2.5293,-2.519,-2.5087,-2.4953,-2.4798,-2.458,-2.4358,-2.4134,-2.3935,-2.375,-2.3522,-2.3289,-2.3028,-2.2764,-2.2426,-2.2056,-2.1615,-2.1103,-2.0662,-2.02,-1.9919,-1.9762,-1.9654,-1.9596,-1.9362,-1.8936,-1.845,-1.7909,-1.7352,-1.6769,-1.6164,-1.5407,-1.4687,-1.3986,-1.311,-1.2199,-1.1516,-1.0551,-0.9681,-0.8803,-0.8013,-0.7331,-0.6745,-0.6218,-0.5733,-0.5477,-0.5506,-0.5472,-0.5434,-0.5517,-0.5345,-0.4755,-0.3618,-0.2618,-0.2082,-0.1477,-0.0939,-0.0268,0.0603,0.114,0.1472,0.2211,0.2941,0.3604,0.4458,0.5193,0.604,0.6833,0.7608,0.85,0.9452,1.0593,1.1396,1.2334,1.3373,1.4883,1.6622,1.8195,2.0001,2.1901,2.285,2.3636,2.4822,2.5859,2.6323,2.6852,2.7554,2.8112,2.8418,2.8686,-2.4532,-2.4615,-2.4768,-2.4893,-2.5032,-2.5153,-2.5239,-2.5301,-2.5434,-2.5534,-2.559,-2.561,-2.5652,-2.5698,-2.57,-2.5701,-2.5683,-2.5655,-2.5615,-2.5615,-2.5549,-2.5511,-2.5506,-2.5441,-2.5387,-2.5283,-2.5179,-2.5031,-2.4874,-2.47,-2.4528,-2.4321,-2.4095,-2.3896,-2.3682,-2.3499,-2.3265,-2.3003,-2.2764,-2.248,-2.2113,-2.1691,-2.1151,-2.0527,-2.0166,-1.9955,-1.9797,-1.9726,-1.9669,-1.9611,-1.9487,-1.9176,-1.8745,-1.8187,-1.7747,-1.7258,-1.6476,-1.5816,-1.5207,-1.4378,-1.3501,-1.2745,-1.1864,-1.0906,-1.0033,-0.9124,-0.8427,-0.7746,-0.7148,-0.6553,-0.6209,-0.6298,-0.6308,-0.6264,-0.6258,-0.6067,-0.5624,-0.4758,-0.4154,-0.3291,-0.2684,-0.208,-0.1813,-0.1208,-0.0671,-0.0134,0.0605,0.1276,0.1942,0.2676,0.3473,0.4207,0.4995,0.599,0.6894,0.7737,0.8884,0.9578,1.0392,1.1224,1.2112,1.3441,1.5305,1.7921,1.9668,2.0516,2.161,2.2784,2.373,2.4521,2.5303,2.5981,2.6713,2.7405,2.7713,-2.4566,-2.4703,-2.4823,-2.4968,-2.5091,-2.516,-2.5241,-2.5321,-2.5443,-2.5534,-2.559,-2.561,-2.5632,-2.5679,-2.57,-2.57,-2.5703,-2.5681,-2.5664,-2.5648,-2.5591,-2.5576,-2.5556,-2.549,-2.5401,-2.5274,-2.5163,-2.5024,-2.4888,-2.47,-2.4547,-2.4431,-2.4151,-2.3876,-2.3664,-2.3481,-2.3265,-2.3028,-2.2816,-2.2561,-2.226,-2.1811,-2.1261,-2.0561,-2.0254,-2.001,-1.9833,-1.9726,-1.969,-1.969,-1.9596,-1.9465,-1.9153,-1.8669,-1.824,-1.7895,-1.731,-1.6685,-1.6244,-1.5543,-1.4812,-1.4122,-1.3178,-1.2267,-1.1325,-1.0395,-0.9647,-0.8919,-0.8171,-0.7565,-0.7267,-0.7312,-0.7293,-0.7219,-0.7219,-0.7129,-0.6741,-0.621,-0.5547,-0.4553,-0.3818,-0.322,-0.2885,-0.2485,-0.188,-0.1343,-0.0739,-0.0067,0.0671,0.1274,0.1944,0.2546,0.3147,0.4276,0.5401,0.6248,0.7158,0.7733,0.8431,0.9076,0.9964,1.0725,1.2522,1.4869,1.6935,1.8217,1.939,2.0572,2.1627,2.2361,2.339,2.4395,2.508,2.5784,2.6579,-2.4615,-2.4714,-2.4851,-2.4968,-2.5099,-2.5179,-2.5252,-2.5322,-2.5451,-2.5522,-2.5564,-2.5591,-2.5632,-2.5676,-2.5698,-2.5702,-2.5707,-2.5693,-2.5701,-2.5687,-2.5632,-2.5615,-2.5593,-2.5531,-2.5437,-2.534,-2.5203,-2.5043,-2.4874,-2.47,-2.4547,-2.4358,-2.4133,-2.3876,-2.3664,-2.3504,-2.3313,-2.307,-2.2893,-2.2685,-2.2398,-2.1928,-2.1245,-2.0778,-2.041,-2.015,-1.9919,-1.9762,-1.969,-1.9632,-1.956,-1.9465,-1.9265,-1.9003,-1.8673,-1.8375,-1.7868,-1.7406,-1.7018,-1.6312,-1.5588,-1.496,-1.4097,-1.3425,-1.2719,-1.1868,-1.086,-1.0016,-0.9402,-0.8794,-0.8427,-0.8436,-0.8377,-0.8264,-0.8236,-0.8042,-0.7717,-0.7456,-0.6662,-0.5807,-0.508,-0.4486,-0.3889,-0.3489,-0.2954,-0.2485,-0.2016,-0.1344,-0.0604,-0.0067,0.0537,0.1276,0.1945,0.288,0.3944,0.474,0.5463,0.5982,0.6506,0.7149,0.7797,0.8484,0.9654,1.145,1.3386,1.5286,1.6836,1.795,1.9134,2.0268,2.1331,2.235,2.3312,2.421,2.4896,-2.4647,-2.4723,-2.4847,-2.4987,-2.5106,-2.516,-2.5243,-2.5322,-2.5432,-2.5503,-2.5525,-2.5571,-2.5632,-2.5676,-2.5698,-2.5702,-2.5687,-2.5701,-2.569,-2.5691,-2.5632,-2.5595,-2.5554,-2.5511,-2.544,-2.5351,-2.5233,-2.5106,-2.494,-2.4768,-2.4545,-2.4375,-2.4153,-2.3896,-2.3725,-2.3571,-2.3365,-2.3168,-2.2995,-2.2816,-2.2436,-2.1895,-2.137,-2.0925,-2.0646,-2.0342,-2.0115,-1.9904,-1.9777,-1.9647,-1.9538,-1.9428,-1.9265,-1.9107,-1.8917,-1.8634,-1.8202,-1.7828,-1.7447,-1.6892,-1.6331,-1.5948,-1.5097,-1.4601,-1.4103,-1.3275,-1.2121,-1.1168,-1.0649,-1.0235,-0.9816,-0.9706,-0.9615,-0.939,-0.9204,-0.9017,-0.8753,-0.8361,-0.7972,-0.7186,-0.6474,-0.5749,-0.5087,-0.4492,-0.3956,-0.3489,-0.3019,-0.2485,-0.1813,-0.1343,-0.0738,0.0067,0.0872,0.1609,0.2479,0.3149,0.3744,0.4273,0.4734,0.5256,0.5778,0.6298,0.7534,0.8762,1.0097,1.1935,1.3606,1.539,1.6696,1.7909,1.9159,2.0241,2.1154,2.2079,2.2909,-2.4685,-2.4779,-2.4884,-2.4981,-2.5103,-2.5171,-2.5262,-2.5322,-2.5432,-2.5503,-2.5505,-2.5556,-2.5632,-2.5681,-2.5703,-2.5698,-2.5689,-2.5701,-2.569,-2.5691,-2.5632,-2.5576,-2.5511,-2.5444,-2.5385,-2.5313,-2.5241,-2.5118,-2.498,-2.4827,-2.4695,-2.4517,-2.4248,-2.3999,-2.3834,-2.3664,-2.3435,-2.3217,-2.307,-2.2756,-2.2337,-2.1998,-2.1615,-2.1261,-2.0925,-2.0613,-2.0342,-2.008,-1.9919,-1.9777,-1.9632,-1.9487,-1.9302,-1.9107,-1.8841,-1.8556,-1.8268,-1.8069,-1.7788,-1.7323,-1.7111,-1.691,-1.6414,-1.6136,-1.5546,-1.465,-1.3494,-1.2555,-1.221,-1.1821,-1.1316,-1.1085,-1.0885,-1.0647,-1.0332,-1.0021,-0.9703,-0.9384,-0.8994,-0.849,-0.7707,-0.6863,-0.6079,-0.5554,-0.5027,-0.4558,-0.4023,-0.3491,-0.2889,-0.235,-0.1812,-0.094,-0.0269,0.0537,0.0939,0.161,0.2079,0.2546,0.2945,0.3409,0.3867,0.4392,0.5124,0.6286,0.7564,0.8972,1.0988,1.2676,1.4168,1.5478,1.667,1.7772,1.8849,1.9849,2.0872,-2.4647,-2.481,-2.4865,-2.4987,-2.5099,-2.5179,-2.5253,-2.537,-2.544,-2.5529,-2.5556,-2.5576,-2.5642,-2.5691,-2.5703,-2.5698,-2.5689,-2.5701,-2.5668,-2.5644,-2.5615,-2.5574,-2.5499,-2.5426,-2.536,-2.5284,-2.5231,-2.5153,-2.5032,-2.4912,-2.4768,-2.4596,-2.4373,-2.4174,-2.3979,-2.3816,-2.3642,-2.3412,-2.3151,-2.2799,-2.2436,-2.2113,-2.1823,-2.1481,-2.1167,-2.0909,-2.061,-2.0273,-2.003,-1.9803,-1.9632,-1.9376,-1.9176,-1.9003,-1.8774,-1.8517,-1.8333,-1.8135,-1.7868,-1.757,-1.7597,-1.7617,-1.7252,-1.6753,-1.6445,-1.5823,-1.4935,-1.4185,-1.3529,-1.3067,-1.2611,-1.2253,-1.2073,-1.1805,-1.1465,-1.1205,-1.0829,-1.0395,-1.0015,-0.9512,-0.9005,-0.8161,-0.7386,-0.6732,-0.6079,-0.5352,-0.4954,-0.4422,-0.3756,-0.3088,-0.2484,-0.1812,-0.1208,-0.0604,-0.0269,0.0134,0.047,0.0939,0.114,0.1607,0.2007,0.2538,0.3268,0.4,0.5042,0.6651,0.8446,1.0233,1.1997,1.3082,1.4105,1.5254,1.6454,1.7788,1.8987,-2.4613,-2.4776,-2.4851,-2.4947,-2.5088,-2.5157,-2.5273,-2.537,-2.5459,-2.551,-2.5582,-2.5604,-2.5654,-2.5698,-2.5703,-2.5697,-2.5703,-2.5696,-2.5658,-2.5632,-2.559,-2.5518,-2.5476,-2.5406,-2.5341,-2.5264,-2.522,-2.5153,-2.5101,-2.4999,-2.4856,-2.4654,-2.451,-2.4355,-2.4173,-2.3998,-2.3813,-2.3504,-2.3175,-2.285,-2.2552,-2.2315,-2.2015,-2.1724,-2.1435,-2.1151,-2.081,-2.0444,-2.0139,-1.9909,-1.9654,-1.9413,-1.9176,-1.9003,-1.8774,-1.8542,-1.8372,-1.824,-1.8055,-1.7909,-1.7946,-1.7965,-1.7836,-1.7446,-1.7157,-1.6721,-1.6061,-1.5117,-1.4569,-1.41,-1.3687,-1.3191,-1.3006,-1.2789,-1.2518,-1.2303,-1.1997,-1.1458,-1.0982,-1.0528,-1.0021,-0.9582,-0.8807,-0.7967,-0.719,-0.6342,-0.5815,-0.5355,-0.4688,-0.3954,-0.3355,-0.2817,-0.2283,-0.1746,-0.1477,-0.1208,-0.094,-0.0672,-0.047,-0.0201,0.0201,0.0737,0.1405,0.2072,0.2872,0.4058,0.5741,0.7817,0.9768,1.0871,1.1905,1.2841,1.3992,1.5434,1.7081,-2.458,-2.4717,-2.4787,-2.4865,-2.5025,-2.5141,-2.5241,-2.5313,-2.5376,-2.5456,-2.5537,-2.5621,-2.5673,-2.5693,-2.5703,-2.5696,-2.5693,-2.5701,-2.566,-2.5605,-2.5531,-2.5464,-2.5412,-2.5341,-2.5273,-2.522,-2.5206,-2.5141,-2.5113,-2.507,-2.4945,-2.4779,-2.4626,-2.4497,-2.4321,-2.4134,-2.3831,-2.3544,-2.3193,-2.2919,-2.2685,-2.2443,-2.2192,-2.1915,-2.1664,-2.1419,-2.1103,-2.0679,-2.0342,-2.01,-1.9797,-1.9523,-1.9265,-1.904,-1.8774,-1.8542,-1.845,-1.8372,-1.8347,-1.823,-1.8358,-1.8484,-1.8448,-1.8226,-1.7967,-1.7167,-1.6407,-1.5793,-1.53,-1.4869,-1.4453,-1.4038,-1.38,-1.367,-1.3385,-1.3007,-1.2746,-1.2382,-1.1928,-1.1494,-1.101,-1.0461,-1.0148,-0.9308,-0.835,-0.7442,-0.6666,-0.6272,-0.5617,-0.4951,-0.4422,-0.3889,-0.3424,-0.2954,-0.2618,-0.2281,-0.1945,-0.188,-0.1813,-0.168,-0.1478,-0.094,-0.0335,0.0402,0.1203,0.2072,0.3139,0.516,0.7044,0.8553,0.9775,1.0774,1.2149,1.3777,1.5287,-2.4498,-2.458,-2.4663,-2.4783,-2.494,-2.5082,-2.5176,-2.5273,-2.534,-2.5449,-2.5568,-2.5609,-2.5665,-2.5689,-2.5701,-2.5701,-2.5687,-2.5704,-2.5632,-2.5554,-2.5473,-2.541,-2.5351,-2.5283,-2.522,-2.5187,-2.5172,-2.5118,-2.5082,-2.5076,-2.4945,-2.4813,-2.4707,-2.4596,-2.4428,-2.4153,-2.381,-2.3522,-2.3217,-2.2944,-2.2712,-2.2515,-2.2248,-2.1928,-2.1738,-2.1481,-2.1167,-2.086,-2.0512,-2.0204,-1.9889,-1.9581,-1.9339,-1.904,-1.8774,-1.8556,-1.8503,-1.8581,-1.8606,-1.8478,-1.8451,-1.8864,-1.902,-1.8996,-1.8595,-1.7858,-1.7266,-1.6657,-1.6022,-1.5499,-1.5399,-1.4871,-1.4419,-1.4403,-1.4141,-1.3756,-1.3366,-1.3038,-1.2654,-1.2145,-1.1738,-1.1289,-1.0974,-1.0647,-0.9627,-0.8603,-0.7832,-0.712,-0.6531,-0.5943,-0.5481,-0.4954,-0.4489,-0.4025,-0.3687,-0.3351,-0.3017,-0.3021,-0.3025,-0.2824,-0.2688,-0.2622,-0.2013,-0.1206,-0.0469,0.0334,0.1336,0.2734,0.438,0.6213,0.7678,0.8818,1.0367,1.2036,1.3388,-2.4411,-2.4462,-2.453,-2.4692,-2.4884,-2.5019,-2.5111,-2.5222,-2.5313,-2.5445,-2.5576,-2.5576,-2.5625,-2.5659,-2.5696,-2.5703,-2.5693,-2.5665,-2.56,-2.5517,-2.5444,-2.5376,-2.5303,-2.5231,-2.5187,-2.5164,-2.5118,-2.5082,-2.5044,-2.5037,-2.4936,-2.4798,-2.4707,-2.4596,-2.4444,-2.4135,-2.381,-2.3544,-2.3241,-2.297,-2.2694,-2.2542,-2.2276,-2.1986,-2.1781,-2.1556,-2.1262,-2.0925,-2.0628,-2.0289,-1.994,-1.9632,-1.9339,-1.904,-1.8812,-1.8659,-1.8659,-1.875,-1.8798,-1.875,-1.8796,-1.9305,-1.9238,-1.9148,-1.8844,-1.83,-1.7509,-1.7063,-1.6464,-1.6103,-1.5984,-1.5296,-1.5001,-1.4919,-1.4777,-1.4395,-1.3984,-1.3663,-1.3261,-1.2872,-1.2429,-1.2103,-1.2004,-1.1648,-1.0647,-0.9691,-0.8994,-0.8285,-0.7637,-0.712,-0.6535,-0.6009,-0.5543,-0.5084,-0.4688,-0.4353,-0.4084,-0.3885,-0.3823,-0.3692,-0.3558,-0.356,-0.3291,-0.248,-0.1809,-0.1408,-0.0469,0.0668,0.2333,0.413,0.5599,0.7082,0.8353,0.9997,1.1158,-2.4321,-2.4321,-2.4444,-2.4626,-2.4808,-2.4961,-2.508,-2.5201,-2.5293,-2.5387,-2.551,-2.5576,-2.5615,-2.5619,-2.5661,-2.5702,-2.5673,-2.5642,-2.5591,-2.5525,-2.543,-2.5378,-2.5312,-2.5239,-2.5176,-2.5106,-2.5082,-2.5076,-2.5025,-2.4977,-2.4875,-2.4757,-2.4629,-2.4549,-2.4479,-2.4173,-2.3873,-2.3589,-2.3265,-2.2995,-2.2738,-2.2569,-2.2315,-2.2044,-2.184,-2.1617,-2.1309,-2.0958,-2.0628,-2.0254,-1.9904,-1.9581,-1.9288,-1.904,-1.8851,-1.876,-1.8697,-1.8812,-1.9026,-1.9064,-1.9373,-1.9652,-1.9448,-1.918,-1.8961,-1.8371,-1.7686,-1.7334,-1.6771,-1.6305,-1.5941,-1.5596,-1.5498,-1.5423,-1.5286,-1.5081,-1.4682,-1.4277,-1.3904,-1.363,-1.3327,-1.3074,-1.2972,-1.265,-1.1655,-1.0773,-1.0085,-0.9442,-0.886,-0.8285,-0.7707,-0.712,-0.6593,-0.6079,-0.5686,-0.5425,-0.5156,-0.4888,-0.4622,-0.4489,-0.4359,-0.4292,-0.3956,-0.3551,-0.3151,-0.2681,-0.2147,-0.1477,0.0336,0.2153,0.3964,0.5487,0.6729,0.7868,0.897,-2.4191,-2.4229,-2.4375,-2.453,-2.4685,-2.4842,-2.5006,-2.5153,-2.5262,-2.5388,-2.5499,-2.5538,-2.5554,-2.5609,-2.5648,-2.5697,-2.568,-2.5623,-2.5591,-2.5557,-2.5441,-2.5359,-2.5303,-2.5241,-2.5179,-2.5153,-2.5137,-2.5044,-2.4993,-2.4917,-2.4787,-2.4663,-2.4497,-2.4339,-2.4229,-2.4016,-2.3792,-2.3526,-2.3241,-2.297,-2.2712,-2.2552,-2.2343,-2.2027,-2.1869,-2.1631,-2.1309,-2.099,-2.0595,-2.0185,-1.9818,-1.9457,-1.9176,-1.8889,-1.8659,-1.862,-1.8595,-1.8774,-1.9269,-1.9604,-1.9922,-1.9811,-1.9605,-1.9376,-1.9152,-1.868,-1.8121,-1.7666,-1.7214,-1.6795,-1.6466,-1.6144,-1.5999,-1.6022,-1.5901,-1.5731,-1.5356,-1.4997,-1.465,-1.4407,-1.4119,-1.3929,-1.3749,-1.3614,-1.2818,-1.2205,-1.1516,-1.0773,-1.0135,-0.9506,-0.8935,-0.8291,-0.7707,-0.7129,-0.6679,-0.6412,-0.6083,-0.5815,-0.5481,-0.5219,-0.5153,-0.5024,-0.4821,-0.4483,-0.4223,-0.3892,-0.322,-0.2421,-0.1429,0.0136,0.1843,0.3459,0.4711,0.5722,0.6744,-2.4133,-2.421,-2.4339,-2.4478,-2.4639,-2.4832,-2.5,-2.5164,-2.5283,-2.5397,-2.5464,-2.549,-2.555,-2.5605,-2.5664,-2.5689,-2.5703,-2.5665,-2.561,-2.5577,-2.5441,-2.5367,-2.5293,-2.5233,-2.5187,-2.5172,-2.5094,-2.5019,-2.4926,-2.4817,-2.4679,-2.4532,-2.4338,-2.4229,-2.4113,-2.3976,-2.3813,-2.3571,-2.3319,-2.307,-2.2816,-2.2605,-2.2371,-2.2118,-2.1886,-2.1648,-2.1309,-2.0958,-2.0579,-2.0135,-1.9711,-1.9347,-1.9011,-1.8683,-1.8425,-1.8361,-1.8733,-1.9112,-1.985,-2.0338,-2.0445,-2.0132,-1.9921,-1.969,-1.9406,-1.8997,-1.8616,-1.8187,-1.7747,-1.7337,-1.6973,-1.6645,-1.6515,-1.6544,-1.649,-1.6295,-1.6036,-1.5646,-1.5339,-1.5134,-1.4741,-1.4572,-1.4505,-1.4364,-1.4043,-1.3563,-1.307,-1.2266,-1.1461,-1.0773,-1.0085,-0.9442,-0.8807,-0.8231,-0.7652,-0.726,-0.6999,-0.6671,-0.6408,-0.6075,-0.5951,-0.5888,-0.5686,-0.5484,-0.516,-0.4761,-0.4023,-0.3234,-0.2391,-0.1526,-0.0421,0.1141,0.2628,0.3723,0.4707,-2.3983,-2.4135,-2.4282,-2.447,-2.4666,-2.4836,-2.5075,-2.5292,-2.5351,-2.5395,-2.5401,-2.549,-2.5538,-2.5599,-2.5664,-2.5687,-2.5703,-2.5701,-2.5654,-2.5576,-2.5464,-2.5385,-2.5303,-2.5233,-2.5198,-2.5106,-2.5032,-2.4947,-2.4827,-2.4692,-2.4566,-2.4393,-2.4284,-2.419,-2.4113,-2.4034,-2.3873,-2.3638,-2.3389,-2.3119,-2.2893,-2.2685,-2.2443,-2.2175,-2.1945,-2.1678,-2.134,-2.0974,-2.0579,-2.0135,-1.9726,-1.9273,-1.8846,-1.8475,-1.8214,-1.8316,-1.8948,-1.9726,-2.0398,-2.0761,-2.0925,-2.059,-2.0406,-2.0059,-1.9675,-1.9332,-1.8959,-1.8577,-1.8121,-1.7828,-1.7483,-1.726,-1.7036,-1.7073,-1.7123,-1.688,-1.661,-1.6304,-1.6009,-1.5673,-1.5193,-1.4964,-1.4993,-1.4961,-1.4834,-1.4588,-1.4103,-1.3614,-1.2749,-1.1888,-1.1205,-1.0458,-0.9824,-0.9262,-0.8748,-0.8231,-0.7912,-0.7652,-0.726,-0.6999,-0.6876,-0.6679,-0.6478,-0.628,-0.6098,-0.5582,-0.4879,-0.4235,-0.3582,-0.2732,-0.2016,-0.0729,0.0816,0.1805,0.2752,-2.23,-2.2501,-2.3279,-2.3749,-2.4016,-2.4808,-2.5231,-2.5293,-2.5322,-2.5369,-2.5382,-2.5468,-2.5544,-2.5607,-2.5678,-2.5687,-2.5703,-2.5685,-2.5644,-2.559,-2.5499,-2.5395,-2.5329,-2.5264,-2.5231,-2.5153,-2.5038,-2.4921,-2.4783,-2.4629,-2.4428,-2.4248,-2.421,-2.4171,-2.417,-2.4112,-2.3933,-2.3721,-2.3435,-2.3199,-2.2944,-2.2755,-2.2515,-2.2265,-2.2003,-2.1721,-2.1433,-2.1071,-2.0646,-2.0135,-1.9705,-1.9228,-1.8774,-1.8347,-1.8071,-1.8491,-1.9162,-1.9844,-2.0343,-2.0998,-2.1268,-2.1105,-2.0971,-2.052,-2.0012,-1.9597,-1.9315,-1.9037,-1.8621,-1.8317,-1.8104,-1.7917,-1.7811,-1.789,-1.7835,-1.7627,-1.7312,-1.7075,-1.6753,-1.6144,-1.5649,-1.5462,-1.5478,-1.5439,-1.5362,-1.5362,-1.5147,-1.4703,-1.4019,-1.3164,-1.2266,-1.1454,-1.0899,-1.0332,-0.9703,-0.9192,-0.8882,-0.8571,-0.8177,-0.7852,-0.7657,-0.7526,-0.7265,-0.7038,-0.6835,-0.6356,-0.5662,-0.5149,-0.4711,-0.421,-0.3499,-0.2246,-0.1056,-0.0,0.1001,-2.1624,-2.1889,-2.2542,-2.299,-2.3379,-2.4347,-2.4851,-2.4908,-2.5225,-2.5415,-2.5445,-2.5498,-2.5557,-2.5599,-2.5664,-2.5701,-2.5703,-2.5689,-2.5671,-2.561,-2.555,-2.5444,-2.5374,-2.5293,-2.5212,-2.5153,-2.5044,-2.4879,-2.4738,-2.4549,-2.4339,-2.421,-2.419,-2.4209,-2.417,-2.4113,-2.3974,-2.3768,-2.3549,-2.3319,-2.307,-2.279,-2.2569,-2.2321,-2.2061,-2.1797,-2.1526,-2.1103,-2.0663,-2.0154,-1.969,-1.9176,-1.8697,-1.8189,-1.8205,-1.8612,-1.9154,-1.9899,-2.058,-2.1244,-2.1393,-2.137,-2.1351,-2.1046,-2.0617,-2.0194,-2.0016,-1.9785,-1.9272,-1.8852,-1.8704,-1.8569,-1.8682,-1.8771,-1.8558,-1.8394,-1.8148,-1.7907,-1.7357,-1.6684,-1.6275,-1.5979,-1.5904,-1.5904,-1.5936,-1.6038,-1.6059,-1.5908,-1.5111,-1.4239,-1.3266,-1.2328,-1.1834,-1.1337,-1.0787,-1.0244,-0.9913,-0.9536,-0.9075,-0.8748,-0.8565,-0.8268,-0.8032,-0.7849,-0.7616,-0.7082,-0.6692,-0.6346,-0.5926,-0.543,-0.4927,-0.4022,-0.2822,-0.1622,-0.0622,-2.1509,-2.1686,-2.2027,-2.2357,-2.2717,-2.364,-2.4039,-2.4184,-2.4838,-2.5364,-2.5444,-2.5577,-2.5593,-2.562,-2.5673,-2.5704,-2.5702,-2.5693,-2.5662,-2.5604,-2.5568,-2.5478,-2.5393,-2.5322,-2.522,-2.5094,-2.4953,-2.4794,-2.4642,-2.4462,-2.4303,-2.4192,-2.419,-2.419,-2.419,-2.4132,-2.4014,-2.3813,-2.3682,-2.3499,-2.3217,-2.2944,-2.2659,-2.2405,-2.2089,-2.1764,-2.1432,-2.1071,-2.0681,-2.0208,-1.9717,-1.9221,-1.8553,-1.7989,-1.8182,-1.8587,-1.9073,-1.9874,-2.0624,-2.1302,-2.1453,-2.1465,-2.1536,-2.1427,-2.1138,-2.0793,-2.0556,-2.0395,-1.9936,-1.9706,-1.9553,-1.9166,-1.9124,-1.9083,-1.8941,-1.8738,-1.8431,-1.8041,-1.7434,-1.6818,-1.6431,-1.6202,-1.6002,-1.6022,-1.6313,-1.6605,-1.6769,-1.6718,-1.623,-1.5308,-1.4453,-1.3495,-1.3103,-1.2625,-1.1929,-1.1425,-1.0968,-1.0498,-1.0053,-0.9646,-0.9396,-0.9133,-0.881,-0.8687,-0.8633,-0.823,-0.7849,-0.7525,-0.7119,-0.6544,-0.6026,-0.567,-0.463,-0.3348,-0.2267,-2.0041,-2.0311,-2.1229,-2.1999,-2.2652,-2.3047,-2.3192,-2.3214,-2.3469,-2.4348,-2.5316,-2.5518,-2.5526,-2.5396,-2.5433,-2.5476,-2.5602,-2.5502,-2.5612,-2.5617,-2.5585,-2.5492,-2.5401,-2.5322,-2.5198,-2.5038,-2.4879,-2.4707,-2.4497,-2.4339,-2.4247,-2.419,-2.419,-2.419,-2.419,-2.4132,-2.4016,-2.3855,-2.3725,-2.3522,-2.3193,-2.2893,-2.2605,-2.2388,-2.2118,-2.184,-2.1524,-2.1182,-2.078,-2.0361,-1.9803,-1.9109,-1.8333,-1.7909,-1.8156,-1.8811,-1.8957,-1.9706,-2.051,-2.1077,-2.1226,-2.1499,-2.1625,-2.1769,-2.1707,-2.1351,-2.1129,-2.0927,-2.0703,-2.0539,-2.028,-1.9845,-1.9468,-1.9384,-1.9278,-1.8996,-1.8744,-1.8084,-1.7423,-1.6987,-1.6602,-1.6378,-1.6246,-1.6293,-1.6624,-1.6889,-1.7185,-1.7235,-1.6994,-1.6374,-1.5888,-1.5123,-1.4615,-1.4106,-1.3307,-1.2656,-1.2236,-1.1736,-1.1256,-1.0819,-1.0334,-1.0108,-0.9952,-0.9823,-0.9633,-0.9395,-0.9088,-0.8758,-0.8332,-0.7668,-0.7223,-0.6786,-0.619,-0.5065,-0.3906,-1.9599,-1.988,-2.0565,-2.1175,-2.166,-2.2119,-2.233,-2.2409,-2.2798,-2.3515,-2.4316,-2.4461,-2.4496,-2.4499,-2.4534,-2.4915,-2.5056,-2.5115,-2.5327,-2.5488,-2.5517,-2.5506,-2.541,-2.5313,-2.5126,-2.4968,-2.4749,-2.453,-2.4339,-2.4266,-2.421,-2.4209,-2.419,-2.4208,-2.4208,-2.4132,-2.4016,-2.3855,-2.3725,-2.3458,-2.3119,-2.2885,-2.2632,-2.2388,-2.2135,-2.1903,-2.1524,-2.1182,-2.0828,-2.0326,-1.9752,-1.9147,-1.8475,-1.8042,-1.8163,-1.8601,-1.8923,-1.9329,-2.0145,-2.069,-2.0957,-2.1277,-2.1458,-2.1513,-2.1608,-2.1327,-2.1478,-2.1296,-2.112,-2.0907,-2.0641,-2.0289,-1.981,-1.9584,-1.9362,-1.9121,-1.8679,-1.8073,-1.7523,-1.7032,-1.6831,-1.6873,-1.6742,-1.6829,-1.7134,-1.7387,-1.762,-1.7792,-1.7566,-1.7313,-1.6898,-1.6534,-1.5945,-1.5272,-1.4401,-1.3978,-1.3623,-1.3084,-1.2465,-1.2114,-1.1666,-1.1361,-1.1149,-1.1041,-1.0944,-1.073,-1.0431,-1.0043,-0.9422,-0.8803,-0.8358,-0.7923,-0.7318,-0.6703,-0.5693,-1.9738,-1.9947,-2.0135,-2.026,-2.0389,-2.1109,-2.1447,-2.1591,-2.2281,-2.2602,-2.2663,-2.2745,-2.2831,-2.3079,-2.3132,-2.3643,-2.4023,-2.4215,-2.4683,-2.5192,-2.5328,-2.5344,-2.5343,-2.5254,-2.5061,-2.4861,-2.4645,-2.4445,-2.4266,-2.421,-2.4209,-2.4209,-2.4208,-2.4208,-2.417,-2.4094,-2.3976,-2.3792,-2.3616,-2.3389,-2.3144,-2.298,-2.2838,-2.2564,-2.2295,-2.1966,-2.1596,-2.1231,-2.0921,-2.0292,-1.9717,-1.9147,-1.8669,-1.8293,-1.8303,-1.8591,-1.8959,-1.9351,-1.9921,-2.0535,-2.0805,-2.101,-2.1082,-2.1166,-2.1299,-2.1369,-2.1534,-2.1452,-2.1264,-2.1068,-2.0845,-2.0584,-2.0144,-1.9656,-1.942,-1.9182,-1.8637,-1.8141,-1.769,-1.7197,-1.7201,-1.7284,-1.7234,-1.7318,-1.7529,-1.7785,-1.7981,-1.8105,-1.8128,-1.7932,-1.7607,-1.7264,-1.6874,-1.6215,-1.5474,-1.5142,-1.4863,-1.4323,-1.3728,-1.3383,-1.3042,-1.2721,-1.2477,-1.2395,-1.2246,-1.2044,-1.1627,-1.1211,-1.0576,-0.9986,-0.9533,-0.9074,-0.8394,-0.7859,-0.7403,-1.9873,-2.0069,-2.015,-2.0238,-2.0312,-2.0472,-2.0565,-2.0637,-2.082,-2.0915,-2.1118,-2.1161,-2.1646,-2.3072,-2.3105,-2.3278,-2.3242,-2.3353,-2.3893,-2.4514,-2.4559,-2.4911,-2.5183,-2.5126,-2.4987,-2.4775,-2.4545,-2.4392,-2.4248,-2.4228,-2.4209,-2.419,-2.4208,-2.417,-2.4112,-2.3996,-2.3855,-2.3703,-2.3499,-2.3276,-2.33,-2.3248,-2.3436,-2.3405,-2.3522,-2.3025,-2.2524,-2.1985,-2.1318,-2.0562,-1.9818,-1.9288,-1.8912,-1.8581,-1.8519,-1.8727,-1.9068,-1.9461,-2.0,-2.0492,-2.0805,-2.0924,-2.0947,-2.0871,-2.0908,-2.0858,-2.093,-2.093,-2.0772,-2.0835,-2.061,-2.051,-2.0118,-1.9693,-1.9352,-1.9083,-1.8666,-1.8428,-1.8056,-1.7806,-1.7631,-1.7501,-1.7327,-1.7486,-1.7789,-1.7981,-1.8125,-1.8228,-1.82,-1.8172,-1.8202,-1.7881,-1.7533,-1.7178,-1.6514,-1.6307,-1.5969,-1.5414,-1.4963,-1.4572,-1.4269,-1.3986,-1.3769,-1.37,-1.3499,-1.3288,-1.2865,-1.2425,-1.1848,-1.1254,-1.0738,-1.0288,-0.9533,-0.9008,-0.8546]}]]